<?xml version="1.0" encoding="UTF-8" standalone="no" ?>
<gpx xmlns="http://www.topografix.com/GPX/1/1" xmlns:xsi="http://www.w3.org/2001/XMLSchema-instance" xsi:schemaLocation="http://www.topografix.com/GPX/1/1 http://www.topografix.com/GPX/1/1/gpx.xsd" version="1.1" creator="VisuGPX - https://www.visugpx.com">
  <metadata>
    <name>Cascade de Langouette/source de la Saine</name>
    <desc><![CDATA[belle randonnée au c%u0153ur des montagnes Jurassiennes]]></desc>
  </metadata>
  <trk>
    <name><![CDATA[2015-05-14 17:33:51]]></name>
    <trkseg>
      <trkpt lat="46.65597" lon="6.00546">
        <ele>699.02</ele>
        <time>2015-05-14T07:57:00Z</time>
      </trkpt>
      <trkpt lat="46.65597" lon="6.00546">
        <ele>699.02</ele>
        <time>2015-05-14T07:57:01Z</time>
      </trkpt>
      <trkpt lat="46.65596" lon="6.00544">
        <ele>699.02</ele>
        <time>2015-05-14T07:57:20Z</time>
      </trkpt>
      <trkpt lat="46.65596" lon="6.00543">
        <ele>699.02</ele>
        <time>2015-05-14T07:57:30Z</time>
      </trkpt>
      <trkpt lat="46.65595" lon="6.00539">
        <ele>698.53</ele>
        <time>2015-05-14T07:57:42Z</time>
      </trkpt>
      <trkpt lat="46.65593" lon="6.00544">
        <ele>698.53</ele>
        <time>2015-05-14T07:57:55Z</time>
      </trkpt>
      <trkpt lat="46.6559" lon="6.00541">
        <ele>698.53</ele>
        <time>2015-05-14T07:58:18Z</time>
      </trkpt>
      <trkpt lat="46.65594" lon="6.00536">
        <ele>698.53</ele>
        <time>2015-05-14T07:58:35Z</time>
      </trkpt>
      <trkpt lat="46.65597" lon="6.00536">
        <ele>698.53</ele>
        <time>2015-05-14T07:58:50Z</time>
      </trkpt>
      <trkpt lat="46.65598" lon="6.00534">
        <ele>698.53</ele>
        <time>2015-05-14T07:59:09Z</time>
      </trkpt>
      <trkpt lat="46.65598" lon="6.00534">
        <ele>698.53</ele>
        <time>2015-05-14T07:59:22Z</time>
      </trkpt>
      <trkpt lat="46.65599" lon="6.00533">
        <ele>698.53</ele>
        <time>2015-05-14T07:59:38Z</time>
      </trkpt>
      <trkpt lat="46.65599" lon="6.00533">
        <ele>698.53</ele>
        <time>2015-05-14T07:59:57Z</time>
      </trkpt>
      <trkpt lat="46.65598" lon="6.00527">
        <ele>698.53</ele>
        <time>2015-05-14T08:00:17Z</time>
      </trkpt>
      <trkpt lat="46.65596" lon="6.00523">
        <ele>698.53</ele>
        <time>2015-05-14T08:00:37Z</time>
      </trkpt>
      <trkpt lat="46.65596" lon="6.00518">
        <ele>698.05</ele>
        <time>2015-05-14T08:00:55Z</time>
      </trkpt>
      <trkpt lat="46.65593" lon="6.00506">
        <ele>698.05</ele>
        <time>2015-05-14T08:01:12Z</time>
      </trkpt>
      <trkpt lat="46.6559" lon="6.00504">
        <ele>698.05</ele>
        <time>2015-05-14T08:01:32Z</time>
      </trkpt>
      <trkpt lat="46.65588" lon="6.00503">
        <ele>698.05</ele>
        <time>2015-05-14T08:01:53Z</time>
      </trkpt>
      <trkpt lat="46.65586" lon="6.00499">
        <ele>698.05</ele>
        <time>2015-05-14T08:02:12Z</time>
      </trkpt>
      <trkpt lat="46.65583" lon="6.00492">
        <ele>698.05</ele>
        <time>2015-05-14T08:02:34Z</time>
      </trkpt>
      <trkpt lat="46.6558" lon="6.00482">
        <ele>698.05</ele>
        <time>2015-05-14T08:02:47Z</time>
      </trkpt>
      <trkpt lat="46.65577" lon="6.00482">
        <ele>698.05</ele>
        <time>2015-05-14T08:03:01Z</time>
      </trkpt>
      <trkpt lat="46.65574" lon="6.00487">
        <ele>699.5</ele>
        <time>2015-05-14T08:03:11Z</time>
      </trkpt>
      <trkpt lat="46.65573" lon="6.00489">
        <ele>700.46</ele>
        <time>2015-05-14T08:03:13Z</time>
      </trkpt>
      <trkpt lat="46.65556" lon="6.00521">
        <ele>702.38</ele>
        <time>2015-05-14T08:03:33Z</time>
      </trkpt>
      <trkpt lat="46.65539" lon="6.00543">
        <ele>702.86</ele>
        <time>2015-05-14T08:03:53Z</time>
      </trkpt>
      <trkpt lat="46.65534" lon="6.0055">
        <ele>702.86</ele>
        <time>2015-05-14T08:04:02Z</time>
      </trkpt>
      <trkpt lat="46.65522" lon="6.00569">
        <ele>703.34</ele>
        <time>2015-05-14T08:04:20Z</time>
      </trkpt>
      <trkpt lat="46.65514" lon="6.00578">
        <ele>703.34</ele>
        <time>2015-05-14T08:04:30Z</time>
      </trkpt>
      <trkpt lat="46.65503" lon="6.00594">
        <ele>704.78</ele>
        <time>2015-05-14T08:04:47Z</time>
      </trkpt>
      <trkpt lat="46.65491" lon="6.00598">
        <ele>704.78</ele>
        <time>2015-05-14T08:04:58Z</time>
      </trkpt>
      <trkpt lat="46.65473" lon="6.00617">
        <ele>704.78</ele>
        <time>2015-05-14T08:05:17Z</time>
      </trkpt>
      <trkpt lat="46.65463" lon="6.00629">
        <ele>703.34</ele>
        <time>2015-05-14T08:05:28Z</time>
      </trkpt>
      <trkpt lat="46.6545" lon="6.00645">
        <ele>702.86</ele>
        <time>2015-05-14T08:05:44Z</time>
      </trkpt>
      <trkpt lat="46.65443" lon="6.00657">
        <ele>701.9</ele>
        <time>2015-05-14T08:06:00Z</time>
      </trkpt>
      <trkpt lat="46.65437" lon="6.00663">
        <ele>700.94</ele>
        <time>2015-05-14T08:06:22Z</time>
      </trkpt>
      <trkpt lat="46.65434" lon="6.00669">
        <ele>698.05</ele>
        <time>2015-05-14T08:06:44Z</time>
      </trkpt>
      <trkpt lat="46.65438" lon="6.0068">
        <ele>696.13</ele>
        <time>2015-05-14T08:07:06Z</time>
      </trkpt>
      <trkpt lat="46.65438" lon="6.00693">
        <ele>695.65</ele>
        <time>2015-05-14T08:07:38Z</time>
      </trkpt>
      <trkpt lat="46.6544" lon="6.00699">
        <ele>693.25</ele>
        <time>2015-05-14T08:07:49Z</time>
      </trkpt>
      <trkpt lat="46.6544" lon="6.00702">
        <ele>695.65</ele>
        <time>2015-05-14T08:07:51Z</time>
      </trkpt>
      <trkpt lat="46.6544" lon="6.00708">
        <ele>695.65</ele>
        <time>2015-05-14T08:07:56Z</time>
      </trkpt>
      <trkpt lat="46.65435" lon="6.00698">
        <ele>695.65</ele>
        <time>2015-05-14T08:08:11Z</time>
      </trkpt>
      <trkpt lat="46.65429" lon="6.00689">
        <ele>693.25</ele>
        <time>2015-05-14T08:08:27Z</time>
      </trkpt>
      <trkpt lat="46.65421" lon="6.00678">
        <ele>693.25</ele>
        <time>2015-05-14T08:08:46Z</time>
      </trkpt>
      <trkpt lat="46.65415" lon="6.00669">
        <ele>695.65</ele>
        <time>2015-05-14T08:09:04Z</time>
      </trkpt>
      <trkpt lat="46.65406" lon="6.0067">
        <ele>699.02</ele>
        <time>2015-05-14T08:09:20Z</time>
      </trkpt>
      <trkpt lat="46.65402" lon="6.00662">
        <ele>701.9</ele>
        <time>2015-05-14T08:09:39Z</time>
      </trkpt>
      <trkpt lat="46.65402" lon="6.0067">
        <ele>700.46</ele>
        <time>2015-05-14T08:09:55Z</time>
      </trkpt>
      <trkpt lat="46.65405" lon="6.00677">
        <ele>699.98</ele>
        <time>2015-05-14T08:10:22Z</time>
      </trkpt>
      <trkpt lat="46.65403" lon="6.00682">
        <ele>699.98</ele>
        <time>2015-05-14T08:10:47Z</time>
      </trkpt>
      <trkpt lat="46.65396" lon="6.00687">
        <ele>699.5</ele>
        <time>2015-05-14T08:11:13Z</time>
      </trkpt>
      <trkpt lat="46.65392" lon="6.00681">
        <ele>699.5</ele>
        <time>2015-05-14T08:11:37Z</time>
      </trkpt>
      <trkpt lat="46.65386" lon="6.00674">
        <ele>699.5</ele>
        <time>2015-05-14T08:11:55Z</time>
      </trkpt>
      <trkpt lat="46.65391" lon="6.00666">
        <ele>700.94</ele>
        <time>2015-05-14T08:12:11Z</time>
      </trkpt>
      <trkpt lat="46.65401" lon="6.00652">
        <ele>703.34</ele>
        <time>2015-05-14T08:12:30Z</time>
      </trkpt>
      <trkpt lat="46.65401" lon="6.00645">
        <ele>706.71</ele>
        <time>2015-05-14T08:12:44Z</time>
      </trkpt>
      <trkpt lat="46.65401" lon="6.00638">
        <ele>710.07</ele>
        <time>2015-05-14T08:13:01Z</time>
      </trkpt>
      <trkpt lat="46.65396" lon="6.00642">
        <ele>712.95</ele>
        <time>2015-05-14T08:13:14Z</time>
      </trkpt>
      <trkpt lat="46.65394" lon="6.00659">
        <ele>716.32</ele>
        <time>2015-05-14T08:13:31Z</time>
      </trkpt>
      <trkpt lat="46.65391" lon="6.00672">
        <ele>718.24</ele>
        <time>2015-05-14T08:13:48Z</time>
      </trkpt>
      <trkpt lat="46.6539" lon="6.00675">
        <ele>718.72</ele>
        <time>2015-05-14T08:14:10Z</time>
      </trkpt>
      <trkpt lat="46.65389" lon="6.00672">
        <ele>718.72</ele>
        <time>2015-05-14T08:14:34Z</time>
      </trkpt>
      <trkpt lat="46.6539" lon="6.00669">
        <ele>718.72</ele>
        <time>2015-05-14T08:15:04Z</time>
      </trkpt>
      <trkpt lat="46.65379" lon="6.00681">
        <ele>717.76</ele>
        <time>2015-05-14T08:15:18Z</time>
      </trkpt>
      <trkpt lat="46.65373" lon="6.00685">
        <ele>718.72</ele>
        <time>2015-05-14T08:15:29Z</time>
      </trkpt>
      <trkpt lat="46.6537" lon="6.00679">
        <ele>720.16</ele>
        <time>2015-05-14T08:15:46Z</time>
      </trkpt>
      <trkpt lat="46.65368" lon="6.00677">
        <ele>720.16</ele>
        <time>2015-05-14T08:16:01Z</time>
      </trkpt>
      <trkpt lat="46.65365" lon="6.00676">
        <ele>720.16</ele>
        <time>2015-05-14T08:16:28Z</time>
      </trkpt>
      <trkpt lat="46.65365" lon="6.00677">
        <ele>720.65</ele>
        <time>2015-05-14T08:16:48Z</time>
      </trkpt>
      <trkpt lat="46.65365" lon="6.0068">
        <ele>720.65</ele>
        <time>2015-05-14T08:17:10Z</time>
      </trkpt>
      <trkpt lat="46.65365" lon="6.00682">
        <ele>720.65</ele>
        <time>2015-05-14T08:17:27Z</time>
      </trkpt>
      <trkpt lat="46.65365" lon="6.00681">
        <ele>720.65</ele>
        <time>2015-05-14T08:17:48Z</time>
      </trkpt>
      <trkpt lat="46.65368" lon="6.00685">
        <ele>721.13</ele>
        <time>2015-05-14T08:18:15Z</time>
      </trkpt>
      <trkpt lat="46.65356" lon="6.00688">
        <ele>721.13</ele>
        <time>2015-05-14T08:18:29Z</time>
      </trkpt>
      <trkpt lat="46.65343" lon="6.00706">
        <ele>719.2</ele>
        <time>2015-05-14T08:18:46Z</time>
      </trkpt>
      <trkpt lat="46.65331" lon="6.00727">
        <ele>717.76</ele>
        <time>2015-05-14T08:19:04Z</time>
      </trkpt>
      <trkpt lat="46.65318" lon="6.00746">
        <ele>718.24</ele>
        <time>2015-05-14T08:19:20Z</time>
      </trkpt>
      <trkpt lat="46.65318" lon="6.00767">
        <ele>717.76</ele>
        <time>2015-05-14T08:19:37Z</time>
      </trkpt>
      <trkpt lat="46.65328" lon="6.00779">
        <ele>717.28</ele>
        <time>2015-05-14T08:19:53Z</time>
      </trkpt>
      <trkpt lat="46.65336" lon="6.0079">
        <ele>716.8</ele>
        <time>2015-05-14T08:20:03Z</time>
      </trkpt>
      <trkpt lat="46.65338" lon="6.00794">
        <ele>716.8</ele>
        <time>2015-05-14T08:20:06Z</time>
      </trkpt>
      <trkpt lat="46.65344" lon="6.00802">
        <ele>716.32</ele>
        <time>2015-05-14T08:20:14Z</time>
      </trkpt>
      <trkpt lat="46.65343" lon="6.00811">
        <ele>716.32</ele>
        <time>2015-05-14T08:20:18Z</time>
      </trkpt>
      <trkpt lat="46.65334" lon="6.00846">
        <ele>716.32</ele>
        <time>2015-05-14T08:20:39Z</time>
      </trkpt>
      <trkpt lat="46.65333" lon="6.00866">
        <ele>717.76</ele>
        <time>2015-05-14T08:20:54Z</time>
      </trkpt>
      <trkpt lat="46.65341" lon="6.00887">
        <ele>718.72</ele>
        <time>2015-05-14T08:21:11Z</time>
      </trkpt>
      <trkpt lat="46.65345" lon="6.00891">
        <ele>719.68</ele>
        <time>2015-05-14T08:21:16Z</time>
      </trkpt>
      <trkpt lat="46.65359" lon="6.00906">
        <ele>721.61</ele>
        <time>2015-05-14T08:21:33Z</time>
      </trkpt>
      <trkpt lat="46.65366" lon="6.00912">
        <ele>722.57</ele>
        <time>2015-05-14T08:21:41Z</time>
      </trkpt>
      <trkpt lat="46.65385" lon="6.00921">
        <ele>723.05</ele>
        <time>2015-05-14T08:21:56Z</time>
      </trkpt>
      <trkpt lat="46.65384" lon="6.00934">
        <ele>723.53</ele>
        <time>2015-05-14T08:22:04Z</time>
      </trkpt>
      <trkpt lat="46.65381" lon="6.00948">
        <ele>723.53</ele>
        <time>2015-05-14T08:22:21Z</time>
      </trkpt>
      <trkpt lat="46.65385" lon="6.00955">
        <ele>723.05</ele>
        <time>2015-05-14T08:22:35Z</time>
      </trkpt>
      <trkpt lat="46.65384" lon="6.00955">
        <ele>723.05</ele>
        <time>2015-05-14T08:23:07Z</time>
      </trkpt>
      <trkpt lat="46.6539" lon="6.00968">
        <ele>723.53</ele>
        <time>2015-05-14T08:23:28Z</time>
      </trkpt>
      <trkpt lat="46.65395" lon="6.00996">
        <ele>723.53</ele>
        <time>2015-05-14T08:23:44Z</time>
      </trkpt>
      <trkpt lat="46.65399" lon="6.01006">
        <ele>723.53</ele>
        <time>2015-05-14T08:23:50Z</time>
      </trkpt>
      <trkpt lat="46.654" lon="6.01013">
        <ele>723.53</ele>
        <time>2015-05-14T08:23:54Z</time>
      </trkpt>
      <trkpt lat="46.65405" lon="6.0104">
        <ele>723.53</ele>
        <time>2015-05-14T08:24:10Z</time>
      </trkpt>
      <trkpt lat="46.65411" lon="6.01066">
        <ele>723.05</ele>
        <time>2015-05-14T08:24:26Z</time>
      </trkpt>
      <trkpt lat="46.65419" lon="6.01093">
        <ele>722.09</ele>
        <time>2015-05-14T08:24:44Z</time>
      </trkpt>
      <trkpt lat="46.65424" lon="6.01116">
        <ele>721.13</ele>
        <time>2015-05-14T08:24:59Z</time>
      </trkpt>
      <trkpt lat="46.65425" lon="6.01121">
        <ele>721.13</ele>
        <time>2015-05-14T08:25:02Z</time>
      </trkpt>
      <trkpt lat="46.6543" lon="6.01144">
        <ele>720.65</ele>
        <time>2015-05-14T08:25:16Z</time>
      </trkpt>
      <trkpt lat="46.6543" lon="6.0117">
        <ele>720.65</ele>
        <time>2015-05-14T08:25:29Z</time>
      </trkpt>
      <trkpt lat="46.6543" lon="6.01194">
        <ele>720.65</ele>
        <time>2015-05-14T08:25:42Z</time>
      </trkpt>
      <trkpt lat="46.65431" lon="6.01207">
        <ele>720.65</ele>
        <time>2015-05-14T08:25:54Z</time>
      </trkpt>
      <trkpt lat="46.65431" lon="6.01208">
        <ele>721.61</ele>
        <time>2015-05-14T08:26:12Z</time>
      </trkpt>
      <trkpt lat="46.6543" lon="6.01208">
        <ele>721.13</ele>
        <time>2015-05-14T08:26:27Z</time>
      </trkpt>
      <trkpt lat="46.65431" lon="6.01209">
        <ele>721.13</ele>
        <time>2015-05-14T08:26:47Z</time>
      </trkpt>
      <trkpt lat="46.6543" lon="6.01217">
        <ele>721.13</ele>
        <time>2015-05-14T08:27:07Z</time>
      </trkpt>
      <trkpt lat="46.65429" lon="6.01241">
        <ele>723.05</ele>
        <time>2015-05-14T08:27:28Z</time>
      </trkpt>
      <trkpt lat="46.65428" lon="6.01268">
        <ele>725.45</ele>
        <time>2015-05-14T08:27:47Z</time>
      </trkpt>
      <trkpt lat="46.65421" lon="6.01288">
        <ele>727.37</ele>
        <time>2015-05-14T08:28:01Z</time>
      </trkpt>
      <trkpt lat="46.65416" lon="6.01309">
        <ele>729.3</ele>
        <time>2015-05-14T08:28:16Z</time>
      </trkpt>
      <trkpt lat="46.65413" lon="6.0132">
        <ele>729.78</ele>
        <time>2015-05-14T08:28:32Z</time>
      </trkpt>
      <trkpt lat="46.65406" lon="6.01337">
        <ele>729.78</ele>
        <time>2015-05-14T08:28:45Z</time>
      </trkpt>
      <trkpt lat="46.654" lon="6.01346">
        <ele>729.78</ele>
        <time>2015-05-14T08:28:53Z</time>
      </trkpt>
      <trkpt lat="46.65387" lon="6.01362">
        <ele>729.78</ele>
        <time>2015-05-14T08:29:09Z</time>
      </trkpt>
      <trkpt lat="46.65375" lon="6.01373">
        <ele>729.78</ele>
        <time>2015-05-14T08:29:21Z</time>
      </trkpt>
      <trkpt lat="46.65364" lon="6.01383">
        <ele>729.78</ele>
        <time>2015-05-14T08:29:33Z</time>
      </trkpt>
      <trkpt lat="46.65357" lon="6.01388">
        <ele>729.78</ele>
        <time>2015-05-14T08:29:38Z</time>
      </trkpt>
      <trkpt lat="46.65354" lon="6.01391">
        <ele>729.78</ele>
        <time>2015-05-14T08:29:41Z</time>
      </trkpt>
      <trkpt lat="46.65343" lon="6.01406">
        <ele>730.26</ele>
        <time>2015-05-14T08:29:54Z</time>
      </trkpt>
      <trkpt lat="46.65337" lon="6.01411">
        <ele>730.26</ele>
        <time>2015-05-14T08:29:59Z</time>
      </trkpt>
      <trkpt lat="46.65316" lon="6.01432">
        <ele>730.74</ele>
        <time>2015-05-14T08:30:19Z</time>
      </trkpt>
      <trkpt lat="46.65302" lon="6.01449">
        <ele>731.22</ele>
        <time>2015-05-14T08:30:34Z</time>
      </trkpt>
      <trkpt lat="46.65287" lon="6.01466">
        <ele>731.22</ele>
        <time>2015-05-14T08:30:50Z</time>
      </trkpt>
      <trkpt lat="46.6527" lon="6.01485">
        <ele>731.7</ele>
        <time>2015-05-14T08:31:06Z</time>
      </trkpt>
      <trkpt lat="46.65254" lon="6.01505">
        <ele>732.18</ele>
        <time>2015-05-14T08:31:23Z</time>
      </trkpt>
      <trkpt lat="46.6524" lon="6.01527">
        <ele>732.66</ele>
        <time>2015-05-14T08:31:40Z</time>
      </trkpt>
      <trkpt lat="46.65224" lon="6.01553">
        <ele>732.66</ele>
        <time>2015-05-14T08:31:58Z</time>
      </trkpt>
      <trkpt lat="46.65216" lon="6.01574">
        <ele>733.14</ele>
        <time>2015-05-14T08:32:12Z</time>
      </trkpt>
      <trkpt lat="46.65212" lon="6.0158">
        <ele>733.62</ele>
        <time>2015-05-14T08:32:17Z</time>
      </trkpt>
      <trkpt lat="46.65202" lon="6.01604">
        <ele>733.62</ele>
        <time>2015-05-14T08:32:34Z</time>
      </trkpt>
      <trkpt lat="46.6519" lon="6.01628">
        <ele>734.1</ele>
        <time>2015-05-14T08:32:49Z</time>
      </trkpt>
      <trkpt lat="46.65182" lon="6.01644">
        <ele>734.58</ele>
        <time>2015-05-14T08:32:59Z</time>
      </trkpt>
      <trkpt lat="46.65179" lon="6.01646">
        <ele>734.58</ele>
        <time>2015-05-14T08:33:01Z</time>
      </trkpt>
      <trkpt lat="46.65175" lon="6.01655">
        <ele>734.58</ele>
        <time>2015-05-14T08:33:07Z</time>
      </trkpt>
      <trkpt lat="46.65175" lon="6.01661">
        <ele>734.58</ele>
        <time>2015-05-14T08:33:11Z</time>
      </trkpt>
      <trkpt lat="46.65168" lon="6.01694">
        <ele>735.07</ele>
        <time>2015-05-14T08:33:29Z</time>
      </trkpt>
      <trkpt lat="46.65169" lon="6.01706">
        <ele>735.07</ele>
        <time>2015-05-14T08:33:37Z</time>
      </trkpt>
      <trkpt lat="46.6517" lon="6.01716">
        <ele>735.07</ele>
        <time>2015-05-14T08:33:43Z</time>
      </trkpt>
      <trkpt lat="46.65171" lon="6.01743">
        <ele>735.55</ele>
        <time>2015-05-14T08:33:57Z</time>
      </trkpt>
      <trkpt lat="46.65176" lon="6.01769">
        <ele>735.07</ele>
        <time>2015-05-14T08:34:13Z</time>
      </trkpt>
      <trkpt lat="46.65177" lon="6.01776">
        <ele>735.55</ele>
        <time>2015-05-14T08:34:17Z</time>
      </trkpt>
      <trkpt lat="46.65183" lon="6.01803">
        <ele>735.55</ele>
        <time>2015-05-14T08:34:32Z</time>
      </trkpt>
      <trkpt lat="46.65187" lon="6.01823">
        <ele>736.03</ele>
        <time>2015-05-14T08:34:47Z</time>
      </trkpt>
      <trkpt lat="46.65189" lon="6.01824">
        <ele>736.03</ele>
        <time>2015-05-14T08:34:59Z</time>
      </trkpt>
      <trkpt lat="46.65193" lon="6.01823">
        <ele>735.07</ele>
        <time>2015-05-14T08:35:24Z</time>
      </trkpt>
      <trkpt lat="46.65193" lon="6.01822">
        <ele>736.03</ele>
        <time>2015-05-14T08:35:47Z</time>
      </trkpt>
      <trkpt lat="46.65188" lon="6.01825">
        <ele>736.03</ele>
        <time>2015-05-14T08:36:03Z</time>
      </trkpt>
      <trkpt lat="46.65183" lon="6.01825">
        <ele>736.03</ele>
        <time>2015-05-14T08:36:23Z</time>
      </trkpt>
      <trkpt lat="46.65183" lon="6.01832">
        <ele>736.51</ele>
        <time>2015-05-14T08:36:38Z</time>
      </trkpt>
      <trkpt lat="46.65187" lon="6.01843">
        <ele>736.51</ele>
        <time>2015-05-14T08:36:47Z</time>
      </trkpt>
      <trkpt lat="46.65186" lon="6.01875">
        <ele>736.99</ele>
        <time>2015-05-14T08:37:07Z</time>
      </trkpt>
      <trkpt lat="46.65183" lon="6.01891">
        <ele>737.47</ele>
        <time>2015-05-14T08:37:17Z</time>
      </trkpt>
      <trkpt lat="46.65176" lon="6.01917">
        <ele>738.43</ele>
        <time>2015-05-14T08:37:34Z</time>
      </trkpt>
      <trkpt lat="46.65167" lon="6.01938">
        <ele>739.39</ele>
        <time>2015-05-14T08:37:50Z</time>
      </trkpt>
      <trkpt lat="46.65162" lon="6.01947">
        <ele>739.87</ele>
        <time>2015-05-14T08:37:57Z</time>
      </trkpt>
      <trkpt lat="46.65152" lon="6.01957">
        <ele>740.35</ele>
        <time>2015-05-14T08:38:08Z</time>
      </trkpt>
      <trkpt lat="46.65135" lon="6.01972">
        <ele>740.83</ele>
        <time>2015-05-14T08:38:25Z</time>
      </trkpt>
      <trkpt lat="46.6513" lon="6.01975">
        <ele>741.31</ele>
        <time>2015-05-14T08:38:30Z</time>
      </trkpt>
      <trkpt lat="46.6511" lon="6.01982">
        <ele>741.79</ele>
        <time>2015-05-14T08:38:46Z</time>
      </trkpt>
      <trkpt lat="46.65095" lon="6.01983">
        <ele>742.28</ele>
        <time>2015-05-14T08:38:59Z</time>
      </trkpt>
      <trkpt lat="46.65077" lon="6.0199">
        <ele>743.24</ele>
        <time>2015-05-14T08:39:13Z</time>
      </trkpt>
      <trkpt lat="46.6506" lon="6.02001">
        <ele>744.2</ele>
        <time>2015-05-14T08:39:27Z</time>
      </trkpt>
      <trkpt lat="46.65046" lon="6.02013">
        <ele>744.2</ele>
        <time>2015-05-14T08:39:43Z</time>
      </trkpt>
      <trkpt lat="46.65035" lon="6.02024">
        <ele>745.16</ele>
        <time>2015-05-14T08:39:55Z</time>
      </trkpt>
      <trkpt lat="46.65026" lon="6.02033">
        <ele>745.16</ele>
        <time>2015-05-14T08:40:03Z</time>
      </trkpt>
      <trkpt lat="46.65007" lon="6.02047">
        <ele>746.12</ele>
        <time>2015-05-14T08:40:20Z</time>
      </trkpt>
      <trkpt lat="46.64996" lon="6.02057">
        <ele>746.6</ele>
        <time>2015-05-14T08:40:34Z</time>
      </trkpt>
      <trkpt lat="46.64979" lon="6.0207">
        <ele>747.08</ele>
        <time>2015-05-14T08:40:50Z</time>
      </trkpt>
      <trkpt lat="46.64972" lon="6.02076">
        <ele>747.56</ele>
        <time>2015-05-14T08:40:55Z</time>
      </trkpt>
      <trkpt lat="46.64959" lon="6.02088">
        <ele>747.56</ele>
        <time>2015-05-14T08:41:05Z</time>
      </trkpt>
      <trkpt lat="46.64945" lon="6.02103">
        <ele>748.04</ele>
        <time>2015-05-14T08:41:19Z</time>
      </trkpt>
      <trkpt lat="46.64941" lon="6.0211">
        <ele>748.04</ele>
        <time>2015-05-14T08:41:25Z</time>
      </trkpt>
      <trkpt lat="46.64929" lon="6.02128">
        <ele>748.52</ele>
        <time>2015-05-14T08:41:42Z</time>
      </trkpt>
      <trkpt lat="46.6492" lon="6.02138">
        <ele>749</ele>
        <time>2015-05-14T08:41:50Z</time>
      </trkpt>
      <trkpt lat="46.64908" lon="6.02157">
        <ele>749.49</ele>
        <time>2015-05-14T08:42:04Z</time>
      </trkpt>
      <trkpt lat="46.64906" lon="6.02159">
        <ele>749.49</ele>
        <time>2015-05-14T08:42:06Z</time>
      </trkpt>
      <trkpt lat="46.64904" lon="6.02163">
        <ele>749.49</ele>
        <time>2015-05-14T08:42:09Z</time>
      </trkpt>
      <trkpt lat="46.649" lon="6.02172">
        <ele>749.49</ele>
        <time>2015-05-14T08:42:15Z</time>
      </trkpt>
      <trkpt lat="46.64893" lon="6.02181">
        <ele>749.97</ele>
        <time>2015-05-14T08:42:22Z</time>
      </trkpt>
      <trkpt lat="46.64889" lon="6.02188">
        <ele>749.97</ele>
        <time>2015-05-14T08:42:27Z</time>
      </trkpt>
      <trkpt lat="46.64886" lon="6.02199">
        <ele>750.45</ele>
        <time>2015-05-14T08:42:34Z</time>
      </trkpt>
      <trkpt lat="46.64876" lon="6.02223">
        <ele>750.93</ele>
        <time>2015-05-14T08:42:51Z</time>
      </trkpt>
      <trkpt lat="46.64875" lon="6.02227">
        <ele>750.93</ele>
        <time>2015-05-14T08:42:53Z</time>
      </trkpt>
      <trkpt lat="46.6487" lon="6.02248">
        <ele>751.41</ele>
        <time>2015-05-14T08:43:06Z</time>
      </trkpt>
      <trkpt lat="46.64868" lon="6.02268">
        <ele>751.89</ele>
        <time>2015-05-14T08:43:18Z</time>
      </trkpt>
      <trkpt lat="46.64859" lon="6.02288">
        <ele>752.37</ele>
        <time>2015-05-14T08:43:31Z</time>
      </trkpt>
      <trkpt lat="46.64854" lon="6.0231">
        <ele>752.85</ele>
        <time>2015-05-14T08:43:46Z</time>
      </trkpt>
      <trkpt lat="46.64844" lon="6.02331">
        <ele>753.33</ele>
        <time>2015-05-14T08:44:01Z</time>
      </trkpt>
      <trkpt lat="46.64836" lon="6.02349">
        <ele>753.81</ele>
        <time>2015-05-14T08:44:15Z</time>
      </trkpt>
      <trkpt lat="46.64834" lon="6.02359">
        <ele>753.33</ele>
        <time>2015-05-14T08:44:32Z</time>
      </trkpt>
      <trkpt lat="46.64832" lon="6.02368">
        <ele>752.85</ele>
        <time>2015-05-14T08:44:56Z</time>
      </trkpt>
      <trkpt lat="46.64838" lon="6.02364">
        <ele>752.37</ele>
        <time>2015-05-14T08:45:25Z</time>
      </trkpt>
      <trkpt lat="46.64836" lon="6.02361">
        <ele>751.89</ele>
        <time>2015-05-14T08:45:49Z</time>
      </trkpt>
      <trkpt lat="46.64835" lon="6.02362">
        <ele>751.41</ele>
        <time>2015-05-14T08:46:07Z</time>
      </trkpt>
      <trkpt lat="46.6483" lon="6.02363">
        <ele>751.41</ele>
        <time>2015-05-14T08:46:29Z</time>
      </trkpt>
      <trkpt lat="46.6482" lon="6.02373">
        <ele>751.41</ele>
        <time>2015-05-14T08:46:43Z</time>
      </trkpt>
      <trkpt lat="46.64811" lon="6.02384">
        <ele>751.41</ele>
        <time>2015-05-14T08:46:57Z</time>
      </trkpt>
      <trkpt lat="46.64805" lon="6.02389">
        <ele>751.89</ele>
        <time>2015-05-14T08:47:05Z</time>
      </trkpt>
      <trkpt lat="46.64791" lon="6.02394">
        <ele>751.89</ele>
        <time>2015-05-14T08:47:21Z</time>
      </trkpt>
      <trkpt lat="46.64774" lon="6.024">
        <ele>752.37</ele>
        <time>2015-05-14T08:47:37Z</time>
      </trkpt>
      <trkpt lat="46.64759" lon="6.024">
        <ele>752.85</ele>
        <time>2015-05-14T08:47:50Z</time>
      </trkpt>
      <trkpt lat="46.64757" lon="6.024">
        <ele>753.33</ele>
        <time>2015-05-14T08:47:52Z</time>
      </trkpt>
      <trkpt lat="46.64743" lon="6.02404">
        <ele>753.33</ele>
        <time>2015-05-14T08:48:05Z</time>
      </trkpt>
      <trkpt lat="46.6473" lon="6.02402">
        <ele>753.81</ele>
        <time>2015-05-14T08:48:20Z</time>
      </trkpt>
      <trkpt lat="46.64716" lon="6.024">
        <ele>754.29</ele>
        <time>2015-05-14T08:48:34Z</time>
      </trkpt>
      <trkpt lat="46.64695" lon="6.02408">
        <ele>754.77</ele>
        <time>2015-05-14T08:48:51Z</time>
      </trkpt>
      <trkpt lat="46.64676" lon="6.02411">
        <ele>755.25</ele>
        <time>2015-05-14T08:49:08Z</time>
      </trkpt>
      <trkpt lat="46.64657" lon="6.02417">
        <ele>755.73</ele>
        <time>2015-05-14T08:49:26Z</time>
      </trkpt>
      <trkpt lat="46.64647" lon="6.02418">
        <ele>756.69</ele>
        <time>2015-05-14T08:49:41Z</time>
      </trkpt>
      <trkpt lat="46.64639" lon="6.0242">
        <ele>756.21</ele>
        <time>2015-05-14T08:49:54Z</time>
      </trkpt>
      <trkpt lat="46.64642" lon="6.0242">
        <ele>754.77</ele>
        <time>2015-05-14T08:50:18Z</time>
      </trkpt>
      <trkpt lat="46.64638" lon="6.02419">
        <ele>754.77</ele>
        <time>2015-05-14T08:50:45Z</time>
      </trkpt>
      <trkpt lat="46.64638" lon="6.02419">
        <ele>756.21</ele>
        <time>2015-05-14T08:50:53Z</time>
      </trkpt>
      <trkpt lat="46.64638" lon="6.02413">
        <ele>756.21</ele>
        <time>2015-05-14T08:51:13Z</time>
      </trkpt>
      <trkpt lat="46.64641" lon="6.02406">
        <ele>756.69</ele>
        <time>2015-05-14T08:51:35Z</time>
      </trkpt>
      <trkpt lat="46.64639" lon="6.02402">
        <ele>757.66</ele>
        <time>2015-05-14T08:51:59Z</time>
      </trkpt>
      <trkpt lat="46.64634" lon="6.02399">
        <ele>757.18</ele>
        <time>2015-05-14T08:52:08Z</time>
      </trkpt>
      <trkpt lat="46.64623" lon="6.02401">
        <ele>757.18</ele>
        <time>2015-05-14T08:52:22Z</time>
      </trkpt>
      <trkpt lat="46.64605" lon="6.02392">
        <ele>758.14</ele>
        <time>2015-05-14T08:52:42Z</time>
      </trkpt>
      <trkpt lat="46.64477" lon="6.02604">
        <ele>764.87</ele>
        <time>2015-05-14T08:55:26Z</time>
      </trkpt>
      <trkpt lat="46.64472" lon="6.02603">
        <ele>764.87</ele>
        <time>2015-05-14T08:55:39Z</time>
      </trkpt>
      <trkpt lat="46.64472" lon="6.0261">
        <ele>764.87</ele>
        <time>2015-05-14T08:55:56Z</time>
      </trkpt>
      <trkpt lat="46.64473" lon="6.02611">
        <ele>764.87</ele>
        <time>2015-05-14T08:56:24Z</time>
      </trkpt>
      <trkpt lat="46.64471" lon="6.02606">
        <ele>765.35</ele>
        <time>2015-05-14T08:56:48Z</time>
      </trkpt>
      <trkpt lat="46.64472" lon="6.02611">
        <ele>765.83</ele>
        <time>2015-05-14T08:57:12Z</time>
      </trkpt>
      <trkpt lat="46.64469" lon="6.02616">
        <ele>765.83</ele>
        <time>2015-05-14T08:57:25Z</time>
      </trkpt>
      <trkpt lat="46.64466" lon="6.02618">
        <ele>765.83</ele>
        <time>2015-05-14T08:57:30Z</time>
      </trkpt>
      <trkpt lat="46.64464" lon="6.02619">
        <ele>766.79</ele>
        <time>2015-05-14T08:57:42Z</time>
      </trkpt>
      <trkpt lat="46.64469" lon="6.0262">
        <ele>766.79</ele>
        <time>2015-05-14T08:57:57Z</time>
      </trkpt>
      <trkpt lat="46.64462" lon="6.02635">
        <ele>766.79</ele>
        <time>2015-05-14T08:58:09Z</time>
      </trkpt>
      <trkpt lat="46.64455" lon="6.0264">
        <ele>767.27</ele>
        <time>2015-05-14T08:58:23Z</time>
      </trkpt>
      <trkpt lat="46.64451" lon="6.02642">
        <ele>767.75</ele>
        <time>2015-05-14T08:58:29Z</time>
      </trkpt>
      <trkpt lat="46.64449" lon="6.02644">
        <ele>767.75</ele>
        <time>2015-05-14T08:58:31Z</time>
      </trkpt>
      <trkpt lat="46.64446" lon="6.02647">
        <ele>767.75</ele>
        <time>2015-05-14T08:58:35Z</time>
      </trkpt>
      <trkpt lat="46.64441" lon="6.02649">
        <ele>767.75</ele>
        <time>2015-05-14T08:58:39Z</time>
      </trkpt>
      <trkpt lat="46.64438" lon="6.02647">
        <ele>767.75</ele>
        <time>2015-05-14T08:58:51Z</time>
      </trkpt>
      <trkpt lat="46.64437" lon="6.02649">
        <ele>768.23</ele>
        <time>2015-05-14T08:59:09Z</time>
      </trkpt>
      <trkpt lat="46.64431" lon="6.02656">
        <ele>768.23</ele>
        <time>2015-05-14T08:59:20Z</time>
      </trkpt>
      <trkpt lat="46.64419" lon="6.02661">
        <ele>768.71</ele>
        <time>2015-05-14T08:59:32Z</time>
      </trkpt>
      <trkpt lat="46.64416" lon="6.02663">
        <ele>768.71</ele>
        <time>2015-05-14T08:59:35Z</time>
      </trkpt>
      <trkpt lat="46.64398" lon="6.02669">
        <ele>769.19</ele>
        <time>2015-05-14T08:59:52Z</time>
      </trkpt>
      <trkpt lat="46.64382" lon="6.02673">
        <ele>769.67</ele>
        <time>2015-05-14T09:00:06Z</time>
      </trkpt>
      <trkpt lat="46.64369" lon="6.02676">
        <ele>770.15</ele>
        <time>2015-05-14T09:00:19Z</time>
      </trkpt>
      <trkpt lat="46.64356" lon="6.02679">
        <ele>770.63</ele>
        <time>2015-05-14T09:00:29Z</time>
      </trkpt>
      <trkpt lat="46.64337" lon="6.02689">
        <ele>771.11</ele>
        <time>2015-05-14T09:00:46Z</time>
      </trkpt>
      <trkpt lat="46.64321" lon="6.02691">
        <ele>771.6</ele>
        <time>2015-05-14T09:01:01Z</time>
      </trkpt>
      <trkpt lat="46.64309" lon="6.02698">
        <ele>772.08</ele>
        <time>2015-05-14T09:01:13Z</time>
      </trkpt>
      <trkpt lat="46.64292" lon="6.02707">
        <ele>772.56</ele>
        <time>2015-05-14T09:01:28Z</time>
      </trkpt>
      <trkpt lat="46.64279" lon="6.02712">
        <ele>773.04</ele>
        <time>2015-05-14T09:01:42Z</time>
      </trkpt>
      <trkpt lat="46.64262" lon="6.02711">
        <ele>773.52</ele>
        <time>2015-05-14T09:01:57Z</time>
      </trkpt>
      <trkpt lat="46.64244" lon="6.0272">
        <ele>774.48</ele>
        <time>2015-05-14T09:02:12Z</time>
      </trkpt>
      <trkpt lat="46.64235" lon="6.02727">
        <ele>774.96</ele>
        <time>2015-05-14T09:02:20Z</time>
      </trkpt>
      <trkpt lat="46.64218" lon="6.02734">
        <ele>775.44</ele>
        <time>2015-05-14T09:02:35Z</time>
      </trkpt>
      <trkpt lat="46.64211" lon="6.02736">
        <ele>775.44</ele>
        <time>2015-05-14T09:02:42Z</time>
      </trkpt>
      <trkpt lat="46.64202" lon="6.02738">
        <ele>775.44</ele>
        <time>2015-05-14T09:02:49Z</time>
      </trkpt>
      <trkpt lat="46.64188" lon="6.02745">
        <ele>776.4</ele>
        <time>2015-05-14T09:03:02Z</time>
      </trkpt>
      <trkpt lat="46.64171" lon="6.02751">
        <ele>776.4</ele>
        <time>2015-05-14T09:03:17Z</time>
      </trkpt>
      <trkpt lat="46.64157" lon="6.02754">
        <ele>776.88</ele>
        <time>2015-05-14T09:03:28Z</time>
      </trkpt>
      <trkpt lat="46.64138" lon="6.02757">
        <ele>777.36</ele>
        <time>2015-05-14T09:03:44Z</time>
      </trkpt>
      <trkpt lat="46.64133" lon="6.0276">
        <ele>777.84</ele>
        <time>2015-05-14T09:03:49Z</time>
      </trkpt>
      <trkpt lat="46.64113" lon="6.02766">
        <ele>778.32</ele>
        <time>2015-05-14T09:04:06Z</time>
      </trkpt>
      <trkpt lat="46.64094" lon="6.0278">
        <ele>779.29</ele>
        <time>2015-05-14T09:04:23Z</time>
      </trkpt>
      <trkpt lat="46.64089" lon="6.02786">
        <ele>779.29</ele>
        <time>2015-05-14T09:04:29Z</time>
      </trkpt>
      <trkpt lat="46.64085" lon="6.0279">
        <ele>779.77</ele>
        <time>2015-05-14T09:04:34Z</time>
      </trkpt>
      <trkpt lat="46.64076" lon="6.02798">
        <ele>779.77</ele>
        <time>2015-05-14T09:04:45Z</time>
      </trkpt>
      <trkpt lat="46.64068" lon="6.02816">
        <ele>779.77</ele>
        <time>2015-05-14T09:04:58Z</time>
      </trkpt>
      <trkpt lat="46.64062" lon="6.0283">
        <ele>779.77</ele>
        <time>2015-05-14T09:05:13Z</time>
      </trkpt>
      <trkpt lat="46.64059" lon="6.02843">
        <ele>780.25</ele>
        <time>2015-05-14T09:05:25Z</time>
      </trkpt>
      <trkpt lat="46.64055" lon="6.0286">
        <ele>780.73</ele>
        <time>2015-05-14T09:05:38Z</time>
      </trkpt>
      <trkpt lat="46.64053" lon="6.02864">
        <ele>780.73</ele>
        <time>2015-05-14T09:05:52Z</time>
      </trkpt>
      <trkpt lat="46.64052" lon="6.02865">
        <ele>780.73</ele>
        <time>2015-05-14T09:06:09Z</time>
      </trkpt>
      <trkpt lat="46.64052" lon="6.02869">
        <ele>780.73</ele>
        <time>2015-05-14T09:06:29Z</time>
      </trkpt>
      <trkpt lat="46.6405" lon="6.0287">
        <ele>780.73</ele>
        <time>2015-05-14T09:06:53Z</time>
      </trkpt>
      <trkpt lat="46.6405" lon="6.02871">
        <ele>780.73</ele>
        <time>2015-05-14T09:07:13Z</time>
      </trkpt>
      <trkpt lat="46.64053" lon="6.02868">
        <ele>780.73</ele>
        <time>2015-05-14T09:07:38Z</time>
      </trkpt>
      <trkpt lat="46.64051" lon="6.02866">
        <ele>780.73</ele>
        <time>2015-05-14T09:07:56Z</time>
      </trkpt>
      <trkpt lat="46.64053" lon="6.02868">
        <ele>780.73</ele>
        <time>2015-05-14T09:08:13Z</time>
      </trkpt>
      <trkpt lat="46.64051" lon="6.02888">
        <ele>780.73</ele>
        <time>2015-05-14T09:08:29Z</time>
      </trkpt>
      <trkpt lat="46.64051" lon="6.02891">
        <ele>780.73</ele>
        <time>2015-05-14T09:08:31Z</time>
      </trkpt>
      <trkpt lat="46.64047" lon="6.02914">
        <ele>781.21</ele>
        <time>2015-05-14T09:08:46Z</time>
      </trkpt>
      <trkpt lat="46.64043" lon="6.02933">
        <ele>781.21</ele>
        <time>2015-05-14T09:09:00Z</time>
      </trkpt>
      <trkpt lat="46.6403" lon="6.02958">
        <ele>781.69</ele>
        <time>2015-05-14T09:09:16Z</time>
      </trkpt>
      <trkpt lat="46.6402" lon="6.02978">
        <ele>782.17</ele>
        <time>2015-05-14T09:09:33Z</time>
      </trkpt>
      <trkpt lat="46.6402" lon="6.02987">
        <ele>782.17</ele>
        <time>2015-05-14T09:09:49Z</time>
      </trkpt>
      <trkpt lat="46.64017" lon="6.02988">
        <ele>782.17</ele>
        <time>2015-05-14T09:10:06Z</time>
      </trkpt>
      <trkpt lat="46.64018" lon="6.02988">
        <ele>782.17</ele>
        <time>2015-05-14T09:10:34Z</time>
      </trkpt>
      <trkpt lat="46.64017" lon="6.0299">
        <ele>782.65</ele>
        <time>2015-05-14T09:10:58Z</time>
      </trkpt>
      <trkpt lat="46.64021" lon="6.02991">
        <ele>782.65</ele>
        <time>2015-05-14T09:11:15Z</time>
      </trkpt>
      <trkpt lat="46.64032" lon="6.02992">
        <ele>782.65</ele>
        <time>2015-05-14T09:11:31Z</time>
      </trkpt>
      <trkpt lat="46.64043" lon="6.02993">
        <ele>783.13</ele>
        <time>2015-05-14T09:11:41Z</time>
      </trkpt>
      <trkpt lat="46.64066" lon="6.03001">
        <ele>783.61</ele>
        <time>2015-05-14T09:12:00Z</time>
      </trkpt>
      <trkpt lat="46.64089" lon="6.03017">
        <ele>783.61</ele>
        <time>2015-05-14T09:12:20Z</time>
      </trkpt>
      <trkpt lat="46.64112" lon="6.03044">
        <ele>784.09</ele>
        <time>2015-05-14T09:12:42Z</time>
      </trkpt>
      <trkpt lat="46.64135" lon="6.03071">
        <ele>785.05</ele>
        <time>2015-05-14T09:13:05Z</time>
      </trkpt>
      <trkpt lat="46.64152" lon="6.03099">
        <ele>785.53</ele>
        <time>2015-05-14T09:13:26Z</time>
      </trkpt>
      <trkpt lat="46.6416" lon="6.03128">
        <ele>786.02</ele>
        <time>2015-05-14T09:13:45Z</time>
      </trkpt>
      <trkpt lat="46.6416" lon="6.0316">
        <ele>786.02</ele>
        <time>2015-05-14T09:14:03Z</time>
      </trkpt>
      <trkpt lat="46.64153" lon="6.03187">
        <ele>786.5</ele>
        <time>2015-05-14T09:14:21Z</time>
      </trkpt>
      <trkpt lat="46.64137" lon="6.03201">
        <ele>786.98</ele>
        <time>2015-05-14T09:14:37Z</time>
      </trkpt>
      <trkpt lat="46.64135" lon="6.03202">
        <ele>786.98</ele>
        <time>2015-05-14T09:14:39Z</time>
      </trkpt>
      <trkpt lat="46.64117" lon="6.03212">
        <ele>786.98</ele>
        <time>2015-05-14T09:14:57Z</time>
      </trkpt>
      <trkpt lat="46.64103" lon="6.03216">
        <ele>785.53</ele>
        <time>2015-05-14T09:15:09Z</time>
      </trkpt>
      <trkpt lat="46.64097" lon="6.03214">
        <ele>784.57</ele>
        <time>2015-05-14T09:15:27Z</time>
      </trkpt>
      <trkpt lat="46.64091" lon="6.03205">
        <ele>784.57</ele>
        <time>2015-05-14T09:15:48Z</time>
      </trkpt>
      <trkpt lat="46.64083" lon="6.03193">
        <ele>783.13</ele>
        <time>2015-05-14T09:16:04Z</time>
      </trkpt>
      <trkpt lat="46.64077" lon="6.03184">
        <ele>782.65</ele>
        <time>2015-05-14T09:16:16Z</time>
      </trkpt>
      <trkpt lat="46.64072" lon="6.03174">
        <ele>781.21</ele>
        <time>2015-05-14T09:16:25Z</time>
      </trkpt>
      <trkpt lat="46.64058" lon="6.03154">
        <ele>777.84</ele>
        <time>2015-05-14T09:16:44Z</time>
      </trkpt>
      <trkpt lat="46.64053" lon="6.03149">
        <ele>776.88</ele>
        <time>2015-05-14T09:16:50Z</time>
      </trkpt>
      <trkpt lat="46.64041" lon="6.03149">
        <ele>775.44</ele>
        <time>2015-05-14T09:17:01Z</time>
      </trkpt>
      <trkpt lat="46.64032" lon="6.0316">
        <ele>774.48</ele>
        <time>2015-05-14T09:17:12Z</time>
      </trkpt>
      <trkpt lat="46.64031" lon="6.03178">
        <ele>773.52</ele>
        <time>2015-05-14T09:17:29Z</time>
      </trkpt>
      <trkpt lat="46.64031" lon="6.03195">
        <ele>773.04</ele>
        <time>2015-05-14T09:17:43Z</time>
      </trkpt>
      <trkpt lat="46.64028" lon="6.03199">
        <ele>773.04</ele>
        <time>2015-05-14T09:17:46Z</time>
      </trkpt>
      <trkpt lat="46.64023" lon="6.03203">
        <ele>773.04</ele>
        <time>2015-05-14T09:17:52Z</time>
      </trkpt>
      <trkpt lat="46.64008" lon="6.03201">
        <ele>775.44</ele>
        <time>2015-05-14T09:18:08Z</time>
      </trkpt>
      <trkpt lat="46.63994" lon="6.03195">
        <ele>776.88</ele>
        <time>2015-05-14T09:18:22Z</time>
      </trkpt>
      <trkpt lat="46.63973" lon="6.0318">
        <ele>778.81</ele>
        <time>2015-05-14T09:18:42Z</time>
      </trkpt>
      <trkpt lat="46.63955" lon="6.03168">
        <ele>779.29</ele>
        <time>2015-05-14T09:18:58Z</time>
      </trkpt>
      <trkpt lat="46.63939" lon="6.03163">
        <ele>778.32</ele>
        <time>2015-05-14T09:19:14Z</time>
      </trkpt>
      <trkpt lat="46.63922" lon="6.03161">
        <ele>777.36</ele>
        <time>2015-05-14T09:19:31Z</time>
      </trkpt>
      <trkpt lat="46.63906" lon="6.03158">
        <ele>775.44</ele>
        <time>2015-05-14T09:19:45Z</time>
      </trkpt>
      <trkpt lat="46.63887" lon="6.03156">
        <ele>774.48</ele>
        <time>2015-05-14T09:20:01Z</time>
      </trkpt>
      <trkpt lat="46.63866" lon="6.03164">
        <ele>773.52</ele>
        <time>2015-05-14T09:20:18Z</time>
      </trkpt>
      <trkpt lat="46.63851" lon="6.03183">
        <ele>773.04</ele>
        <time>2015-05-14T09:20:34Z</time>
      </trkpt>
      <trkpt lat="46.63849" lon="6.03211">
        <ele>772.56</ele>
        <time>2015-05-14T09:20:50Z</time>
      </trkpt>
      <trkpt lat="46.63847" lon="6.03216">
        <ele>772.56</ele>
        <time>2015-05-14T09:20:53Z</time>
      </trkpt>
      <trkpt lat="46.63833" lon="6.03241">
        <ele>772.56</ele>
        <time>2015-05-14T09:21:11Z</time>
      </trkpt>
      <trkpt lat="46.63831" lon="6.03243">
        <ele>774</ele>
        <time>2015-05-14T09:21:13Z</time>
      </trkpt>
      <trkpt lat="46.63817" lon="6.03256">
        <ele>775.44</ele>
        <time>2015-05-14T09:21:30Z</time>
      </trkpt>
      <trkpt lat="46.63811" lon="6.03262">
        <ele>775.92</ele>
        <time>2015-05-14T09:21:36Z</time>
      </trkpt>
      <trkpt lat="46.63801" lon="6.03278">
        <ele>776.4</ele>
        <time>2015-05-14T09:21:52Z</time>
      </trkpt>
      <trkpt lat="46.63798" lon="6.03316">
        <ele>776.4</ele>
        <time>2015-05-14T09:22:12Z</time>
      </trkpt>
      <trkpt lat="46.63797" lon="6.03344">
        <ele>776.4</ele>
        <time>2015-05-14T09:22:29Z</time>
      </trkpt>
      <trkpt lat="46.63801" lon="6.03375">
        <ele>776.88</ele>
        <time>2015-05-14T09:22:46Z</time>
      </trkpt>
      <trkpt lat="46.63809" lon="6.03408">
        <ele>779.29</ele>
        <time>2015-05-14T09:23:05Z</time>
      </trkpt>
      <trkpt lat="46.63816" lon="6.03428">
        <ele>779.77</ele>
        <time>2015-05-14T09:23:19Z</time>
      </trkpt>
      <trkpt lat="46.63818" lon="6.0344">
        <ele>780.25</ele>
        <time>2015-05-14T09:23:32Z</time>
      </trkpt>
      <trkpt lat="46.63823" lon="6.03456">
        <ele>781.21</ele>
        <time>2015-05-14T09:23:46Z</time>
      </trkpt>
      <trkpt lat="46.63826" lon="6.03485">
        <ele>781.69</ele>
        <time>2015-05-14T09:24:04Z</time>
      </trkpt>
      <trkpt lat="46.63831" lon="6.03507">
        <ele>782.65</ele>
        <time>2015-05-14T09:24:20Z</time>
      </trkpt>
      <trkpt lat="46.63831" lon="6.0351">
        <ele>782.65</ele>
        <time>2015-05-14T09:24:22Z</time>
      </trkpt>
      <trkpt lat="46.63835" lon="6.03536">
        <ele>783.61</ele>
        <time>2015-05-14T09:24:39Z</time>
      </trkpt>
      <trkpt lat="46.63838" lon="6.03546">
        <ele>784.09</ele>
        <time>2015-05-14T09:24:55Z</time>
      </trkpt>
      <trkpt lat="46.63841" lon="6.03549">
        <ele>784.09</ele>
        <time>2015-05-14T09:25:04Z</time>
      </trkpt>
      <trkpt lat="46.63856" lon="6.0356">
        <ele>786.02</ele>
        <time>2015-05-14T09:25:20Z</time>
      </trkpt>
      <trkpt lat="46.63869" lon="6.03559">
        <ele>787.94</ele>
        <time>2015-05-14T09:25:35Z</time>
      </trkpt>
      <trkpt lat="46.6388" lon="6.03557">
        <ele>791.78</ele>
        <time>2015-05-14T09:25:45Z</time>
      </trkpt>
      <trkpt lat="46.63902" lon="6.03558">
        <ele>789.86</ele>
        <time>2015-05-14T09:26:03Z</time>
      </trkpt>
      <trkpt lat="46.63907" lon="6.03558">
        <ele>791.3</ele>
        <time>2015-05-14T09:26:08Z</time>
      </trkpt>
      <trkpt lat="46.63922" lon="6.03558">
        <ele>792.26</ele>
        <time>2015-05-14T09:26:24Z</time>
      </trkpt>
      <trkpt lat="46.63936" lon="6.03557">
        <ele>793.71</ele>
        <time>2015-05-14T09:26:39Z</time>
      </trkpt>
      <trkpt lat="46.63956" lon="6.03561">
        <ele>795.15</ele>
        <time>2015-05-14T09:26:57Z</time>
      </trkpt>
      <trkpt lat="46.63959" lon="6.03564">
        <ele>795.63</ele>
        <time>2015-05-14T09:27:00Z</time>
      </trkpt>
      <trkpt lat="46.63964" lon="6.03568">
        <ele>796.11</ele>
        <time>2015-05-14T09:27:05Z</time>
      </trkpt>
      <trkpt lat="46.63969" lon="6.03575">
        <ele>797.07</ele>
        <time>2015-05-14T09:27:16Z</time>
      </trkpt>
      <trkpt lat="46.63972" lon="6.03578">
        <ele>797.07</ele>
        <time>2015-05-14T09:27:19Z</time>
      </trkpt>
      <trkpt lat="46.63981" lon="6.03597">
        <ele>799.47</ele>
        <time>2015-05-14T09:27:35Z</time>
      </trkpt>
      <trkpt lat="46.63989" lon="6.03609">
        <ele>801.88</ele>
        <time>2015-05-14T09:27:50Z</time>
      </trkpt>
      <trkpt lat="46.64" lon="6.03624">
        <ele>802.84</ele>
        <time>2015-05-14T09:28:05Z</time>
      </trkpt>
      <trkpt lat="46.64013" lon="6.0364">
        <ele>804.76</ele>
        <time>2015-05-14T09:28:22Z</time>
      </trkpt>
      <trkpt lat="46.64027" lon="6.03653">
        <ele>806.68</ele>
        <time>2015-05-14T09:28:37Z</time>
      </trkpt>
      <trkpt lat="46.64033" lon="6.03657">
        <ele>807.16</ele>
        <time>2015-05-14T09:28:43Z</time>
      </trkpt>
      <trkpt lat="46.64044" lon="6.03669">
        <ele>808.61</ele>
        <time>2015-05-14T09:28:58Z</time>
      </trkpt>
      <trkpt lat="46.64054" lon="6.03684">
        <ele>810.53</ele>
        <time>2015-05-14T09:29:12Z</time>
      </trkpt>
      <trkpt lat="46.64065" lon="6.03704">
        <ele>811.97</ele>
        <time>2015-05-14T09:29:30Z</time>
      </trkpt>
      <trkpt lat="46.64067" lon="6.0372">
        <ele>813.41</ele>
        <time>2015-05-14T09:29:45Z</time>
      </trkpt>
      <trkpt lat="46.64067" lon="6.03728">
        <ele>813.89</ele>
        <time>2015-05-14T09:29:50Z</time>
      </trkpt>
      <trkpt lat="46.64076" lon="6.03755">
        <ele>813.89</ele>
        <time>2015-05-14T09:30:06Z</time>
      </trkpt>
      <trkpt lat="46.64086" lon="6.03779">
        <ele>815.34</ele>
        <time>2015-05-14T09:30:23Z</time>
      </trkpt>
      <trkpt lat="46.64098" lon="6.03799">
        <ele>815.82</ele>
        <time>2015-05-14T09:30:38Z</time>
      </trkpt>
      <trkpt lat="46.64108" lon="6.03814">
        <ele>817.26</ele>
        <time>2015-05-14T09:30:54Z</time>
      </trkpt>
      <trkpt lat="46.64115" lon="6.03824">
        <ele>818.22</ele>
        <time>2015-05-14T09:31:10Z</time>
      </trkpt>
      <trkpt lat="46.64122" lon="6.03835">
        <ele>818.7</ele>
        <time>2015-05-14T09:31:24Z</time>
      </trkpt>
      <trkpt lat="46.64137" lon="6.03842">
        <ele>819.66</ele>
        <time>2015-05-14T09:31:38Z</time>
      </trkpt>
      <trkpt lat="46.64152" lon="6.03847">
        <ele>819.18</ele>
        <time>2015-05-14T09:31:46Z</time>
      </trkpt>
      <trkpt lat="46.64163" lon="6.03847">
        <ele>819.18</ele>
        <time>2015-05-14T09:31:59Z</time>
      </trkpt>
      <trkpt lat="46.64185" lon="6.03843">
        <ele>819.18</ele>
        <time>2015-05-14T09:32:14Z</time>
      </trkpt>
      <trkpt lat="46.642" lon="6.03834">
        <ele>819.18</ele>
        <time>2015-05-14T09:32:28Z</time>
      </trkpt>
      <trkpt lat="46.64213" lon="6.03826">
        <ele>819.66</ele>
        <time>2015-05-14T09:32:42Z</time>
      </trkpt>
      <trkpt lat="46.64223" lon="6.03824">
        <ele>819.66</ele>
        <time>2015-05-14T09:32:56Z</time>
      </trkpt>
      <trkpt lat="46.64221" lon="6.03822">
        <ele>819.66</ele>
        <time>2015-05-14T09:33:12Z</time>
      </trkpt>
      <trkpt lat="46.64219" lon="6.0382">
        <ele>819.18</ele>
        <time>2015-05-14T09:33:49Z</time>
      </trkpt>
      <trkpt lat="46.64216" lon="6.03818">
        <ele>819.18</ele>
        <time>2015-05-14T09:34:27Z</time>
      </trkpt>
      <trkpt lat="46.64216" lon="6.03815">
        <ele>819.18</ele>
        <time>2015-05-14T09:35:04Z</time>
      </trkpt>
      <trkpt lat="46.64214" lon="6.03814">
        <ele>819.18</ele>
        <time>2015-05-14T09:35:42Z</time>
      </trkpt>
      <trkpt lat="46.64214" lon="6.03816">
        <ele>819.66</ele>
        <time>2015-05-14T09:36:14Z</time>
      </trkpt>
      <trkpt lat="46.64211" lon="6.03819">
        <ele>819.66</ele>
        <time>2015-05-14T09:36:48Z</time>
      </trkpt>
      <trkpt lat="46.6421" lon="6.03821">
        <ele>820.14</ele>
        <time>2015-05-14T09:37:28Z</time>
      </trkpt>
      <trkpt lat="46.64215" lon="6.03818">
        <ele>820.62</ele>
        <time>2015-05-14T09:37:41Z</time>
      </trkpt>
      <trkpt lat="46.64215" lon="6.03815">
        <ele>821.1</ele>
        <time>2015-05-14T09:38:09Z</time>
      </trkpt>
      <trkpt lat="46.64214" lon="6.03812">
        <ele>822.55</ele>
        <time>2015-05-14T09:38:38Z</time>
      </trkpt>
      <trkpt lat="46.64215" lon="6.03811">
        <ele>822.55</ele>
        <time>2015-05-14T09:39:08Z</time>
      </trkpt>
      <trkpt lat="46.64215" lon="6.03809">
        <ele>822.06</ele>
        <time>2015-05-14T09:39:41Z</time>
      </trkpt>
      <trkpt lat="46.64214" lon="6.03807">
        <ele>823.03</ele>
        <time>2015-05-14T09:40:07Z</time>
      </trkpt>
      <trkpt lat="46.64217" lon="6.03812">
        <ele>823.51</ele>
        <time>2015-05-14T09:40:40Z</time>
      </trkpt>
      <trkpt lat="46.64216" lon="6.0381">
        <ele>823.51</ele>
        <time>2015-05-14T09:41:07Z</time>
      </trkpt>
      <trkpt lat="46.64214" lon="6.0381">
        <ele>823.99</ele>
        <time>2015-05-14T09:41:33Z</time>
      </trkpt>
      <trkpt lat="46.64218" lon="6.0381">
        <ele>823.51</ele>
        <time>2015-05-14T09:41:51Z</time>
      </trkpt>
      <trkpt lat="46.64227" lon="6.03813">
        <ele>824.47</ele>
        <time>2015-05-14T09:42:02Z</time>
      </trkpt>
      <trkpt lat="46.64239" lon="6.03824">
        <ele>825.43</ele>
        <time>2015-05-14T09:42:15Z</time>
      </trkpt>
      <trkpt lat="46.64249" lon="6.03844">
        <ele>825.91</ele>
        <time>2015-05-14T09:42:31Z</time>
      </trkpt>
      <trkpt lat="46.64259" lon="6.03865">
        <ele>826.39</ele>
        <time>2015-05-14T09:42:46Z</time>
      </trkpt>
      <trkpt lat="46.64269" lon="6.03882">
        <ele>827.35</ele>
        <time>2015-05-14T09:43:02Z</time>
      </trkpt>
      <trkpt lat="46.64275" lon="6.039">
        <ele>828.31</ele>
        <time>2015-05-14T09:43:18Z</time>
      </trkpt>
      <trkpt lat="46.6428" lon="6.0392">
        <ele>827.83</ele>
        <time>2015-05-14T09:43:33Z</time>
      </trkpt>
      <trkpt lat="46.64283" lon="6.03947">
        <ele>828.79</ele>
        <time>2015-05-14T09:43:48Z</time>
      </trkpt>
      <trkpt lat="46.6429" lon="6.03968">
        <ele>829.76</ele>
        <time>2015-05-14T09:44:02Z</time>
      </trkpt>
      <trkpt lat="46.64294" lon="6.03989">
        <ele>830.24</ele>
        <time>2015-05-14T09:44:17Z</time>
      </trkpt>
      <trkpt lat="46.64297" lon="6.0401">
        <ele>830.72</ele>
        <time>2015-05-14T09:44:31Z</time>
      </trkpt>
      <trkpt lat="46.64301" lon="6.04033">
        <ele>831.2</ele>
        <time>2015-05-14T09:44:45Z</time>
      </trkpt>
      <trkpt lat="46.64306" lon="6.04058">
        <ele>832.16</ele>
        <time>2015-05-14T09:45:00Z</time>
      </trkpt>
      <trkpt lat="46.64309" lon="6.04086">
        <ele>832.64</ele>
        <time>2015-05-14T09:45:17Z</time>
      </trkpt>
      <trkpt lat="46.64313" lon="6.04098">
        <ele>833.12</ele>
        <time>2015-05-14T09:45:24Z</time>
      </trkpt>
      <trkpt lat="46.6432" lon="6.0412">
        <ele>834.08</ele>
        <time>2015-05-14T09:45:37Z</time>
      </trkpt>
      <trkpt lat="46.64328" lon="6.04147">
        <ele>835.04</ele>
        <time>2015-05-14T09:45:54Z</time>
      </trkpt>
      <trkpt lat="46.64333" lon="6.04173">
        <ele>836</ele>
        <time>2015-05-14T09:46:09Z</time>
      </trkpt>
      <trkpt lat="46.64333" lon="6.04179">
        <ele>836</ele>
        <time>2015-05-14T09:46:13Z</time>
      </trkpt>
      <trkpt lat="46.64336" lon="6.04198">
        <ele>836.96</ele>
        <time>2015-05-14T09:46:25Z</time>
      </trkpt>
      <trkpt lat="46.64346" lon="6.0422">
        <ele>837.93</ele>
        <time>2015-05-14T09:46:40Z</time>
      </trkpt>
      <trkpt lat="46.64349" lon="6.04245">
        <ele>838.41</ele>
        <time>2015-05-14T09:46:55Z</time>
      </trkpt>
      <trkpt lat="46.64353" lon="6.04266">
        <ele>838.41</ele>
        <time>2015-05-14T09:47:10Z</time>
      </trkpt>
      <trkpt lat="46.64361" lon="6.04292">
        <ele>838.41</ele>
        <time>2015-05-14T09:47:25Z</time>
      </trkpt>
      <trkpt lat="46.64361" lon="6.04313">
        <ele>838.41</ele>
        <time>2015-05-14T09:47:38Z</time>
      </trkpt>
      <trkpt lat="46.64364" lon="6.0434">
        <ele>838.41</ele>
        <time>2015-05-14T09:47:52Z</time>
      </trkpt>
      <trkpt lat="46.64376" lon="6.04367">
        <ele>838.41</ele>
        <time>2015-05-14T09:48:07Z</time>
      </trkpt>
      <trkpt lat="46.64386" lon="6.04395">
        <ele>838.89</ele>
        <time>2015-05-14T09:48:23Z</time>
      </trkpt>
      <trkpt lat="46.64387" lon="6.0443">
        <ele>838.89</ele>
        <time>2015-05-14T09:48:42Z</time>
      </trkpt>
      <trkpt lat="46.64375" lon="6.04457">
        <ele>841.29</ele>
        <time>2015-05-14T09:49:00Z</time>
      </trkpt>
      <trkpt lat="46.64363" lon="6.04474">
        <ele>842.73</ele>
        <time>2015-05-14T09:49:17Z</time>
      </trkpt>
      <trkpt lat="46.64359" lon="6.04478">
        <ele>843.21</ele>
        <time>2015-05-14T09:49:31Z</time>
      </trkpt>
      <trkpt lat="46.64358" lon="6.04477">
        <ele>843.21</ele>
        <time>2015-05-14T09:49:57Z</time>
      </trkpt>
      <trkpt lat="46.64354" lon="6.04488">
        <ele>843.21</ele>
        <time>2015-05-14T09:50:09Z</time>
      </trkpt>
      <trkpt lat="46.64354" lon="6.04515">
        <ele>843.21</ele>
        <time>2015-05-14T09:50:28Z</time>
      </trkpt>
      <trkpt lat="46.64359" lon="6.04538">
        <ele>841.77</ele>
        <time>2015-05-14T09:50:44Z</time>
      </trkpt>
      <trkpt lat="46.64363" lon="6.04557">
        <ele>839.85</ele>
        <time>2015-05-14T09:50:58Z</time>
      </trkpt>
      <trkpt lat="46.64368" lon="6.04587">
        <ele>836.48</ele>
        <time>2015-05-14T09:51:18Z</time>
      </trkpt>
      <trkpt lat="46.6437" lon="6.04614">
        <ele>835.04</ele>
        <time>2015-05-14T09:51:35Z</time>
      </trkpt>
      <trkpt lat="46.64371" lon="6.04623">
        <ele>834.08</ele>
        <time>2015-05-14T09:51:40Z</time>
      </trkpt>
      <trkpt lat="46.64378" lon="6.0465">
        <ele>832.16</ele>
        <time>2015-05-14T09:51:58Z</time>
      </trkpt>
      <trkpt lat="46.64383" lon="6.04677">
        <ele>831.68</ele>
        <time>2015-05-14T09:52:14Z</time>
      </trkpt>
      <trkpt lat="46.64387" lon="6.04702">
        <ele>831.68</ele>
        <time>2015-05-14T09:52:28Z</time>
      </trkpt>
      <trkpt lat="46.64387" lon="6.04708">
        <ele>833.12</ele>
        <time>2015-05-14T09:52:31Z</time>
      </trkpt>
      <trkpt lat="46.6439" lon="6.04724">
        <ele>833.12</ele>
        <time>2015-05-14T09:52:40Z</time>
      </trkpt>
      <trkpt lat="46.64395" lon="6.04755">
        <ele>834.08</ele>
        <time>2015-05-14T09:52:59Z</time>
      </trkpt>
      <trkpt lat="46.64392" lon="6.0476">
        <ele>834.08</ele>
        <time>2015-05-14T09:53:15Z</time>
      </trkpt>
      <trkpt lat="46.64395" lon="6.04782">
        <ele>834.56</ele>
        <time>2015-05-14T09:53:30Z</time>
      </trkpt>
      <trkpt lat="46.64395" lon="6.04791">
        <ele>834.56</ele>
        <time>2015-05-14T09:53:35Z</time>
      </trkpt>
      <trkpt lat="46.64393" lon="6.04822">
        <ele>833.12</ele>
        <time>2015-05-14T09:53:51Z</time>
      </trkpt>
      <trkpt lat="46.6439" lon="6.04862">
        <ele>833.12</ele>
        <time>2015-05-14T09:54:10Z</time>
      </trkpt>
      <trkpt lat="46.64389" lon="6.04901">
        <ele>832.64</ele>
        <time>2015-05-14T09:54:29Z</time>
      </trkpt>
      <trkpt lat="46.64394" lon="6.04935">
        <ele>832.64</ele>
        <time>2015-05-14T09:54:48Z</time>
      </trkpt>
      <trkpt lat="46.64409" lon="6.04957">
        <ele>832.64</ele>
        <time>2015-05-14T09:55:06Z</time>
      </trkpt>
      <trkpt lat="46.64423" lon="6.04968">
        <ele>834.08</ele>
        <time>2015-05-14T09:55:22Z</time>
      </trkpt>
      <trkpt lat="46.64441" lon="6.04971">
        <ele>835.52</ele>
        <time>2015-05-14T09:55:39Z</time>
      </trkpt>
      <trkpt lat="46.64463" lon="6.0496">
        <ele>835.04</ele>
        <time>2015-05-14T09:55:57Z</time>
      </trkpt>
      <trkpt lat="46.64465" lon="6.04959">
        <ele>833.6</ele>
        <time>2015-05-14T09:55:59Z</time>
      </trkpt>
      <trkpt lat="46.64484" lon="6.04939">
        <ele>832.64</ele>
        <time>2015-05-14T09:56:18Z</time>
      </trkpt>
      <trkpt lat="46.64502" lon="6.04948">
        <ele>830.24</ele>
        <time>2015-05-14T09:56:33Z</time>
      </trkpt>
      <trkpt lat="46.64513" lon="6.0497">
        <ele>828.31</ele>
        <time>2015-05-14T09:56:50Z</time>
      </trkpt>
      <trkpt lat="46.6453" lon="6.04993">
        <ele>827.83</ele>
        <time>2015-05-14T09:57:10Z</time>
      </trkpt>
      <trkpt lat="46.64532" lon="6.04994">
        <ele>827.83</ele>
        <time>2015-05-14T09:57:11Z</time>
      </trkpt>
      <trkpt lat="46.64546" lon="6.0501">
        <ele>827.83</ele>
        <time>2015-05-14T09:57:22Z</time>
      </trkpt>
      <trkpt lat="46.64567" lon="6.05037">
        <ele>827.83</ele>
        <time>2015-05-14T09:57:40Z</time>
      </trkpt>
      <trkpt lat="46.64574" lon="6.05051">
        <ele>827.83</ele>
        <time>2015-05-14T09:57:49Z</time>
      </trkpt>
      <trkpt lat="46.64588" lon="6.0507">
        <ele>827.35</ele>
        <time>2015-05-14T09:58:07Z</time>
      </trkpt>
      <trkpt lat="46.64597" lon="6.0509">
        <ele>827.35</ele>
        <time>2015-05-14T09:58:22Z</time>
      </trkpt>
      <trkpt lat="46.64598" lon="6.05096">
        <ele>828.31</ele>
        <time>2015-05-14T09:58:26Z</time>
      </trkpt>
      <trkpt lat="46.64604" lon="6.05122">
        <ele>830.24</ele>
        <time>2015-05-14T09:58:39Z</time>
      </trkpt>
      <trkpt lat="46.64627" lon="6.05121">
        <ele>830.72</ele>
        <time>2015-05-14T09:58:58Z</time>
      </trkpt>
      <trkpt lat="46.64642" lon="6.05125">
        <ele>833.6</ele>
        <time>2015-05-14T09:59:12Z</time>
      </trkpt>
      <trkpt lat="46.64652" lon="6.05141">
        <ele>835.52</ele>
        <time>2015-05-14T09:59:27Z</time>
      </trkpt>
      <trkpt lat="46.64662" lon="6.05158">
        <ele>837.45</ele>
        <time>2015-05-14T09:59:44Z</time>
      </trkpt>
      <trkpt lat="46.64665" lon="6.05161">
        <ele>837.45</ele>
        <time>2015-05-14T09:59:48Z</time>
      </trkpt>
      <trkpt lat="46.64679" lon="6.05168">
        <ele>839.37</ele>
        <time>2015-05-14T10:00:06Z</time>
      </trkpt>
      <trkpt lat="46.64691" lon="6.05177">
        <ele>842.25</ele>
        <time>2015-05-14T10:00:20Z</time>
      </trkpt>
      <trkpt lat="46.64692" lon="6.05178">
        <ele>842.73</ele>
        <time>2015-05-14T10:00:22Z</time>
      </trkpt>
      <trkpt lat="46.64706" lon="6.05184">
        <ele>844.66</ele>
        <time>2015-05-14T10:00:37Z</time>
      </trkpt>
      <trkpt lat="46.64717" lon="6.05189">
        <ele>846.1</ele>
        <time>2015-05-14T10:00:51Z</time>
      </trkpt>
      <trkpt lat="46.64729" lon="6.05192">
        <ele>848.02</ele>
        <time>2015-05-14T10:01:07Z</time>
      </trkpt>
      <trkpt lat="46.64742" lon="6.05194">
        <ele>848.98</ele>
        <time>2015-05-14T10:01:21Z</time>
      </trkpt>
      <trkpt lat="46.64755" lon="6.05197">
        <ele>851.38</ele>
        <time>2015-05-14T10:01:39Z</time>
      </trkpt>
      <trkpt lat="46.64765" lon="6.05202">
        <ele>852.83</ele>
        <time>2015-05-14T10:01:59Z</time>
      </trkpt>
      <trkpt lat="46.64774" lon="6.05208">
        <ele>854.75</ele>
        <time>2015-05-14T10:02:13Z</time>
      </trkpt>
      <trkpt lat="46.64785" lon="6.05219">
        <ele>856.67</ele>
        <time>2015-05-14T10:02:29Z</time>
      </trkpt>
      <trkpt lat="46.64796" lon="6.05237">
        <ele>858.11</ele>
        <time>2015-05-14T10:02:42Z</time>
      </trkpt>
      <trkpt lat="46.64806" lon="6.05259">
        <ele>860.52</ele>
        <time>2015-05-14T10:02:58Z</time>
      </trkpt>
      <trkpt lat="46.64815" lon="6.05277">
        <ele>862.44</ele>
        <time>2015-05-14T10:03:12Z</time>
      </trkpt>
      <trkpt lat="46.64825" lon="6.05298">
        <ele>864.84</ele>
        <time>2015-05-14T10:03:29Z</time>
      </trkpt>
      <trkpt lat="46.64827" lon="6.05302">
        <ele>865.8</ele>
        <time>2015-05-14T10:03:33Z</time>
      </trkpt>
      <trkpt lat="46.64838" lon="6.05321">
        <ele>868.21</ele>
        <time>2015-05-14T10:03:51Z</time>
      </trkpt>
      <trkpt lat="46.64852" lon="6.05339">
        <ele>870.13</ele>
        <time>2015-05-14T10:04:09Z</time>
      </trkpt>
      <trkpt lat="46.64864" lon="6.05353">
        <ele>870.13</ele>
        <time>2015-05-14T10:04:26Z</time>
      </trkpt>
      <trkpt lat="46.64876" lon="6.05369">
        <ele>872.05</ele>
        <time>2015-05-14T10:04:42Z</time>
      </trkpt>
      <trkpt lat="46.64889" lon="6.05387">
        <ele>873.01</ele>
        <time>2015-05-14T10:05:01Z</time>
      </trkpt>
      <trkpt lat="46.649" lon="6.05404">
        <ele>873.01</ele>
        <time>2015-05-14T10:05:17Z</time>
      </trkpt>
      <trkpt lat="46.64909" lon="6.05422">
        <ele>873.01</ele>
        <time>2015-05-14T10:05:31Z</time>
      </trkpt>
      <trkpt lat="46.64916" lon="6.05427">
        <ele>873.01</ele>
        <time>2015-05-14T10:05:45Z</time>
      </trkpt>
      <trkpt lat="46.64917" lon="6.05431">
        <ele>873.01</ele>
        <time>2015-05-14T10:05:57Z</time>
      </trkpt>
      <trkpt lat="46.64918" lon="6.05431">
        <ele>872.05</ele>
        <time>2015-05-14T10:06:16Z</time>
      </trkpt>
      <trkpt lat="46.64918" lon="6.05431">
        <ele>872.05</ele>
        <time>2015-05-14T10:06:31Z</time>
      </trkpt>
      <trkpt lat="46.6492" lon="6.05431">
        <ele>873.01</ele>
        <time>2015-05-14T10:06:37Z</time>
      </trkpt>
      <trkpt lat="46.64919" lon="6.05431">
        <ele>873.01</ele>
        <time>2015-05-14T10:06:53Z</time>
      </trkpt>
      <trkpt lat="46.6492" lon="6.05432">
        <ele>873.5</ele>
        <time>2015-05-14T10:07:11Z</time>
      </trkpt>
      <trkpt lat="46.6492" lon="6.05432">
        <ele>873.98</ele>
        <time>2015-05-14T10:07:29Z</time>
      </trkpt>
      <trkpt lat="46.64922" lon="6.05433">
        <ele>873.98</ele>
        <time>2015-05-14T10:07:46Z</time>
      </trkpt>
      <trkpt lat="46.64923" lon="6.05435">
        <ele>874.46</ele>
        <time>2015-05-14T10:08:02Z</time>
      </trkpt>
      <trkpt lat="46.64921" lon="6.05433">
        <ele>874.94</ele>
        <time>2015-05-14T10:08:25Z</time>
      </trkpt>
      <trkpt lat="46.6492" lon="6.05433">
        <ele>874.94</ele>
        <time>2015-05-14T10:08:53Z</time>
      </trkpt>
      <trkpt lat="46.64922" lon="6.05432">
        <ele>874.94</ele>
        <time>2015-05-14T10:09:17Z</time>
      </trkpt>
      <trkpt lat="46.6492" lon="6.05432">
        <ele>874.94</ele>
        <time>2015-05-14T10:09:40Z</time>
      </trkpt>
      <trkpt lat="46.64919" lon="6.05431">
        <ele>875.42</ele>
        <time>2015-05-14T10:09:57Z</time>
      </trkpt>
      <trkpt lat="46.64922" lon="6.05432">
        <ele>875.42</ele>
        <time>2015-05-14T10:10:13Z</time>
      </trkpt>
      <trkpt lat="46.64922" lon="6.05433">
        <ele>875.42</ele>
        <time>2015-05-14T10:10:16Z</time>
      </trkpt>
      <trkpt lat="46.64925" lon="6.05443">
        <ele>875.42</ele>
        <time>2015-05-14T10:10:22Z</time>
      </trkpt>
      <trkpt lat="46.64937" lon="6.05463">
        <ele>875.9</ele>
        <time>2015-05-14T10:10:38Z</time>
      </trkpt>
      <trkpt lat="46.64943" lon="6.05472">
        <ele>876.86</ele>
        <time>2015-05-14T10:10:51Z</time>
      </trkpt>
      <trkpt lat="46.64951" lon="6.0549">
        <ele>878.78</ele>
        <time>2015-05-14T10:11:07Z</time>
      </trkpt>
      <trkpt lat="46.6496" lon="6.05504">
        <ele>880.71</ele>
        <time>2015-05-14T10:11:24Z</time>
      </trkpt>
      <trkpt lat="46.64971" lon="6.05518">
        <ele>882.63</ele>
        <time>2015-05-14T10:11:39Z</time>
      </trkpt>
      <trkpt lat="46.64981" lon="6.05539">
        <ele>885.51</ele>
        <time>2015-05-14T10:11:56Z</time>
      </trkpt>
      <trkpt lat="46.64994" lon="6.05566">
        <ele>886.95</ele>
        <time>2015-05-14T10:12:15Z</time>
      </trkpt>
      <trkpt lat="46.65" lon="6.05578">
        <ele>887.43</ele>
        <time>2015-05-14T10:12:24Z</time>
      </trkpt>
      <trkpt lat="46.65002" lon="6.05586">
        <ele>887.91</ele>
        <time>2015-05-14T10:12:29Z</time>
      </trkpt>
      <trkpt lat="46.65014" lon="6.05617">
        <ele>888.88</ele>
        <time>2015-05-14T10:12:50Z</time>
      </trkpt>
      <trkpt lat="46.65023" lon="6.05651">
        <ele>887.91</ele>
        <time>2015-05-14T10:13:10Z</time>
      </trkpt>
      <trkpt lat="46.65032" lon="6.05683">
        <ele>886.95</ele>
        <time>2015-05-14T10:13:30Z</time>
      </trkpt>
      <trkpt lat="46.65046" lon="6.05718">
        <ele>883.59</ele>
        <time>2015-05-14T10:13:50Z</time>
      </trkpt>
      <trkpt lat="46.65055" lon="6.05753">
        <ele>881.19</ele>
        <time>2015-05-14T10:14:09Z</time>
      </trkpt>
      <trkpt lat="46.65066" lon="6.05784">
        <ele>880.71</ele>
        <time>2015-05-14T10:14:27Z</time>
      </trkpt>
      <trkpt lat="46.6508" lon="6.0582">
        <ele>880.22</ele>
        <time>2015-05-14T10:14:47Z</time>
      </trkpt>
      <trkpt lat="46.65094" lon="6.05857">
        <ele>879.74</ele>
        <time>2015-05-14T10:15:08Z</time>
      </trkpt>
      <trkpt lat="46.65107" lon="6.05891">
        <ele>879.74</ele>
        <time>2015-05-14T10:15:29Z</time>
      </trkpt>
      <trkpt lat="46.65114" lon="6.05907">
        <ele>879.26</ele>
        <time>2015-05-14T10:15:45Z</time>
      </trkpt>
      <trkpt lat="46.65119" lon="6.05911">
        <ele>879.26</ele>
        <time>2015-05-14T10:16:00Z</time>
      </trkpt>
      <trkpt lat="46.6512" lon="6.0591">
        <ele>879.26</ele>
        <time>2015-05-14T10:16:17Z</time>
      </trkpt>
      <trkpt lat="46.65123" lon="6.05909">
        <ele>879.26</ele>
        <time>2015-05-14T10:16:33Z</time>
      </trkpt>
      <trkpt lat="46.65121" lon="6.05909">
        <ele>878.78</ele>
        <time>2015-05-14T10:16:58Z</time>
      </trkpt>
      <trkpt lat="46.6512" lon="6.0591">
        <ele>879.26</ele>
        <time>2015-05-14T10:17:17Z</time>
      </trkpt>
      <trkpt lat="46.65122" lon="6.05914">
        <ele>879.26</ele>
        <time>2015-05-14T10:17:40Z</time>
      </trkpt>
      <trkpt lat="46.65123" lon="6.05916">
        <ele>878.78</ele>
        <time>2015-05-14T10:17:58Z</time>
      </trkpt>
      <trkpt lat="46.65123" lon="6.05916">
        <ele>880.22</ele>
        <time>2015-05-14T10:18:01Z</time>
      </trkpt>
      <trkpt lat="46.65123" lon="6.05918">
        <ele>880.22</ele>
        <time>2015-05-14T10:18:29Z</time>
      </trkpt>
      <trkpt lat="46.65127" lon="6.05927">
        <ele>880.22</ele>
        <time>2015-05-14T10:18:46Z</time>
      </trkpt>
      <trkpt lat="46.65136" lon="6.05935">
        <ele>880.71</ele>
        <time>2015-05-14T10:19:02Z</time>
      </trkpt>
      <trkpt lat="46.65141" lon="6.05937">
        <ele>880.71</ele>
        <time>2015-05-14T10:19:15Z</time>
      </trkpt>
      <trkpt lat="46.65146" lon="6.05942">
        <ele>879.74</ele>
        <time>2015-05-14T10:19:21Z</time>
      </trkpt>
      <trkpt lat="46.65151" lon="6.05951">
        <ele>878.3</ele>
        <time>2015-05-14T10:19:35Z</time>
      </trkpt>
      <trkpt lat="46.65157" lon="6.05958">
        <ele>877.82</ele>
        <time>2015-05-14T10:19:58Z</time>
      </trkpt>
      <trkpt lat="46.65174" lon="6.05971">
        <ele>874.94</ele>
        <time>2015-05-14T10:20:15Z</time>
      </trkpt>
      <trkpt lat="46.65183" lon="6.05966">
        <ele>874.94</ele>
        <time>2015-05-14T10:20:29Z</time>
      </trkpt>
      <trkpt lat="46.65188" lon="6.05965">
        <ele>874.94</ele>
        <time>2015-05-14T10:20:43Z</time>
      </trkpt>
      <trkpt lat="46.65194" lon="6.05964">
        <ele>874.46</ele>
        <time>2015-05-14T10:21:09Z</time>
      </trkpt>
      <trkpt lat="46.65202" lon="6.05951">
        <ele>874.94</ele>
        <time>2015-05-14T10:21:25Z</time>
      </trkpt>
      <trkpt lat="46.65216" lon="6.05931">
        <ele>875.9</ele>
        <time>2015-05-14T10:21:43Z</time>
      </trkpt>
      <trkpt lat="46.65229" lon="6.05922">
        <ele>873.01</ele>
        <time>2015-05-14T10:21:59Z</time>
      </trkpt>
      <trkpt lat="46.65242" lon="6.0591">
        <ele>870.61</ele>
        <time>2015-05-14T10:22:16Z</time>
      </trkpt>
      <trkpt lat="46.65254" lon="6.05892">
        <ele>867.73</ele>
        <time>2015-05-14T10:22:35Z</time>
      </trkpt>
      <trkpt lat="46.65265" lon="6.0588">
        <ele>866.29</ele>
        <time>2015-05-14T10:22:46Z</time>
      </trkpt>
      <trkpt lat="46.65281" lon="6.05865">
        <ele>863.88</ele>
        <time>2015-05-14T10:23:03Z</time>
      </trkpt>
      <trkpt lat="46.6529" lon="6.05856">
        <ele>862.92</ele>
        <time>2015-05-14T10:23:12Z</time>
      </trkpt>
      <trkpt lat="46.65294" lon="6.05852">
        <ele>862.44</ele>
        <time>2015-05-14T10:23:16Z</time>
      </trkpt>
      <trkpt lat="46.65312" lon="6.05834">
        <ele>861.96</ele>
        <time>2015-05-14T10:23:32Z</time>
      </trkpt>
      <trkpt lat="46.65332" lon="6.0581">
        <ele>861.48</ele>
        <time>2015-05-14T10:23:51Z</time>
      </trkpt>
      <trkpt lat="46.65349" lon="6.058">
        <ele>861.48</ele>
        <time>2015-05-14T10:24:09Z</time>
      </trkpt>
      <trkpt lat="46.65354" lon="6.05801">
        <ele>861.96</ele>
        <time>2015-05-14T10:24:24Z</time>
      </trkpt>
      <trkpt lat="46.65372" lon="6.05814">
        <ele>863.4</ele>
        <time>2015-05-14T10:24:41Z</time>
      </trkpt>
      <trkpt lat="46.65384" lon="6.05837">
        <ele>864.84</ele>
        <time>2015-05-14T10:24:59Z</time>
      </trkpt>
      <trkpt lat="46.65398" lon="6.05867">
        <ele>866.29</ele>
        <time>2015-05-14T10:25:19Z</time>
      </trkpt>
      <trkpt lat="46.65399" lon="6.0587">
        <ele>866.29</ele>
        <time>2015-05-14T10:25:21Z</time>
      </trkpt>
      <trkpt lat="46.65419" lon="6.05894">
        <ele>866.77</ele>
        <time>2015-05-14T10:25:42Z</time>
      </trkpt>
      <trkpt lat="46.6544" lon="6.05917">
        <ele>869.65</ele>
        <time>2015-05-14T10:26:04Z</time>
      </trkpt>
      <trkpt lat="46.65463" lon="6.05924">
        <ele>871.57</ele>
        <time>2015-05-14T10:26:23Z</time>
      </trkpt>
      <trkpt lat="46.65477" lon="6.05919">
        <ele>870.13</ele>
        <time>2015-05-14T10:26:35Z</time>
      </trkpt>
      <trkpt lat="46.65482" lon="6.05922">
        <ele>870.13</ele>
        <time>2015-05-14T10:26:40Z</time>
      </trkpt>
      <trkpt lat="46.65493" lon="6.05948">
        <ele>868.21</ele>
        <time>2015-05-14T10:26:59Z</time>
      </trkpt>
      <trkpt lat="46.65506" lon="6.05978">
        <ele>867.25</ele>
        <time>2015-05-14T10:27:19Z</time>
      </trkpt>
      <trkpt lat="46.65524" lon="6.06027">
        <ele>865.32</ele>
        <time>2015-05-14T10:27:50Z</time>
      </trkpt>
      <trkpt lat="46.65533" lon="6.06059">
        <ele>863.88</ele>
        <time>2015-05-14T10:28:09Z</time>
      </trkpt>
      <trkpt lat="46.6554" lon="6.06091">
        <ele>862.44</ele>
        <time>2015-05-14T10:28:30Z</time>
      </trkpt>
      <trkpt lat="46.65547" lon="6.06128">
        <ele>862.44</ele>
        <time>2015-05-14T10:28:48Z</time>
      </trkpt>
      <trkpt lat="46.65538" lon="6.06156">
        <ele>861.96</ele>
        <time>2015-05-14T10:29:06Z</time>
      </trkpt>
      <trkpt lat="46.6553" lon="6.06185">
        <ele>861.96</ele>
        <time>2015-05-14T10:29:25Z</time>
      </trkpt>
      <trkpt lat="46.65529" lon="6.06224">
        <ele>861</ele>
        <time>2015-05-14T10:29:46Z</time>
      </trkpt>
      <trkpt lat="46.65533" lon="6.06257">
        <ele>860.52</ele>
        <time>2015-05-14T10:30:05Z</time>
      </trkpt>
      <trkpt lat="46.65535" lon="6.0629">
        <ele>859.56</ele>
        <time>2015-05-14T10:30:24Z</time>
      </trkpt>
      <trkpt lat="46.65531" lon="6.06325">
        <ele>859.08</ele>
        <time>2015-05-14T10:30:45Z</time>
      </trkpt>
      <trkpt lat="46.6553" lon="6.06358">
        <ele>858.59</ele>
        <time>2015-05-14T10:31:04Z</time>
      </trkpt>
      <trkpt lat="46.65526" lon="6.06391">
        <ele>858.11</ele>
        <time>2015-05-14T10:31:26Z</time>
      </trkpt>
      <trkpt lat="46.65521" lon="6.0642">
        <ele>856.67</ele>
        <time>2015-05-14T10:31:44Z</time>
      </trkpt>
      <trkpt lat="46.65521" lon="6.06425">
        <ele>856.19</ele>
        <time>2015-05-14T10:31:47Z</time>
      </trkpt>
      <trkpt lat="46.65539" lon="6.06449">
        <ele>856.67</ele>
        <time>2015-05-14T10:32:08Z</time>
      </trkpt>
      <trkpt lat="46.65559" lon="6.06469">
        <ele>856.67</ele>
        <time>2015-05-14T10:32:28Z</time>
      </trkpt>
      <trkpt lat="46.6558" lon="6.06501">
        <ele>856.19</ele>
        <time>2015-05-14T10:32:52Z</time>
      </trkpt>
      <trkpt lat="46.65598" lon="6.06537">
        <ele>856.19</ele>
        <time>2015-05-14T10:33:16Z</time>
      </trkpt>
      <trkpt lat="46.65612" lon="6.06572">
        <ele>856.19</ele>
        <time>2015-05-14T10:33:38Z</time>
      </trkpt>
      <trkpt lat="46.65626" lon="6.06603">
        <ele>857.63</ele>
        <time>2015-05-14T10:33:59Z</time>
      </trkpt>
      <trkpt lat="46.65644" lon="6.06644">
        <ele>856.67</ele>
        <time>2015-05-14T10:34:23Z</time>
      </trkpt>
      <trkpt lat="46.65651" lon="6.06654">
        <ele>857.15</ele>
        <time>2015-05-14T10:34:40Z</time>
      </trkpt>
      <trkpt lat="46.65656" lon="6.06647">
        <ele>857.15</ele>
        <time>2015-05-14T10:34:56Z</time>
      </trkpt>
      <trkpt lat="46.65659" lon="6.06646">
        <ele>857.15</ele>
        <time>2015-05-14T10:34:59Z</time>
      </trkpt>
      <trkpt lat="46.65679" lon="6.06649">
        <ele>858.59</ele>
        <time>2015-05-14T10:35:17Z</time>
      </trkpt>
      <trkpt lat="46.65698" lon="6.0667">
        <ele>860.04</ele>
        <time>2015-05-14T10:35:36Z</time>
      </trkpt>
      <trkpt lat="46.65711" lon="6.06695">
        <ele>861.48</ele>
        <time>2015-05-14T10:35:55Z</time>
      </trkpt>
      <trkpt lat="46.65727" lon="6.06724">
        <ele>863.4</ele>
        <time>2015-05-14T10:36:16Z</time>
      </trkpt>
      <trkpt lat="46.6574" lon="6.0675">
        <ele>865.32</ele>
        <time>2015-05-14T10:36:35Z</time>
      </trkpt>
      <trkpt lat="46.65752" lon="6.06779">
        <ele>867.25</ele>
        <time>2015-05-14T10:36:54Z</time>
      </trkpt>
      <trkpt lat="46.65769" lon="6.0681">
        <ele>868.69</ele>
        <time>2015-05-14T10:37:15Z</time>
      </trkpt>
      <trkpt lat="46.65783" lon="6.06836">
        <ele>870.13</ele>
        <time>2015-05-14T10:37:34Z</time>
      </trkpt>
      <trkpt lat="46.65803" lon="6.06866">
        <ele>871.09</ele>
        <time>2015-05-14T10:37:57Z</time>
      </trkpt>
      <trkpt lat="46.65819" lon="6.06882">
        <ele>873.01</ele>
        <time>2015-05-14T10:38:15Z</time>
      </trkpt>
      <trkpt lat="46.65838" lon="6.06894">
        <ele>874.46</ele>
        <time>2015-05-14T10:38:33Z</time>
      </trkpt>
      <trkpt lat="46.6586" lon="6.06904">
        <ele>876.86</ele>
        <time>2015-05-14T10:38:52Z</time>
      </trkpt>
      <trkpt lat="46.65864" lon="6.06909">
        <ele>876.86</ele>
        <time>2015-05-14T10:38:57Z</time>
      </trkpt>
      <trkpt lat="46.65869" lon="6.0693">
        <ele>876.86</ele>
        <time>2015-05-14T10:39:11Z</time>
      </trkpt>
      <trkpt lat="46.65871" lon="6.0696">
        <ele>876.86</ele>
        <time>2015-05-14T10:39:28Z</time>
      </trkpt>
      <trkpt lat="46.65875" lon="6.06992">
        <ele>876.86</ele>
        <time>2015-05-14T10:39:47Z</time>
      </trkpt>
      <trkpt lat="46.65882" lon="6.0701">
        <ele>876.86</ele>
        <time>2015-05-14T10:40:02Z</time>
      </trkpt>
      <trkpt lat="46.65887" lon="6.0703">
        <ele>877.34</ele>
        <time>2015-05-14T10:40:16Z</time>
      </trkpt>
      <trkpt lat="46.6589" lon="6.07054">
        <ele>877.34</ele>
        <time>2015-05-14T10:40:33Z</time>
      </trkpt>
      <trkpt lat="46.65893" lon="6.07069">
        <ele>877.34</ele>
        <time>2015-05-14T10:40:43Z</time>
      </trkpt>
      <trkpt lat="46.65894" lon="6.07075">
        <ele>875.9</ele>
        <time>2015-05-14T10:40:46Z</time>
      </trkpt>
      <trkpt lat="46.65902" lon="6.07108">
        <ele>873.98</ele>
        <time>2015-05-14T10:41:05Z</time>
      </trkpt>
      <trkpt lat="46.65909" lon="6.0714">
        <ele>872.05</ele>
        <time>2015-05-14T10:41:24Z</time>
      </trkpt>
      <trkpt lat="46.65919" lon="6.07164">
        <ele>870.13</ele>
        <time>2015-05-14T10:41:40Z</time>
      </trkpt>
      <trkpt lat="46.65923" lon="6.07194">
        <ele>868.69</ele>
        <time>2015-05-14T10:41:58Z</time>
      </trkpt>
      <trkpt lat="46.65927" lon="6.07219">
        <ele>867.73</ele>
        <time>2015-05-14T10:42:15Z</time>
      </trkpt>
      <trkpt lat="46.65929" lon="6.07247">
        <ele>866.29</ele>
        <time>2015-05-14T10:42:33Z</time>
      </trkpt>
      <trkpt lat="46.65936" lon="6.07278">
        <ele>864.36</ele>
        <time>2015-05-14T10:42:53Z</time>
      </trkpt>
      <trkpt lat="46.65939" lon="6.07283">
        <ele>863.88</ele>
        <time>2015-05-14T10:42:57Z</time>
      </trkpt>
      <trkpt lat="46.65943" lon="6.07291">
        <ele>863.4</ele>
        <time>2015-05-14T10:43:04Z</time>
      </trkpt>
      <trkpt lat="46.6596" lon="6.07317">
        <ele>861.48</ele>
        <time>2015-05-14T10:43:25Z</time>
      </trkpt>
      <trkpt lat="46.65963" lon="6.07322">
        <ele>861</ele>
        <time>2015-05-14T10:43:30Z</time>
      </trkpt>
      <trkpt lat="46.65966" lon="6.07325">
        <ele>861</ele>
        <time>2015-05-14T10:43:34Z</time>
      </trkpt>
      <trkpt lat="46.65967" lon="6.07334">
        <ele>861</ele>
        <time>2015-05-14T10:43:41Z</time>
      </trkpt>
      <trkpt lat="46.65974" lon="6.07318">
        <ele>861</ele>
        <time>2015-05-14T10:43:57Z</time>
      </trkpt>
      <trkpt lat="46.65969" lon="6.07289">
        <ele>860.52</ele>
        <time>2015-05-14T10:44:14Z</time>
      </trkpt>
      <trkpt lat="46.65981" lon="6.0726">
        <ele>860.04</ele>
        <time>2015-05-14T10:44:31Z</time>
      </trkpt>
      <trkpt lat="46.66007" lon="6.07268">
        <ele>857.63</ele>
        <time>2015-05-14T10:44:49Z</time>
      </trkpt>
      <trkpt lat="46.66032" lon="6.0727">
        <ele>857.15</ele>
        <time>2015-05-14T10:45:07Z</time>
      </trkpt>
      <trkpt lat="46.66057" lon="6.07272">
        <ele>856.67</ele>
        <time>2015-05-14T10:45:27Z</time>
      </trkpt>
      <trkpt lat="46.66079" lon="6.07272">
        <ele>856.67</ele>
        <time>2015-05-14T10:45:44Z</time>
      </trkpt>
      <trkpt lat="46.66107" lon="6.07271">
        <ele>856.67</ele>
        <time>2015-05-14T10:46:06Z</time>
      </trkpt>
      <trkpt lat="46.66109" lon="6.07271">
        <ele>858.11</ele>
        <time>2015-05-14T10:46:08Z</time>
      </trkpt>
      <trkpt lat="46.66128" lon="6.07273">
        <ele>858.59</ele>
        <time>2015-05-14T10:46:25Z</time>
      </trkpt>
      <trkpt lat="46.66152" lon="6.0728">
        <ele>858.59</ele>
        <time>2015-05-14T10:46:42Z</time>
      </trkpt>
      <trkpt lat="46.66178" lon="6.07284">
        <ele>859.56</ele>
        <time>2015-05-14T10:47:02Z</time>
      </trkpt>
      <trkpt lat="46.66204" lon="6.07284">
        <ele>860.04</ele>
        <time>2015-05-14T10:47:21Z</time>
      </trkpt>
      <trkpt lat="46.66214" lon="6.07283">
        <ele>860.52</ele>
        <time>2015-05-14T10:47:35Z</time>
      </trkpt>
      <trkpt lat="46.66214" lon="6.07283">
        <ele>860.04</ele>
        <time>2015-05-14T10:47:50Z</time>
      </trkpt>
      <trkpt lat="46.66219" lon="6.07285">
        <ele>860.04</ele>
        <time>2015-05-14T10:48:03Z</time>
      </trkpt>
      <trkpt lat="46.66239" lon="6.07305">
        <ele>860.04</ele>
        <time>2015-05-14T10:48:24Z</time>
      </trkpt>
      <trkpt lat="46.66259" lon="6.07329">
        <ele>860.04</ele>
        <time>2015-05-14T10:48:45Z</time>
      </trkpt>
      <trkpt lat="46.66283" lon="6.0735">
        <ele>860.52</ele>
        <time>2015-05-14T10:49:06Z</time>
      </trkpt>
      <trkpt lat="46.66295" lon="6.07363">
        <ele>861</ele>
        <time>2015-05-14T10:49:22Z</time>
      </trkpt>
      <trkpt lat="46.66317" lon="6.07383">
        <ele>863.4</ele>
        <time>2015-05-14T10:49:43Z</time>
      </trkpt>
      <trkpt lat="46.66332" lon="6.07396">
        <ele>863.88</ele>
        <time>2015-05-14T10:50:00Z</time>
      </trkpt>
      <trkpt lat="46.66341" lon="6.07393">
        <ele>863.88</ele>
        <time>2015-05-14T10:50:12Z</time>
      </trkpt>
      <trkpt lat="46.66344" lon="6.07383">
        <ele>864.36</ele>
        <time>2015-05-14T10:50:19Z</time>
      </trkpt>
      <trkpt lat="46.66353" lon="6.07375">
        <ele>864.84</ele>
        <time>2015-05-14T10:50:25Z</time>
      </trkpt>
      <trkpt lat="46.66366" lon="6.07344">
        <ele>866.29</ele>
        <time>2015-05-14T10:50:46Z</time>
      </trkpt>
      <trkpt lat="46.66382" lon="6.07315">
        <ele>866.77</ele>
        <time>2015-05-14T10:51:06Z</time>
      </trkpt>
      <trkpt lat="46.664" lon="6.07282">
        <ele>870.13</ele>
        <time>2015-05-14T10:51:28Z</time>
      </trkpt>
      <trkpt lat="46.66412" lon="6.0726">
        <ele>873.01</ele>
        <time>2015-05-14T10:51:45Z</time>
      </trkpt>
      <trkpt lat="46.66417" lon="6.07251">
        <ele>873.01</ele>
        <time>2015-05-14T10:51:54Z</time>
      </trkpt>
      <trkpt lat="46.66424" lon="6.07226">
        <ele>873.5</ele>
        <time>2015-05-14T10:52:12Z</time>
      </trkpt>
      <trkpt lat="46.66424" lon="6.07224">
        <ele>873.5</ele>
        <time>2015-05-14T10:52:14Z</time>
      </trkpt>
      <trkpt lat="46.66434" lon="6.0722">
        <ele>873.5</ele>
        <time>2015-05-14T10:52:23Z</time>
      </trkpt>
      <trkpt lat="46.66454" lon="6.0724">
        <ele>875.9</ele>
        <time>2015-05-14T10:52:42Z</time>
      </trkpt>
      <trkpt lat="46.6647" lon="6.0726">
        <ele>876.38</ele>
        <time>2015-05-14T10:52:59Z</time>
      </trkpt>
      <trkpt lat="46.66482" lon="6.0728">
        <ele>875.42</ele>
        <time>2015-05-14T10:53:16Z</time>
      </trkpt>
      <trkpt lat="46.66486" lon="6.07284">
        <ele>875.42</ele>
        <time>2015-05-14T10:53:31Z</time>
      </trkpt>
      <trkpt lat="46.66499" lon="6.07283">
        <ele>874.94</ele>
        <time>2015-05-14T10:53:48Z</time>
      </trkpt>
      <trkpt lat="46.66502" lon="6.07284">
        <ele>874.94</ele>
        <time>2015-05-14T10:53:52Z</time>
      </trkpt>
      <trkpt lat="46.66524" lon="6.07293">
        <ele>876.38</ele>
        <time>2015-05-14T10:54:09Z</time>
      </trkpt>
      <trkpt lat="46.66542" lon="6.073">
        <ele>877.82</ele>
        <time>2015-05-14T10:54:25Z</time>
      </trkpt>
      <trkpt lat="46.66553" lon="6.07305">
        <ele>878.3</ele>
        <time>2015-05-14T10:54:42Z</time>
      </trkpt>
      <trkpt lat="46.6656" lon="6.07311">
        <ele>878.3</ele>
        <time>2015-05-14T10:55:00Z</time>
      </trkpt>
      <trkpt lat="46.66561" lon="6.0731">
        <ele>877.82</ele>
        <time>2015-05-14T10:55:29Z</time>
      </trkpt>
      <trkpt lat="46.66564" lon="6.07312">
        <ele>878.3</ele>
        <time>2015-05-14T10:55:44Z</time>
      </trkpt>
      <trkpt lat="46.66569" lon="6.07311">
        <ele>878.78</ele>
        <time>2015-05-14T10:55:58Z</time>
      </trkpt>
      <trkpt lat="46.66574" lon="6.07311">
        <ele>879.26</ele>
        <time>2015-05-14T10:56:16Z</time>
      </trkpt>
      <trkpt lat="46.66583" lon="6.07317">
        <ele>879.74</ele>
        <time>2015-05-14T10:56:34Z</time>
      </trkpt>
      <trkpt lat="46.66596" lon="6.07328">
        <ele>881.19</ele>
        <time>2015-05-14T10:56:51Z</time>
      </trkpt>
      <trkpt lat="46.66607" lon="6.07337">
        <ele>883.11</ele>
        <time>2015-05-14T10:57:05Z</time>
      </trkpt>
      <trkpt lat="46.66624" lon="6.0735">
        <ele>885.99</ele>
        <time>2015-05-14T10:57:23Z</time>
      </trkpt>
      <trkpt lat="46.66638" lon="6.07361">
        <ele>889.36</ele>
        <time>2015-05-14T10:57:38Z</time>
      </trkpt>
      <trkpt lat="46.66642" lon="6.07363">
        <ele>887.91</ele>
        <time>2015-05-14T10:57:41Z</time>
      </trkpt>
      <trkpt lat="46.6666" lon="6.07373">
        <ele>889.84</ele>
        <time>2015-05-14T10:57:58Z</time>
      </trkpt>
      <trkpt lat="46.66675" lon="6.0738">
        <ele>892.24</ele>
        <time>2015-05-14T10:58:14Z</time>
      </trkpt>
      <trkpt lat="46.66687" lon="6.07382">
        <ele>894.16</ele>
        <time>2015-05-14T10:58:31Z</time>
      </trkpt>
      <trkpt lat="46.66694" lon="6.07383">
        <ele>894.64</ele>
        <time>2015-05-14T10:58:57Z</time>
      </trkpt>
      <trkpt lat="46.66699" lon="6.07391">
        <ele>893.2</ele>
        <time>2015-05-14T10:59:06Z</time>
      </trkpt>
      <trkpt lat="46.6671" lon="6.07405">
        <ele>891.28</ele>
        <time>2015-05-14T10:59:23Z</time>
      </trkpt>
      <trkpt lat="46.6671" lon="6.07406">
        <ele>890.8</ele>
        <time>2015-05-14T10:59:24Z</time>
      </trkpt>
      <trkpt lat="46.6672" lon="6.07422">
        <ele>889.36</ele>
        <time>2015-05-14T10:59:39Z</time>
      </trkpt>
      <trkpt lat="46.66723" lon="6.07431">
        <ele>889.36</ele>
        <time>2015-05-14T10:59:56Z</time>
      </trkpt>
      <trkpt lat="46.66726" lon="6.07436">
        <ele>889.36</ele>
        <time>2015-05-14T11:00:13Z</time>
      </trkpt>
      <trkpt lat="46.66723" lon="6.07437">
        <ele>888.88</ele>
        <time>2015-05-14T11:00:35Z</time>
      </trkpt>
      <trkpt lat="46.66726" lon="6.07431">
        <ele>889.36</ele>
        <time>2015-05-14T11:01:01Z</time>
      </trkpt>
      <trkpt lat="46.66725" lon="6.07431">
        <ele>889.36</ele>
        <time>2015-05-14T11:01:28Z</time>
      </trkpt>
      <trkpt lat="46.66736" lon="6.07451">
        <ele>888.88</ele>
        <time>2015-05-14T11:01:45Z</time>
      </trkpt>
      <trkpt lat="46.66744" lon="6.07462">
        <ele>887.91</ele>
        <time>2015-05-14T11:01:59Z</time>
      </trkpt>
      <trkpt lat="46.66755" lon="6.0748">
        <ele>887.91</ele>
        <time>2015-05-14T11:02:15Z</time>
      </trkpt>
      <trkpt lat="46.66766" lon="6.07498">
        <ele>888.4</ele>
        <time>2015-05-14T11:02:30Z</time>
      </trkpt>
      <trkpt lat="46.66779" lon="6.07517">
        <ele>887.91</ele>
        <time>2015-05-14T11:02:46Z</time>
      </trkpt>
      <trkpt lat="46.66792" lon="6.07537">
        <ele>887.91</ele>
        <time>2015-05-14T11:03:01Z</time>
      </trkpt>
      <trkpt lat="46.66802" lon="6.07553">
        <ele>889.36</ele>
        <time>2015-05-14T11:03:16Z</time>
      </trkpt>
      <trkpt lat="46.6681" lon="6.07566">
        <ele>890.32</ele>
        <time>2015-05-14T11:03:29Z</time>
      </trkpt>
      <trkpt lat="46.6682" lon="6.07578">
        <ele>890.32</ele>
        <time>2015-05-14T11:03:44Z</time>
      </trkpt>
      <trkpt lat="46.66832" lon="6.0759">
        <ele>890.8</ele>
        <time>2015-05-14T11:03:57Z</time>
      </trkpt>
      <trkpt lat="46.66842" lon="6.07604">
        <ele>892.72</ele>
        <time>2015-05-14T11:04:10Z</time>
      </trkpt>
      <trkpt lat="46.66851" lon="6.07616">
        <ele>894.16</ele>
        <time>2015-05-14T11:04:24Z</time>
      </trkpt>
      <trkpt lat="46.66864" lon="6.07634">
        <ele>895.12</ele>
        <time>2015-05-14T11:04:41Z</time>
      </trkpt>
      <trkpt lat="46.66867" lon="6.07638">
        <ele>896.09</ele>
        <time>2015-05-14T11:05:01Z</time>
      </trkpt>
      <trkpt lat="46.66872" lon="6.07643">
        <ele>896.09</ele>
        <time>2015-05-14T11:05:22Z</time>
      </trkpt>
      <trkpt lat="46.66883" lon="6.07651">
        <ele>897.53</ele>
        <time>2015-05-14T11:05:35Z</time>
      </trkpt>
      <trkpt lat="46.66896" lon="6.07663">
        <ele>896.09</ele>
        <time>2015-05-14T11:05:48Z</time>
      </trkpt>
      <trkpt lat="46.66899" lon="6.07665">
        <ele>897.53</ele>
        <time>2015-05-14T11:05:50Z</time>
      </trkpt>
      <trkpt lat="46.66911" lon="6.07685">
        <ele>897.53</ele>
        <time>2015-05-14T11:06:04Z</time>
      </trkpt>
      <trkpt lat="46.66917" lon="6.07687">
        <ele>898.97</ele>
        <time>2015-05-14T11:06:19Z</time>
      </trkpt>
      <trkpt lat="46.66913" lon="6.0768">
        <ele>898.97</ele>
        <time>2015-05-14T11:06:33Z</time>
      </trkpt>
      <trkpt lat="46.66913" lon="6.07682">
        <ele>899.45</ele>
        <time>2015-05-14T11:06:45Z</time>
      </trkpt>
      <trkpt lat="46.66915" lon="6.07679">
        <ele>899.45</ele>
        <time>2015-05-14T11:07:11Z</time>
      </trkpt>
      <trkpt lat="46.6692" lon="6.07679">
        <ele>899.45</ele>
        <time>2015-05-14T11:07:38Z</time>
      </trkpt>
      <trkpt lat="46.66913" lon="6.07676">
        <ele>899.45</ele>
        <time>2015-05-14T11:07:56Z</time>
      </trkpt>
      <trkpt lat="46.66911" lon="6.07686">
        <ele>898.01</ele>
        <time>2015-05-14T11:08:11Z</time>
      </trkpt>
      <trkpt lat="46.66907" lon="6.07694">
        <ele>894.64</ele>
        <time>2015-05-14T11:08:25Z</time>
      </trkpt>
      <trkpt lat="46.66907" lon="6.07695">
        <ele>894.64</ele>
        <time>2015-05-14T11:08:26Z</time>
      </trkpt>
      <trkpt lat="46.6691" lon="6.07707">
        <ele>891.76</ele>
        <time>2015-05-14T11:08:42Z</time>
      </trkpt>
      <trkpt lat="46.66911" lon="6.07712">
        <ele>888.88</ele>
        <time>2015-05-14T11:08:51Z</time>
      </trkpt>
      <trkpt lat="46.66916" lon="6.07721">
        <ele>887.43</ele>
        <time>2015-05-14T11:09:01Z</time>
      </trkpt>
      <trkpt lat="46.66923" lon="6.07729">
        <ele>885.03</ele>
        <time>2015-05-14T11:09:16Z</time>
      </trkpt>
      <trkpt lat="46.66928" lon="6.07717">
        <ele>882.63</ele>
        <time>2015-05-14T11:09:25Z</time>
      </trkpt>
      <trkpt lat="46.66929" lon="6.07714">
        <ele>882.63</ele>
        <time>2015-05-14T11:09:27Z</time>
      </trkpt>
      <trkpt lat="46.6693" lon="6.07688">
        <ele>882.63</ele>
        <time>2015-05-14T11:09:43Z</time>
      </trkpt>
      <trkpt lat="46.66933" lon="6.07677">
        <ele>882.63</ele>
        <time>2015-05-14T11:09:59Z</time>
      </trkpt>
      <trkpt lat="46.66939" lon="6.0766">
        <ele>884.07</ele>
        <time>2015-05-14T11:10:14Z</time>
      </trkpt>
      <trkpt lat="46.66947" lon="6.07648">
        <ele>882.63</ele>
        <time>2015-05-14T11:10:26Z</time>
      </trkpt>
      <trkpt lat="46.66955" lon="6.07644">
        <ele>882.15</ele>
        <time>2015-05-14T11:10:38Z</time>
      </trkpt>
      <trkpt lat="46.66957" lon="6.07644">
        <ele>882.15</ele>
        <time>2015-05-14T11:11:01Z</time>
      </trkpt>
      <trkpt lat="46.66958" lon="6.07652">
        <ele>882.15</ele>
        <time>2015-05-14T11:11:22Z</time>
      </trkpt>
      <trkpt lat="46.66958" lon="6.07651">
        <ele>880.71</ele>
        <time>2015-05-14T11:11:26Z</time>
      </trkpt>
      <trkpt lat="46.66956" lon="6.07649">
        <ele>880.71</ele>
        <time>2015-05-14T11:12:03Z</time>
      </trkpt>
      <trkpt lat="46.66958" lon="6.07646">
        <ele>882.15</ele>
        <time>2015-05-14T11:12:15Z</time>
      </trkpt>
      <trkpt lat="46.66959" lon="6.07643">
        <ele>882.63</ele>
        <time>2015-05-14T11:12:28Z</time>
      </trkpt>
      <trkpt lat="46.66958" lon="6.07638">
        <ele>882.63</ele>
        <time>2015-05-14T11:12:43Z</time>
      </trkpt>
      <trkpt lat="46.6696" lon="6.07637">
        <ele>881.67</ele>
        <time>2015-05-14T11:13:10Z</time>
      </trkpt>
      <trkpt lat="46.6696" lon="6.07636">
        <ele>881.67</ele>
        <time>2015-05-14T11:13:23Z</time>
      </trkpt>
      <trkpt lat="46.66961" lon="6.07636">
        <ele>882.15</ele>
        <time>2015-05-14T11:13:39Z</time>
      </trkpt>
      <trkpt lat="46.66967" lon="6.07637">
        <ele>882.15</ele>
        <time>2015-05-14T11:14:10Z</time>
      </trkpt>
      <trkpt lat="46.66961" lon="6.07632">
        <ele>881.67</ele>
        <time>2015-05-14T11:14:41Z</time>
      </trkpt>
      <trkpt lat="46.66963" lon="6.0763">
        <ele>882.15</ele>
        <time>2015-05-14T11:15:15Z</time>
      </trkpt>
      <trkpt lat="46.66966" lon="6.07633">
        <ele>882.63</ele>
        <time>2015-05-14T11:15:55Z</time>
      </trkpt>
      <trkpt lat="46.6697" lon="6.07632">
        <ele>884.55</ele>
        <time>2015-05-14T11:16:27Z</time>
      </trkpt>
      <trkpt lat="46.66975" lon="6.07638">
        <ele>885.51</ele>
        <time>2015-05-14T11:16:59Z</time>
      </trkpt>
      <trkpt lat="46.66972" lon="6.07637">
        <ele>886.47</ele>
        <time>2015-05-14T11:17:33Z</time>
      </trkpt>
      <trkpt lat="46.66975" lon="6.07638">
        <ele>886.47</ele>
        <time>2015-05-14T11:18:08Z</time>
      </trkpt>
      <trkpt lat="46.66992" lon="6.07635">
        <ele>887.43</ele>
        <time>2015-05-14T11:18:41Z</time>
      </trkpt>
      <trkpt lat="46.67002" lon="6.07637">
        <ele>887.91</ele>
        <time>2015-05-14T11:19:17Z</time>
      </trkpt>
      <trkpt lat="46.67009" lon="6.07637">
        <ele>887.91</ele>
        <time>2015-05-14T11:19:51Z</time>
      </trkpt>
      <trkpt lat="46.67001" lon="6.07639">
        <ele>888.4</ele>
        <time>2015-05-14T11:20:16Z</time>
      </trkpt>
      <trkpt lat="46.67" lon="6.07638">
        <ele>888.4</ele>
        <time>2015-05-14T11:20:47Z</time>
      </trkpt>
      <trkpt lat="46.67" lon="6.07639">
        <ele>888.88</ele>
        <time>2015-05-14T11:21:13Z</time>
      </trkpt>
      <trkpt lat="46.67001" lon="6.07637">
        <ele>888.88</ele>
        <time>2015-05-14T11:21:44Z</time>
      </trkpt>
      <trkpt lat="46.67" lon="6.07634">
        <ele>889.36</ele>
        <time>2015-05-14T11:22:17Z</time>
      </trkpt>
      <trkpt lat="46.67001" lon="6.07638">
        <ele>889.84</ele>
        <time>2015-05-14T11:22:48Z</time>
      </trkpt>
      <trkpt lat="46.66994" lon="6.07638">
        <ele>890.32</ele>
        <time>2015-05-14T11:23:21Z</time>
      </trkpt>
      <trkpt lat="46.6699" lon="6.07638">
        <ele>891.28</ele>
        <time>2015-05-14T11:23:56Z</time>
      </trkpt>
      <trkpt lat="46.66997" lon="6.07638">
        <ele>891.28</ele>
        <time>2015-05-14T11:24:26Z</time>
      </trkpt>
      <trkpt lat="46.67" lon="6.07637">
        <ele>892.24</ele>
        <time>2015-05-14T11:24:51Z</time>
      </trkpt>
      <trkpt lat="46.66995" lon="6.07636">
        <ele>891.28</ele>
        <time>2015-05-14T11:25:23Z</time>
      </trkpt>
      <trkpt lat="46.66999" lon="6.07635">
        <ele>891.76</ele>
        <time>2015-05-14T11:25:47Z</time>
      </trkpt>
      <trkpt lat="46.66996" lon="6.07638">
        <ele>891.76</ele>
        <time>2015-05-14T11:26:18Z</time>
      </trkpt>
      <trkpt lat="46.66991" lon="6.07636">
        <ele>893.2</ele>
        <time>2015-05-14T11:26:50Z</time>
      </trkpt>
      <trkpt lat="46.66994" lon="6.07635">
        <ele>893.2</ele>
        <time>2015-05-14T11:27:19Z</time>
      </trkpt>
      <trkpt lat="46.66995" lon="6.07633">
        <ele>893.68</ele>
        <time>2015-05-14T11:27:48Z</time>
      </trkpt>
      <trkpt lat="46.66998" lon="6.07636">
        <ele>893.68</ele>
        <time>2015-05-14T11:28:19Z</time>
      </trkpt>
      <trkpt lat="46.67004" lon="6.07635">
        <ele>894.16</ele>
        <time>2015-05-14T11:28:55Z</time>
      </trkpt>
      <trkpt lat="46.67001" lon="6.07634">
        <ele>894.64</ele>
        <time>2015-05-14T11:29:26Z</time>
      </trkpt>
      <trkpt lat="46.66993" lon="6.07634">
        <ele>895.12</ele>
        <time>2015-05-14T11:29:58Z</time>
      </trkpt>
      <trkpt lat="46.66989" lon="6.07635">
        <ele>895.61</ele>
        <time>2015-05-14T11:30:28Z</time>
      </trkpt>
      <trkpt lat="46.66988" lon="6.07637">
        <ele>894.64</ele>
        <time>2015-05-14T11:30:59Z</time>
      </trkpt>
      <trkpt lat="46.66993" lon="6.07632">
        <ele>894.64</ele>
        <time>2015-05-14T11:31:29Z</time>
      </trkpt>
      <trkpt lat="46.66991" lon="6.07633">
        <ele>894.64</ele>
        <time>2015-05-14T11:32:02Z</time>
      </trkpt>
      <trkpt lat="46.66985" lon="6.07632">
        <ele>894.16</ele>
        <time>2015-05-14T11:32:33Z</time>
      </trkpt>
      <trkpt lat="46.66987" lon="6.07631">
        <ele>894.16</ele>
        <time>2015-05-14T11:33:05Z</time>
      </trkpt>
      <trkpt lat="46.66977" lon="6.07634">
        <ele>894.16</ele>
        <time>2015-05-14T11:33:38Z</time>
      </trkpt>
      <trkpt lat="46.66969" lon="6.07634">
        <ele>894.16</ele>
        <time>2015-05-14T11:34:08Z</time>
      </trkpt>
      <trkpt lat="46.66966" lon="6.07636">
        <ele>894.64</ele>
        <time>2015-05-14T11:34:40Z</time>
      </trkpt>
      <trkpt lat="46.66969" lon="6.07634">
        <ele>894.64</ele>
        <time>2015-05-14T11:35:10Z</time>
      </trkpt>
      <trkpt lat="46.66978" lon="6.07632">
        <ele>894.64</ele>
        <time>2015-05-14T11:35:35Z</time>
      </trkpt>
      <trkpt lat="46.66984" lon="6.07632">
        <ele>894.16</ele>
        <time>2015-05-14T11:36:12Z</time>
      </trkpt>
      <trkpt lat="46.66983" lon="6.07636">
        <ele>894.16</ele>
        <time>2015-05-14T11:36:43Z</time>
      </trkpt>
      <trkpt lat="46.66975" lon="6.07632">
        <ele>894.16</ele>
        <time>2015-05-14T11:37:11Z</time>
      </trkpt>
      <trkpt lat="46.66979" lon="6.07631">
        <ele>894.16</ele>
        <time>2015-05-14T11:37:42Z</time>
      </trkpt>
      <trkpt lat="46.66986" lon="6.0763">
        <ele>894.16</ele>
        <time>2015-05-14T11:38:10Z</time>
      </trkpt>
      <trkpt lat="46.66982" lon="6.07631">
        <ele>894.16</ele>
        <time>2015-05-14T11:38:39Z</time>
      </trkpt>
      <trkpt lat="46.66972" lon="6.07632">
        <ele>894.16</ele>
        <time>2015-05-14T11:39:08Z</time>
      </trkpt>
      <trkpt lat="46.66978" lon="6.07633">
        <ele>894.16</ele>
        <time>2015-05-14T11:39:35Z</time>
      </trkpt>
      <trkpt lat="46.66977" lon="6.07629">
        <ele>894.16</ele>
        <time>2015-05-14T11:40:07Z</time>
      </trkpt>
      <trkpt lat="46.66976" lon="6.07631">
        <ele>894.16</ele>
        <time>2015-05-14T11:40:39Z</time>
      </trkpt>
      <trkpt lat="46.66991" lon="6.07631">
        <ele>894.16</ele>
        <time>2015-05-14T11:41:09Z</time>
      </trkpt>
      <trkpt lat="46.66983" lon="6.0763">
        <ele>894.16</ele>
        <time>2015-05-14T11:41:38Z</time>
      </trkpt>
      <trkpt lat="46.66964" lon="6.07632">
        <ele>895.12</ele>
        <time>2015-05-14T11:42:07Z</time>
      </trkpt>
      <trkpt lat="46.66955" lon="6.07633">
        <ele>895.12</ele>
        <time>2015-05-14T11:42:42Z</time>
      </trkpt>
      <trkpt lat="46.6695" lon="6.07634">
        <ele>895.12</ele>
        <time>2015-05-14T11:43:24Z</time>
      </trkpt>
      <trkpt lat="46.66949" lon="6.07633">
        <ele>895.12</ele>
        <time>2015-05-14T11:44:05Z</time>
      </trkpt>
      <trkpt lat="46.66948" lon="6.07637">
        <ele>895.12</ele>
        <time>2015-05-14T11:44:40Z</time>
      </trkpt>
      <trkpt lat="46.66952" lon="6.07637">
        <ele>895.61</ele>
        <time>2015-05-14T11:45:16Z</time>
      </trkpt>
      <trkpt lat="46.66955" lon="6.07634">
        <ele>895.61</ele>
        <time>2015-05-14T11:45:53Z</time>
      </trkpt>
      <trkpt lat="46.66958" lon="6.07634">
        <ele>896.09</ele>
        <time>2015-05-14T11:46:23Z</time>
      </trkpt>
      <trkpt lat="46.66966" lon="6.07637">
        <ele>896.09</ele>
        <time>2015-05-14T11:46:53Z</time>
      </trkpt>
      <trkpt lat="46.66963" lon="6.07642">
        <ele>896.09</ele>
        <time>2015-05-14T11:47:26Z</time>
      </trkpt>
      <trkpt lat="46.66968" lon="6.07639">
        <ele>896.09</ele>
        <time>2015-05-14T11:47:58Z</time>
      </trkpt>
      <trkpt lat="46.66962" lon="6.07642">
        <ele>896.09</ele>
        <time>2015-05-14T11:48:29Z</time>
      </trkpt>
      <trkpt lat="46.66971" lon="6.07642">
        <ele>896.09</ele>
        <time>2015-05-14T11:49:06Z</time>
      </trkpt>
      <trkpt lat="46.66964" lon="6.0764">
        <ele>896.09</ele>
        <time>2015-05-14T11:49:38Z</time>
      </trkpt>
      <trkpt lat="46.66963" lon="6.07643">
        <ele>896.09</ele>
        <time>2015-05-14T11:50:11Z</time>
      </trkpt>
      <trkpt lat="46.66964" lon="6.07641">
        <ele>895.61</ele>
        <time>2015-05-14T11:50:44Z</time>
      </trkpt>
      <trkpt lat="46.66974" lon="6.07639">
        <ele>896.09</ele>
        <time>2015-05-14T11:51:13Z</time>
      </trkpt>
      <trkpt lat="46.66981" lon="6.07638">
        <ele>896.09</ele>
        <time>2015-05-14T11:51:46Z</time>
      </trkpt>
      <trkpt lat="46.66979" lon="6.07633">
        <ele>895.61</ele>
        <time>2015-05-14T11:52:15Z</time>
      </trkpt>
      <trkpt lat="46.6697" lon="6.07636">
        <ele>895.61</ele>
        <time>2015-05-14T11:52:46Z</time>
      </trkpt>
      <trkpt lat="46.66963" lon="6.07638">
        <ele>895.61</ele>
        <time>2015-05-14T11:53:20Z</time>
      </trkpt>
      <trkpt lat="46.66967" lon="6.07637">
        <ele>895.12</ele>
        <time>2015-05-14T11:53:56Z</time>
      </trkpt>
      <trkpt lat="46.6697" lon="6.07636">
        <ele>895.12</ele>
        <time>2015-05-14T11:54:28Z</time>
      </trkpt>
      <trkpt lat="46.66977" lon="6.07635">
        <ele>895.12</ele>
        <time>2015-05-14T11:55:01Z</time>
      </trkpt>
      <trkpt lat="46.66978" lon="6.07634">
        <ele>893.68</ele>
        <time>2015-05-14T11:55:28Z</time>
      </trkpt>
      <trkpt lat="46.66983" lon="6.07631">
        <ele>893.2</ele>
        <time>2015-05-14T11:55:58Z</time>
      </trkpt>
      <trkpt lat="46.6699" lon="6.07627">
        <ele>893.2</ele>
        <time>2015-05-14T11:56:32Z</time>
      </trkpt>
      <trkpt lat="46.66996" lon="6.07626">
        <ele>894.16</ele>
        <time>2015-05-14T11:56:54Z</time>
      </trkpt>
      <trkpt lat="46.66995" lon="6.07623">
        <ele>895.61</ele>
        <time>2015-05-14T11:57:16Z</time>
      </trkpt>
      <trkpt lat="46.66991" lon="6.07626">
        <ele>896.09</ele>
        <time>2015-05-14T11:57:19Z</time>
      </trkpt>
      <trkpt lat="46.66979" lon="6.07632">
        <ele>894.16</ele>
        <time>2015-05-14T11:57:22Z</time>
      </trkpt>
      <trkpt lat="46.66958" lon="6.0764">
        <ele>893.68</ele>
        <time>2015-05-14T11:57:38Z</time>
      </trkpt>
      <trkpt lat="46.66953" lon="6.07645">
        <ele>893.68</ele>
        <time>2015-05-14T11:58:18Z</time>
      </trkpt>
      <trkpt lat="46.66953" lon="6.07646">
        <ele>895.12</ele>
        <time>2015-05-14T11:58:32Z</time>
      </trkpt>
      <trkpt lat="46.66954" lon="6.07647">
        <ele>897.05</ele>
        <time>2015-05-14T11:58:53Z</time>
      </trkpt>
      <trkpt lat="46.66945" lon="6.07655">
        <ele>897.05</ele>
        <time>2015-05-14T11:59:06Z</time>
      </trkpt>
      <trkpt lat="46.66936" lon="6.07667">
        <ele>897.05</ele>
        <time>2015-05-14T11:59:16Z</time>
      </trkpt>
      <trkpt lat="46.66932" lon="6.07695">
        <ele>898.01</ele>
        <time>2015-05-14T11:59:30Z</time>
      </trkpt>
      <trkpt lat="46.66932" lon="6.07702">
        <ele>898.01</ele>
        <time>2015-05-14T11:59:34Z</time>
      </trkpt>
      <trkpt lat="46.66929" lon="6.07724">
        <ele>898.01</ele>
        <time>2015-05-14T11:59:48Z</time>
      </trkpt>
      <trkpt lat="46.66921" lon="6.07721">
        <ele>901.37</ele>
        <time>2015-05-14T12:00:01Z</time>
      </trkpt>
      <trkpt lat="46.66915" lon="6.07709">
        <ele>904.74</ele>
        <time>2015-05-14T12:00:13Z</time>
      </trkpt>
      <trkpt lat="46.66911" lon="6.07696">
        <ele>908.1</ele>
        <time>2015-05-14T12:00:24Z</time>
      </trkpt>
      <trkpt lat="46.66908" lon="6.07682">
        <ele>909.54</ele>
        <time>2015-05-14T12:00:33Z</time>
      </trkpt>
      <trkpt lat="46.669" lon="6.07667">
        <ele>910.99</ele>
        <time>2015-05-14T12:00:47Z</time>
      </trkpt>
      <trkpt lat="46.66889" lon="6.07651">
        <ele>910.99</ele>
        <time>2015-05-14T12:01:02Z</time>
      </trkpt>
      <trkpt lat="46.66878" lon="6.07644">
        <ele>909.54</ele>
        <time>2015-05-14T12:01:14Z</time>
      </trkpt>
      <trkpt lat="46.66867" lon="6.07631">
        <ele>907.14</ele>
        <time>2015-05-14T12:01:28Z</time>
      </trkpt>
      <trkpt lat="46.66854" lon="6.07615">
        <ele>905.7</ele>
        <time>2015-05-14T12:01:42Z</time>
      </trkpt>
      <trkpt lat="46.66841" lon="6.07599">
        <ele>903.78</ele>
        <time>2015-05-14T12:01:55Z</time>
      </trkpt>
      <trkpt lat="46.66828" lon="6.07582">
        <ele>903.78</ele>
        <time>2015-05-14T12:02:09Z</time>
      </trkpt>
      <trkpt lat="46.66821" lon="6.07573">
        <ele>902.82</ele>
        <time>2015-05-14T12:02:23Z</time>
      </trkpt>
      <trkpt lat="46.66823" lon="6.07559">
        <ele>905.7</ele>
        <time>2015-05-14T12:02:38Z</time>
      </trkpt>
      <trkpt lat="46.66824" lon="6.0755">
        <ele>906.66</ele>
        <time>2015-05-14T12:02:50Z</time>
      </trkpt>
      <trkpt lat="46.66824" lon="6.07537">
        <ele>909.54</ele>
        <time>2015-05-14T12:03:10Z</time>
      </trkpt>
      <trkpt lat="46.6682" lon="6.07527">
        <ele>911.95</ele>
        <time>2015-05-14T12:03:25Z</time>
      </trkpt>
      <trkpt lat="46.66815" lon="6.07509">
        <ele>913.87</ele>
        <time>2015-05-14T12:03:41Z</time>
      </trkpt>
      <trkpt lat="46.6681" lon="6.07492">
        <ele>916.27</ele>
        <time>2015-05-14T12:03:56Z</time>
      </trkpt>
      <trkpt lat="46.66803" lon="6.07477">
        <ele>917.72</ele>
        <time>2015-05-14T12:04:09Z</time>
      </trkpt>
      <trkpt lat="46.66799" lon="6.07461">
        <ele>920.12</ele>
        <time>2015-05-14T12:04:24Z</time>
      </trkpt>
      <trkpt lat="46.66804" lon="6.07458">
        <ele>921.56</ele>
        <time>2015-05-14T12:04:40Z</time>
      </trkpt>
      <trkpt lat="46.66804" lon="6.07446">
        <ele>924.93</ele>
        <time>2015-05-14T12:04:56Z</time>
      </trkpt>
      <trkpt lat="46.66804" lon="6.07436">
        <ele>927.33</ele>
        <time>2015-05-14T12:05:11Z</time>
      </trkpt>
      <trkpt lat="46.66804" lon="6.07427">
        <ele>929.73</ele>
        <time>2015-05-14T12:05:25Z</time>
      </trkpt>
      <trkpt lat="46.66803" lon="6.07423">
        <ele>930.21</ele>
        <time>2015-05-14T12:05:41Z</time>
      </trkpt>
      <trkpt lat="46.66804" lon="6.07422">
        <ele>929.73</ele>
        <time>2015-05-14T12:06:01Z</time>
      </trkpt>
      <trkpt lat="46.66799" lon="6.07411">
        <ele>933.1</ele>
        <time>2015-05-14T12:06:15Z</time>
      </trkpt>
      <trkpt lat="46.66791" lon="6.07395">
        <ele>935.98</ele>
        <time>2015-05-14T12:06:31Z</time>
      </trkpt>
      <trkpt lat="46.66784" lon="6.07379">
        <ele>938.86</ele>
        <time>2015-05-14T12:06:44Z</time>
      </trkpt>
      <trkpt lat="46.66777" lon="6.07368">
        <ele>939.83</ele>
        <time>2015-05-14T12:06:59Z</time>
      </trkpt>
      <trkpt lat="46.66775" lon="6.0736">
        <ele>940.79</ele>
        <time>2015-05-14T12:07:13Z</time>
      </trkpt>
      <trkpt lat="46.66775" lon="6.07362">
        <ele>939.83</ele>
        <time>2015-05-14T12:07:17Z</time>
      </trkpt>
      <trkpt lat="46.66775" lon="6.07362">
        <ele>939.35</ele>
        <time>2015-05-14T12:07:45Z</time>
      </trkpt>
      <trkpt lat="46.66775" lon="6.07359">
        <ele>939.35</ele>
        <time>2015-05-14T12:08:08Z</time>
      </trkpt>
      <trkpt lat="46.66773" lon="6.07358">
        <ele>940.79</ele>
        <time>2015-05-14T12:08:15Z</time>
      </trkpt>
      <trkpt lat="46.66772" lon="6.07358">
        <ele>940.79</ele>
        <time>2015-05-14T12:08:30Z</time>
      </trkpt>
      <trkpt lat="46.66771" lon="6.07354">
        <ele>941.27</ele>
        <time>2015-05-14T12:08:44Z</time>
      </trkpt>
      <trkpt lat="46.66768" lon="6.07344">
        <ele>942.23</ele>
        <time>2015-05-14T12:08:57Z</time>
      </trkpt>
      <trkpt lat="46.66761" lon="6.07323">
        <ele>944.63</ele>
        <time>2015-05-14T12:09:11Z</time>
      </trkpt>
      <trkpt lat="46.66759" lon="6.07319">
        <ele>943.67</ele>
        <time>2015-05-14T12:09:14Z</time>
      </trkpt>
      <trkpt lat="46.66758" lon="6.07316">
        <ele>943.19</ele>
        <time>2015-05-14T12:09:16Z</time>
      </trkpt>
      <trkpt lat="46.66757" lon="6.07312">
        <ele>944.15</ele>
        <time>2015-05-14T12:09:19Z</time>
      </trkpt>
      <trkpt lat="46.66748" lon="6.07284">
        <ele>947.52</ele>
        <time>2015-05-14T12:09:37Z</time>
      </trkpt>
      <trkpt lat="46.66736" lon="6.07249">
        <ele>948</ele>
        <time>2015-05-14T12:09:59Z</time>
      </trkpt>
      <trkpt lat="46.66721" lon="6.07216">
        <ele>945.59</ele>
        <time>2015-05-14T12:10:19Z</time>
      </trkpt>
      <trkpt lat="46.66708" lon="6.07183">
        <ele>945.11</ele>
        <time>2015-05-14T12:10:40Z</time>
      </trkpt>
      <trkpt lat="46.66698" lon="6.07152">
        <ele>945.11</ele>
        <time>2015-05-14T12:11:00Z</time>
      </trkpt>
      <trkpt lat="46.66687" lon="6.07124">
        <ele>947.04</ele>
        <time>2015-05-14T12:11:18Z</time>
      </trkpt>
      <trkpt lat="46.66679" lon="6.07093">
        <ele>948</ele>
        <time>2015-05-14T12:11:38Z</time>
      </trkpt>
      <trkpt lat="46.66673" lon="6.07069">
        <ele>948.96</ele>
        <time>2015-05-14T12:11:54Z</time>
      </trkpt>
      <trkpt lat="46.66664" lon="6.0704">
        <ele>949.92</ele>
        <time>2015-05-14T12:12:13Z</time>
      </trkpt>
      <trkpt lat="46.66654" lon="6.07013">
        <ele>949.92</ele>
        <time>2015-05-14T12:12:31Z</time>
      </trkpt>
      <trkpt lat="46.6664" lon="6.06988">
        <ele>949.92</ele>
        <time>2015-05-14T12:12:49Z</time>
      </trkpt>
      <trkpt lat="46.66628" lon="6.06964">
        <ele>948.96</ele>
        <time>2015-05-14T12:13:07Z</time>
      </trkpt>
      <trkpt lat="46.66619" lon="6.06938">
        <ele>948.48</ele>
        <time>2015-05-14T12:13:25Z</time>
      </trkpt>
      <trkpt lat="46.66611" lon="6.06913">
        <ele>948</ele>
        <time>2015-05-14T12:13:41Z</time>
      </trkpt>
      <trkpt lat="46.66604" lon="6.06887">
        <ele>946.56</ele>
        <time>2015-05-14T12:13:59Z</time>
      </trkpt>
      <trkpt lat="46.66602" lon="6.06878">
        <ele>946.56</ele>
        <time>2015-05-14T12:14:05Z</time>
      </trkpt>
      <trkpt lat="46.66591" lon="6.06851">
        <ele>945.59</ele>
        <time>2015-05-14T12:14:24Z</time>
      </trkpt>
      <trkpt lat="46.66582" lon="6.06827">
        <ele>945.59</ele>
        <time>2015-05-14T12:14:40Z</time>
      </trkpt>
      <trkpt lat="46.66582" lon="6.06825">
        <ele>945.59</ele>
        <time>2015-05-14T12:14:41Z</time>
      </trkpt>
      <trkpt lat="46.66571" lon="6.06795">
        <ele>945.59</ele>
        <time>2015-05-14T12:15:03Z</time>
      </trkpt>
      <trkpt lat="46.66565" lon="6.06776">
        <ele>947.52</ele>
        <time>2015-05-14T12:15:17Z</time>
      </trkpt>
      <trkpt lat="46.6656" lon="6.06752">
        <ele>949.44</ele>
        <time>2015-05-14T12:15:34Z</time>
      </trkpt>
      <trkpt lat="46.66557" lon="6.06735">
        <ele>949.44</ele>
        <time>2015-05-14T12:15:51Z</time>
      </trkpt>
      <trkpt lat="46.66558" lon="6.0673">
        <ele>948</ele>
        <time>2015-05-14T12:16:02Z</time>
      </trkpt>
      <trkpt lat="46.66562" lon="6.06725">
        <ele>948</ele>
        <time>2015-05-14T12:16:23Z</time>
      </trkpt>
      <trkpt lat="46.66561" lon="6.06724">
        <ele>948</ele>
        <time>2015-05-14T12:16:38Z</time>
      </trkpt>
      <trkpt lat="46.6656" lon="6.06724">
        <ele>948</ele>
        <time>2015-05-14T12:16:51Z</time>
      </trkpt>
      <trkpt lat="46.66556" lon="6.0672">
        <ele>948</ele>
        <time>2015-05-14T12:16:56Z</time>
      </trkpt>
      <trkpt lat="46.66551" lon="6.06711">
        <ele>949.44</ele>
        <time>2015-05-14T12:17:02Z</time>
      </trkpt>
      <trkpt lat="46.66548" lon="6.06693">
        <ele>948</ele>
        <time>2015-05-14T12:17:13Z</time>
      </trkpt>
      <trkpt lat="46.66543" lon="6.06675">
        <ele>947.04</ele>
        <time>2015-05-14T12:17:25Z</time>
      </trkpt>
      <trkpt lat="46.66542" lon="6.06669">
        <ele>946.56</ele>
        <time>2015-05-14T12:17:29Z</time>
      </trkpt>
      <trkpt lat="46.66535" lon="6.06635">
        <ele>943.67</ele>
        <time>2015-05-14T12:17:50Z</time>
      </trkpt>
      <trkpt lat="46.66534" lon="6.06628">
        <ele>943.67</ele>
        <time>2015-05-14T12:17:54Z</time>
      </trkpt>
      <trkpt lat="46.66533" lon="6.06624">
        <ele>943.67</ele>
        <time>2015-05-14T12:17:56Z</time>
      </trkpt>
      <trkpt lat="46.66532" lon="6.06599">
        <ele>943.19</ele>
        <time>2015-05-14T12:18:13Z</time>
      </trkpt>
      <trkpt lat="46.66528" lon="6.06572">
        <ele>944.15</ele>
        <time>2015-05-14T12:18:29Z</time>
      </trkpt>
      <trkpt lat="46.66528" lon="6.06571">
        <ele>944.15</ele>
        <time>2015-05-14T12:18:30Z</time>
      </trkpt>
      <trkpt lat="46.66525" lon="6.06544">
        <ele>946.07</ele>
        <time>2015-05-14T12:18:48Z</time>
      </trkpt>
      <trkpt lat="46.66524" lon="6.06533">
        <ele>946.56</ele>
        <time>2015-05-14T12:18:54Z</time>
      </trkpt>
      <trkpt lat="46.6652" lon="6.06502">
        <ele>947.52</ele>
        <time>2015-05-14T12:19:12Z</time>
      </trkpt>
      <trkpt lat="46.66512" lon="6.0647">
        <ele>948</ele>
        <time>2015-05-14T12:19:30Z</time>
      </trkpt>
      <trkpt lat="46.6651" lon="6.06461">
        <ele>948.96</ele>
        <time>2015-05-14T12:19:36Z</time>
      </trkpt>
      <trkpt lat="46.66508" lon="6.06453">
        <ele>947.52</ele>
        <time>2015-05-14T12:19:40Z</time>
      </trkpt>
      <trkpt lat="46.66498" lon="6.06422">
        <ele>947.04</ele>
        <time>2015-05-14T12:19:58Z</time>
      </trkpt>
      <trkpt lat="46.6649" lon="6.06397">
        <ele>946.07</ele>
        <time>2015-05-14T12:20:15Z</time>
      </trkpt>
      <trkpt lat="46.66487" lon="6.06386">
        <ele>946.07</ele>
        <time>2015-05-14T12:20:28Z</time>
      </trkpt>
      <trkpt lat="46.66483" lon="6.06365">
        <ele>947.52</ele>
        <time>2015-05-14T12:20:44Z</time>
      </trkpt>
      <trkpt lat="46.66482" lon="6.06357">
        <ele>948</ele>
        <time>2015-05-14T12:20:56Z</time>
      </trkpt>
      <trkpt lat="46.66481" lon="6.06353">
        <ele>947.52</ele>
        <time>2015-05-14T12:21:10Z</time>
      </trkpt>
      <trkpt lat="46.66479" lon="6.06352">
        <ele>947.52</ele>
        <time>2015-05-14T12:21:28Z</time>
      </trkpt>
      <trkpt lat="46.66472" lon="6.06341">
        <ele>946.56</ele>
        <time>2015-05-14T12:21:41Z</time>
      </trkpt>
      <trkpt lat="46.66464" lon="6.06324">
        <ele>946.07</ele>
        <time>2015-05-14T12:21:58Z</time>
      </trkpt>
      <trkpt lat="46.66459" lon="6.06315">
        <ele>945.59</ele>
        <time>2015-05-14T12:22:18Z</time>
      </trkpt>
      <trkpt lat="46.66459" lon="6.06309">
        <ele>945.59</ele>
        <time>2015-05-14T12:22:33Z</time>
      </trkpt>
      <trkpt lat="46.66457" lon="6.06308">
        <ele>945.59</ele>
        <time>2015-05-14T12:22:49Z</time>
      </trkpt>
      <trkpt lat="46.66454" lon="6.06301">
        <ele>946.56</ele>
        <time>2015-05-14T12:23:06Z</time>
      </trkpt>
      <trkpt lat="46.66455" lon="6.06304">
        <ele>946.56</ele>
        <time>2015-05-14T12:23:17Z</time>
      </trkpt>
      <trkpt lat="46.66454" lon="6.06304">
        <ele>946.56</ele>
        <time>2015-05-14T12:23:31Z</time>
      </trkpt>
      <trkpt lat="46.66455" lon="6.06302">
        <ele>946.56</ele>
        <time>2015-05-14T12:23:45Z</time>
      </trkpt>
      <trkpt lat="46.66461" lon="6.06303">
        <ele>947.52</ele>
        <time>2015-05-14T12:23:55Z</time>
      </trkpt>
      <trkpt lat="46.66471" lon="6.063">
        <ele>948.96</ele>
        <time>2015-05-14T12:24:12Z</time>
      </trkpt>
      <trkpt lat="46.66476" lon="6.06298">
        <ele>949.44</ele>
        <time>2015-05-14T12:24:26Z</time>
      </trkpt>
      <trkpt lat="46.66478" lon="6.06294">
        <ele>950.88</ele>
        <time>2015-05-14T12:24:40Z</time>
      </trkpt>
      <trkpt lat="46.66486" lon="6.06278">
        <ele>953.28</ele>
        <time>2015-05-14T12:24:58Z</time>
      </trkpt>
      <trkpt lat="46.66495" lon="6.06274">
        <ele>955.69</ele>
        <time>2015-05-14T12:25:13Z</time>
      </trkpt>
      <trkpt lat="46.66508" lon="6.06274">
        <ele>958.09</ele>
        <time>2015-05-14T12:25:28Z</time>
      </trkpt>
      <trkpt lat="46.6652" lon="6.06276">
        <ele>960.01</ele>
        <time>2015-05-14T12:25:44Z</time>
      </trkpt>
      <trkpt lat="46.66523" lon="6.06278">
        <ele>960.98</ele>
        <time>2015-05-14T12:25:58Z</time>
      </trkpt>
      <trkpt lat="46.66522" lon="6.06273">
        <ele>960.49</ele>
        <time>2015-05-14T12:26:14Z</time>
      </trkpt>
      <trkpt lat="46.66521" lon="6.06269">
        <ele>961.94</ele>
        <time>2015-05-14T12:26:27Z</time>
      </trkpt>
      <trkpt lat="46.6652" lon="6.06255">
        <ele>963.86</ele>
        <time>2015-05-14T12:26:41Z</time>
      </trkpt>
      <trkpt lat="46.6652" lon="6.06245">
        <ele>965.3</ele>
        <time>2015-05-14T12:26:49Z</time>
      </trkpt>
      <trkpt lat="46.66515" lon="6.06225">
        <ele>968.18</ele>
        <time>2015-05-14T12:27:06Z</time>
      </trkpt>
      <trkpt lat="46.6651" lon="6.0621">
        <ele>971.07</ele>
        <time>2015-05-14T12:27:21Z</time>
      </trkpt>
      <trkpt lat="46.66507" lon="6.06199">
        <ele>972.99</ele>
        <time>2015-05-14T12:27:35Z</time>
      </trkpt>
      <trkpt lat="46.66503" lon="6.06184">
        <ele>975.39</ele>
        <time>2015-05-14T12:27:53Z</time>
      </trkpt>
      <trkpt lat="46.665" lon="6.06173">
        <ele>977.32</ele>
        <time>2015-05-14T12:28:07Z</time>
      </trkpt>
      <trkpt lat="46.66495" lon="6.06158">
        <ele>979.72</ele>
        <time>2015-05-14T12:28:22Z</time>
      </trkpt>
      <trkpt lat="46.66488" lon="6.06137">
        <ele>981.64</ele>
        <time>2015-05-14T12:28:40Z</time>
      </trkpt>
      <trkpt lat="46.66481" lon="6.06121">
        <ele>984.05</ele>
        <time>2015-05-14T12:28:57Z</time>
      </trkpt>
      <trkpt lat="46.66481" lon="6.06108">
        <ele>985.49</ele>
        <time>2015-05-14T12:29:11Z</time>
      </trkpt>
      <trkpt lat="46.66489" lon="6.06101">
        <ele>987.41</ele>
        <time>2015-05-14T12:29:28Z</time>
      </trkpt>
      <trkpt lat="46.66493" lon="6.06102">
        <ele>987.41</ele>
        <time>2015-05-14T12:29:43Z</time>
      </trkpt>
      <trkpt lat="46.66492" lon="6.06099">
        <ele>987.41</ele>
        <time>2015-05-14T12:29:58Z</time>
      </trkpt>
      <trkpt lat="46.66491" lon="6.06101">
        <ele>987.41</ele>
        <time>2015-05-14T12:30:16Z</time>
      </trkpt>
      <trkpt lat="46.6649" lon="6.06101">
        <ele>987.89</ele>
        <time>2015-05-14T12:30:32Z</time>
      </trkpt>
      <trkpt lat="46.66488" lon="6.06105">
        <ele>987.89</ele>
        <time>2015-05-14T12:30:48Z</time>
      </trkpt>
      <trkpt lat="46.66487" lon="6.06105">
        <ele>986.45</ele>
        <time>2015-05-14T12:30:51Z</time>
      </trkpt>
      <trkpt lat="46.66487" lon="6.06102">
        <ele>987.41</ele>
        <time>2015-05-14T12:31:12Z</time>
      </trkpt>
      <trkpt lat="46.66486" lon="6.06103">
        <ele>987.41</ele>
        <time>2015-05-14T12:31:36Z</time>
      </trkpt>
      <trkpt lat="46.66486" lon="6.06102">
        <ele>987.41</ele>
        <time>2015-05-14T12:31:56Z</time>
      </trkpt>
      <trkpt lat="46.66486" lon="6.06103">
        <ele>987.41</ele>
        <time>2015-05-14T12:32:12Z</time>
      </trkpt>
      <trkpt lat="46.66488" lon="6.061">
        <ele>987.41</ele>
        <time>2015-05-14T12:32:27Z</time>
      </trkpt>
      <trkpt lat="46.66489" lon="6.06101">
        <ele>987.41</ele>
        <time>2015-05-14T12:32:48Z</time>
      </trkpt>
      <trkpt lat="46.66491" lon="6.06092">
        <ele>987.41</ele>
        <time>2015-05-14T12:33:04Z</time>
      </trkpt>
      <trkpt lat="46.66487" lon="6.06075">
        <ele>988.37</ele>
        <time>2015-05-14T12:33:19Z</time>
      </trkpt>
      <trkpt lat="46.66483" lon="6.06062">
        <ele>990.3</ele>
        <time>2015-05-14T12:33:33Z</time>
      </trkpt>
      <trkpt lat="46.66475" lon="6.0604">
        <ele>992.7</ele>
        <time>2015-05-14T12:33:48Z</time>
      </trkpt>
      <trkpt lat="46.66471" lon="6.06024">
        <ele>994.14</ele>
        <time>2015-05-14T12:34:01Z</time>
      </trkpt>
      <trkpt lat="46.66465" lon="6.05998">
        <ele>997.02</ele>
        <time>2015-05-14T12:34:20Z</time>
      </trkpt>
      <trkpt lat="46.66461" lon="6.05981">
        <ele>1000.39</ele>
        <time>2015-05-14T12:34:36Z</time>
      </trkpt>
      <trkpt lat="46.66461" lon="6.05969">
        <ele>1002.31</ele>
        <time>2015-05-14T12:34:49Z</time>
      </trkpt>
      <trkpt lat="46.66458" lon="6.05952">
        <ele>1005.68</ele>
        <time>2015-05-14T12:35:02Z</time>
      </trkpt>
      <trkpt lat="46.66455" lon="6.05938">
        <ele>1008.08</ele>
        <time>2015-05-14T12:35:19Z</time>
      </trkpt>
      <trkpt lat="46.66456" lon="6.05925">
        <ele>1010.48</ele>
        <time>2015-05-14T12:35:35Z</time>
      </trkpt>
      <trkpt lat="46.66454" lon="6.0591">
        <ele>1012.89</ele>
        <time>2015-05-14T12:35:52Z</time>
      </trkpt>
      <trkpt lat="46.66455" lon="6.05899">
        <ele>1016.25</ele>
        <time>2015-05-14T12:36:08Z</time>
      </trkpt>
      <trkpt lat="46.66455" lon="6.05886">
        <ele>1018.65</ele>
        <time>2015-05-14T12:36:22Z</time>
      </trkpt>
      <trkpt lat="46.66455" lon="6.05872">
        <ele>1020.58</ele>
        <time>2015-05-14T12:36:37Z</time>
      </trkpt>
      <trkpt lat="46.66455" lon="6.05857">
        <ele>1023.46</ele>
        <time>2015-05-14T12:36:51Z</time>
      </trkpt>
      <trkpt lat="46.66457" lon="6.05838">
        <ele>1026.34</ele>
        <time>2015-05-14T12:37:08Z</time>
      </trkpt>
      <trkpt lat="46.66456" lon="6.05822">
        <ele>1028.27</ele>
        <time>2015-05-14T12:37:25Z</time>
      </trkpt>
      <trkpt lat="46.66453" lon="6.05815">
        <ele>1029.23</ele>
        <time>2015-05-14T12:37:41Z</time>
      </trkpt>
      <trkpt lat="46.66453" lon="6.05809">
        <ele>1030.19</ele>
        <time>2015-05-14T12:37:58Z</time>
      </trkpt>
      <trkpt lat="46.66453" lon="6.05811">
        <ele>1030.19</ele>
        <time>2015-05-14T12:38:16Z</time>
      </trkpt>
      <trkpt lat="46.66455" lon="6.05801">
        <ele>1031.15</ele>
        <time>2015-05-14T12:38:32Z</time>
      </trkpt>
      <trkpt lat="46.66458" lon="6.05793">
        <ele>1031.63</ele>
        <time>2015-05-14T12:38:45Z</time>
      </trkpt>
      <trkpt lat="46.66466" lon="6.05787">
        <ele>1033.55</ele>
        <time>2015-05-14T12:39:01Z</time>
      </trkpt>
      <trkpt lat="46.66471" lon="6.05784">
        <ele>1035</ele>
        <time>2015-05-14T12:39:16Z</time>
      </trkpt>
      <trkpt lat="46.66472" lon="6.05784">
        <ele>1035</ele>
        <time>2015-05-14T12:39:29Z</time>
      </trkpt>
      <trkpt lat="46.66471" lon="6.05782">
        <ele>1035</ele>
        <time>2015-05-14T12:39:44Z</time>
      </trkpt>
      <trkpt lat="46.66473" lon="6.05781">
        <ele>1035</ele>
        <time>2015-05-14T12:40:01Z</time>
      </trkpt>
      <trkpt lat="46.66471" lon="6.05782">
        <ele>1035.48</ele>
        <time>2015-05-14T12:40:16Z</time>
      </trkpt>
      <trkpt lat="46.66474" lon="6.05779">
        <ele>1034.04</ele>
        <time>2015-05-14T12:40:28Z</time>
      </trkpt>
      <trkpt lat="46.66476" lon="6.05769">
        <ele>1034.04</ele>
        <time>2015-05-14T12:40:49Z</time>
      </trkpt>
      <trkpt lat="46.66475" lon="6.05767">
        <ele>1035.48</ele>
        <time>2015-05-14T12:40:53Z</time>
      </trkpt>
      <trkpt lat="46.66468" lon="6.05761">
        <ele>1035.48</ele>
        <time>2015-05-14T12:41:08Z</time>
      </trkpt>
      <trkpt lat="46.66466" lon="6.0575">
        <ele>1035.96</ele>
        <time>2015-05-14T12:41:21Z</time>
      </trkpt>
      <trkpt lat="46.66465" lon="6.0573">
        <ele>1035.96</ele>
        <time>2015-05-14T12:41:38Z</time>
      </trkpt>
      <trkpt lat="46.6647" lon="6.05713">
        <ele>1036.44</ele>
        <time>2015-05-14T12:41:55Z</time>
      </trkpt>
      <trkpt lat="46.66483" lon="6.05704">
        <ele>1036.44</ele>
        <time>2015-05-14T12:42:10Z</time>
      </trkpt>
      <trkpt lat="46.66491" lon="6.05699">
        <ele>1037.88</ele>
        <time>2015-05-14T12:42:29Z</time>
      </trkpt>
      <trkpt lat="46.66493" lon="6.05688">
        <ele>1038.36</ele>
        <time>2015-05-14T12:42:51Z</time>
      </trkpt>
      <trkpt lat="46.66496" lon="6.05692">
        <ele>1038.36</ele>
        <time>2015-05-14T12:43:08Z</time>
      </trkpt>
      <trkpt lat="46.66499" lon="6.0568">
        <ele>1038.36</ele>
        <time>2015-05-14T12:43:25Z</time>
      </trkpt>
      <trkpt lat="46.66509" lon="6.05674">
        <ele>1038.36</ele>
        <time>2015-05-14T12:43:43Z</time>
      </trkpt>
      <trkpt lat="46.66514" lon="6.05665">
        <ele>1039.32</ele>
        <time>2015-05-14T12:44:00Z</time>
      </trkpt>
      <trkpt lat="46.66521" lon="6.05655">
        <ele>1040.76</ele>
        <time>2015-05-14T12:44:19Z</time>
      </trkpt>
      <trkpt lat="46.66522" lon="6.05638">
        <ele>1042.69</ele>
        <time>2015-05-14T12:44:36Z</time>
      </trkpt>
      <trkpt lat="46.6652" lon="6.05622">
        <ele>1043.65</ele>
        <time>2015-05-14T12:44:53Z</time>
      </trkpt>
      <trkpt lat="46.66516" lon="6.05615">
        <ele>1042.21</ele>
        <time>2015-05-14T12:45:04Z</time>
      </trkpt>
      <trkpt lat="46.66509" lon="6.05596">
        <ele>1040.28</ele>
        <time>2015-05-14T12:45:18Z</time>
      </trkpt>
      <trkpt lat="46.66506" lon="6.05587">
        <ele>1041.73</ele>
        <time>2015-05-14T12:45:28Z</time>
      </trkpt>
      <trkpt lat="46.66501" lon="6.05586">
        <ele>1042.69</ele>
        <time>2015-05-14T12:45:42Z</time>
      </trkpt>
      <trkpt lat="46.66496" lon="6.05582">
        <ele>1042.21</ele>
        <time>2015-05-14T12:45:59Z</time>
      </trkpt>
      <trkpt lat="46.66498" lon="6.0558">
        <ele>1042.69</ele>
        <time>2015-05-14T12:46:17Z</time>
      </trkpt>
      <trkpt lat="46.66497" lon="6.05569">
        <ele>1041.73</ele>
        <time>2015-05-14T12:46:33Z</time>
      </trkpt>
      <trkpt lat="46.66496" lon="6.05558">
        <ele>1041.25</ele>
        <time>2015-05-14T12:46:47Z</time>
      </trkpt>
      <trkpt lat="46.66493" lon="6.05545">
        <ele>1041.25</ele>
        <time>2015-05-14T12:47:01Z</time>
      </trkpt>
      <trkpt lat="46.66497" lon="6.05543">
        <ele>1042.21</ele>
        <time>2015-05-14T12:47:17Z</time>
      </trkpt>
      <trkpt lat="46.66494" lon="6.0554">
        <ele>1040.76</ele>
        <time>2015-05-14T12:47:29Z</time>
      </trkpt>
      <trkpt lat="46.6649" lon="6.05538">
        <ele>1040.28</ele>
        <time>2015-05-14T12:47:52Z</time>
      </trkpt>
      <trkpt lat="46.6649" lon="6.05541">
        <ele>1040.28</ele>
        <time>2015-05-14T12:48:07Z</time>
      </trkpt>
      <trkpt lat="46.66482" lon="6.05535">
        <ele>1039.8</ele>
        <time>2015-05-14T12:48:23Z</time>
      </trkpt>
      <trkpt lat="46.6648" lon="6.05518">
        <ele>1038.84</ele>
        <time>2015-05-14T12:48:38Z</time>
      </trkpt>
      <trkpt lat="46.66481" lon="6.05514">
        <ele>1038.84</ele>
        <time>2015-05-14T12:48:58Z</time>
      </trkpt>
      <trkpt lat="46.66476" lon="6.05498">
        <ele>1040.28</ele>
        <time>2015-05-14T12:49:14Z</time>
      </trkpt>
      <trkpt lat="46.66483" lon="6.05485">
        <ele>1042.21</ele>
        <time>2015-05-14T12:49:29Z</time>
      </trkpt>
      <trkpt lat="46.66494" lon="6.05469">
        <ele>1042.69</ele>
        <time>2015-05-14T12:49:45Z</time>
      </trkpt>
      <trkpt lat="46.66494" lon="6.05467">
        <ele>1043.17</ele>
        <time>2015-05-14T12:49:47Z</time>
      </trkpt>
      <trkpt lat="46.66493" lon="6.05453">
        <ele>1044.61</ele>
        <time>2015-05-14T12:50:03Z</time>
      </trkpt>
      <trkpt lat="46.6649" lon="6.05439">
        <ele>1043.17</ele>
        <time>2015-05-14T12:50:18Z</time>
      </trkpt>
      <trkpt lat="46.66481" lon="6.05422">
        <ele>1041.73</ele>
        <time>2015-05-14T12:50:37Z</time>
      </trkpt>
      <trkpt lat="46.66471" lon="6.05406">
        <ele>1042.21</ele>
        <time>2015-05-14T12:50:51Z</time>
      </trkpt>
      <trkpt lat="46.66463" lon="6.05389">
        <ele>1044.13</ele>
        <time>2015-05-14T12:51:08Z</time>
      </trkpt>
      <trkpt lat="46.66462" lon="6.05385">
        <ele>1042.69</ele>
        <time>2015-05-14T12:51:11Z</time>
      </trkpt>
      <trkpt lat="46.66458" lon="6.05374">
        <ele>1044.13</ele>
        <time>2015-05-14T12:51:25Z</time>
      </trkpt>
      <trkpt lat="46.66451" lon="6.0536">
        <ele>1045.09</ele>
        <time>2015-05-14T12:51:41Z</time>
      </trkpt>
      <trkpt lat="46.66449" lon="6.05354">
        <ele>1045.57</ele>
        <time>2015-05-14T12:51:56Z</time>
      </trkpt>
      <trkpt lat="46.66445" lon="6.05343">
        <ele>1045.57</ele>
        <time>2015-05-14T12:52:11Z</time>
      </trkpt>
      <trkpt lat="46.66439" lon="6.05331">
        <ele>1046.05</ele>
        <time>2015-05-14T12:52:26Z</time>
      </trkpt>
      <trkpt lat="46.66438" lon="6.05326">
        <ele>1044.61</ele>
        <time>2015-05-14T12:52:33Z</time>
      </trkpt>
      <trkpt lat="46.66436" lon="6.05311">
        <ele>1043.17</ele>
        <time>2015-05-14T12:52:46Z</time>
      </trkpt>
      <trkpt lat="46.6643" lon="6.05294">
        <ele>1045.09</ele>
        <time>2015-05-14T12:53:01Z</time>
      </trkpt>
      <trkpt lat="46.66429" lon="6.05293">
        <ele>1045.09</ele>
        <time>2015-05-14T12:53:02Z</time>
      </trkpt>
      <trkpt lat="46.66417" lon="6.05273">
        <ele>1045.09</ele>
        <time>2015-05-14T12:53:21Z</time>
      </trkpt>
      <trkpt lat="46.66415" lon="6.05266">
        <ele>1043.65</ele>
        <time>2015-05-14T12:53:26Z</time>
      </trkpt>
      <trkpt lat="46.66412" lon="6.05255">
        <ele>1042.69</ele>
        <time>2015-05-14T12:53:34Z</time>
      </trkpt>
      <trkpt lat="46.66408" lon="6.05242">
        <ele>1042.21</ele>
        <time>2015-05-14T12:53:50Z</time>
      </trkpt>
      <trkpt lat="46.66406" lon="6.05235">
        <ele>1042.21</ele>
        <time>2015-05-14T12:54:12Z</time>
      </trkpt>
      <trkpt lat="46.664" lon="6.05215">
        <ele>1041.73</ele>
        <time>2015-05-14T12:54:27Z</time>
      </trkpt>
      <trkpt lat="46.66394" lon="6.05211">
        <ele>1041.25</ele>
        <time>2015-05-14T12:54:42Z</time>
      </trkpt>
      <trkpt lat="46.66393" lon="6.05214">
        <ele>1041.73</ele>
        <time>2015-05-14T12:55:03Z</time>
      </trkpt>
      <trkpt lat="46.66385" lon="6.05223">
        <ele>1038.84</ele>
        <time>2015-05-14T12:55:20Z</time>
      </trkpt>
      <trkpt lat="46.6638" lon="6.05231">
        <ele>1034.04</ele>
        <time>2015-05-14T12:55:30Z</time>
      </trkpt>
      <trkpt lat="46.66379" lon="6.05232">
        <ele>1039.8</ele>
        <time>2015-05-14T12:55:31Z</time>
      </trkpt>
      <trkpt lat="46.66379" lon="6.05233">
        <ele>1036.44</ele>
        <time>2015-05-14T12:55:34Z</time>
      </trkpt>
      <trkpt lat="46.66373" lon="6.05231">
        <ele>1035.96</ele>
        <time>2015-05-14T12:55:53Z</time>
      </trkpt>
      <trkpt lat="46.66371" lon="6.05218">
        <ele>1035.96</ele>
        <time>2015-05-14T12:56:09Z</time>
      </trkpt>
      <trkpt lat="46.66368" lon="6.0521">
        <ele>1035.96</ele>
        <time>2015-05-14T12:56:29Z</time>
      </trkpt>
      <trkpt lat="46.66369" lon="6.05191">
        <ele>1037.4</ele>
        <time>2015-05-14T12:56:46Z</time>
      </trkpt>
      <trkpt lat="46.66372" lon="6.05177">
        <ele>1039.8</ele>
        <time>2015-05-14T12:57:03Z</time>
      </trkpt>
      <trkpt lat="46.6638" lon="6.0516">
        <ele>1041.25</ele>
        <time>2015-05-14T12:57:19Z</time>
      </trkpt>
      <trkpt lat="46.66382" lon="6.05157">
        <ele>1041.25</ele>
        <time>2015-05-14T12:57:22Z</time>
      </trkpt>
      <trkpt lat="46.66385" lon="6.05153">
        <ele>1039.8</ele>
        <time>2015-05-14T12:57:25Z</time>
      </trkpt>
      <trkpt lat="46.66397" lon="6.05139">
        <ele>1040.76</ele>
        <time>2015-05-14T12:57:39Z</time>
      </trkpt>
      <trkpt lat="46.66403" lon="6.05135">
        <ele>1040.76</ele>
        <time>2015-05-14T12:57:45Z</time>
      </trkpt>
      <trkpt lat="46.66419" lon="6.05129">
        <ele>1040.76</ele>
        <time>2015-05-14T12:58:02Z</time>
      </trkpt>
      <trkpt lat="46.66422" lon="6.05124">
        <ele>1041.25</ele>
        <time>2015-05-14T12:58:20Z</time>
      </trkpt>
      <trkpt lat="46.66423" lon="6.05125">
        <ele>1041.25</ele>
        <time>2015-05-14T12:58:35Z</time>
      </trkpt>
      <trkpt lat="46.66425" lon="6.05115">
        <ele>1041.25</ele>
        <time>2015-05-14T12:59:01Z</time>
      </trkpt>
      <trkpt lat="46.66423" lon="6.05122">
        <ele>1040.28</ele>
        <time>2015-05-14T12:59:24Z</time>
      </trkpt>
      <trkpt lat="46.66424" lon="6.05123">
        <ele>1041.73</ele>
        <time>2015-05-14T12:59:38Z</time>
      </trkpt>
      <trkpt lat="46.66425" lon="6.0512">
        <ele>1042.21</ele>
        <time>2015-05-14T12:59:57Z</time>
      </trkpt>
      <trkpt lat="46.66427" lon="6.05116">
        <ele>1042.21</ele>
        <time>2015-05-14T13:00:15Z</time>
      </trkpt>
      <trkpt lat="46.66423" lon="6.05118">
        <ele>1042.21</ele>
        <time>2015-05-14T13:00:38Z</time>
      </trkpt>
      <trkpt lat="46.66424" lon="6.05118">
        <ele>1040.76</ele>
        <time>2015-05-14T13:00:40Z</time>
      </trkpt>
      <trkpt lat="46.66423" lon="6.05112">
        <ele>1040.28</ele>
        <time>2015-05-14T13:00:52Z</time>
      </trkpt>
      <trkpt lat="46.66422" lon="6.05104">
        <ele>1039.32</ele>
        <time>2015-05-14T13:01:08Z</time>
      </trkpt>
      <trkpt lat="46.6642" lon="6.05089">
        <ele>1037.4</ele>
        <time>2015-05-14T13:01:25Z</time>
      </trkpt>
      <trkpt lat="46.66415" lon="6.05072">
        <ele>1035</ele>
        <time>2015-05-14T13:01:42Z</time>
      </trkpt>
      <trkpt lat="46.66409" lon="6.05053">
        <ele>1034.04</ele>
        <time>2015-05-14T13:01:59Z</time>
      </trkpt>
      <trkpt lat="46.66402" lon="6.05033">
        <ele>1033.55</ele>
        <time>2015-05-14T13:02:13Z</time>
      </trkpt>
      <trkpt lat="46.66402" lon="6.05025">
        <ele>1033.55</ele>
        <time>2015-05-14T13:02:34Z</time>
      </trkpt>
      <trkpt lat="46.66398" lon="6.05012">
        <ele>1033.07</ele>
        <time>2015-05-14T13:02:50Z</time>
      </trkpt>
      <trkpt lat="46.66393" lon="6.04999">
        <ele>1032.59</ele>
        <time>2015-05-14T13:03:04Z</time>
      </trkpt>
      <trkpt lat="46.66385" lon="6.04975">
        <ele>1032.11</ele>
        <time>2015-05-14T13:03:20Z</time>
      </trkpt>
      <trkpt lat="46.6638" lon="6.04951">
        <ele>1031.63</ele>
        <time>2015-05-14T13:03:36Z</time>
      </trkpt>
      <trkpt lat="46.66371" lon="6.04923">
        <ele>1029.71</ele>
        <time>2015-05-14T13:03:54Z</time>
      </trkpt>
      <trkpt lat="46.6637" lon="6.04908">
        <ele>1029.71</ele>
        <time>2015-05-14T13:04:07Z</time>
      </trkpt>
      <trkpt lat="46.66372" lon="6.04884">
        <ele>1027.79</ele>
        <time>2015-05-14T13:04:27Z</time>
      </trkpt>
      <trkpt lat="46.66367" lon="6.04859">
        <ele>1028.27</ele>
        <time>2015-05-14T13:04:43Z</time>
      </trkpt>
      <trkpt lat="46.66366" lon="6.04839">
        <ele>1028.27</ele>
        <time>2015-05-14T13:04:59Z</time>
      </trkpt>
      <trkpt lat="46.66363" lon="6.04825">
        <ele>1028.27</ele>
        <time>2015-05-14T13:05:13Z</time>
      </trkpt>
      <trkpt lat="46.6635" lon="6.04799">
        <ele>1029.71</ele>
        <time>2015-05-14T13:05:30Z</time>
      </trkpt>
      <trkpt lat="46.66345" lon="6.04783">
        <ele>1031.63</ele>
        <time>2015-05-14T13:05:45Z</time>
      </trkpt>
      <trkpt lat="46.66339" lon="6.04762">
        <ele>1033.55</ele>
        <time>2015-05-14T13:06:02Z</time>
      </trkpt>
      <trkpt lat="46.66335" lon="6.04754">
        <ele>1033.55</ele>
        <time>2015-05-14T13:06:08Z</time>
      </trkpt>
      <trkpt lat="46.66329" lon="6.04732">
        <ele>1033.55</ele>
        <time>2015-05-14T13:06:24Z</time>
      </trkpt>
      <trkpt lat="46.66324" lon="6.04712">
        <ele>1034.04</ele>
        <time>2015-05-14T13:06:41Z</time>
      </trkpt>
      <trkpt lat="46.66318" lon="6.04696">
        <ele>1035.48</ele>
        <time>2015-05-14T13:06:56Z</time>
      </trkpt>
      <trkpt lat="46.66303" lon="6.04664">
        <ele>1036.92</ele>
        <time>2015-05-14T13:07:16Z</time>
      </trkpt>
      <trkpt lat="46.66297" lon="6.04647">
        <ele>1036.92</ele>
        <time>2015-05-14T13:07:30Z</time>
      </trkpt>
      <trkpt lat="46.66293" lon="6.04631">
        <ele>1037.88</ele>
        <time>2015-05-14T13:07:44Z</time>
      </trkpt>
      <trkpt lat="46.66287" lon="6.04617">
        <ele>1039.32</ele>
        <time>2015-05-14T13:07:58Z</time>
      </trkpt>
      <trkpt lat="46.66282" lon="6.04598">
        <ele>1040.28</ele>
        <time>2015-05-14T13:08:14Z</time>
      </trkpt>
      <trkpt lat="46.66273" lon="6.04574">
        <ele>1041.25</ele>
        <time>2015-05-14T13:08:28Z</time>
      </trkpt>
      <trkpt lat="46.66268" lon="6.04555">
        <ele>1042.69</ele>
        <time>2015-05-14T13:08:41Z</time>
      </trkpt>
      <trkpt lat="46.6626" lon="6.04538">
        <ele>1045.57</ele>
        <time>2015-05-14T13:08:59Z</time>
      </trkpt>
      <trkpt lat="46.66256" lon="6.04524">
        <ele>1046.53</ele>
        <time>2015-05-14T13:09:14Z</time>
      </trkpt>
      <trkpt lat="46.66249" lon="6.04507">
        <ele>1046.53</ele>
        <time>2015-05-14T13:09:29Z</time>
      </trkpt>
      <trkpt lat="46.66243" lon="6.04486">
        <ele>1045.09</ele>
        <time>2015-05-14T13:09:45Z</time>
      </trkpt>
      <trkpt lat="46.66234" lon="6.04475">
        <ele>1044.13</ele>
        <time>2015-05-14T13:09:59Z</time>
      </trkpt>
      <trkpt lat="46.66232" lon="6.04474">
        <ele>1045.57</ele>
        <time>2015-05-14T13:10:03Z</time>
      </trkpt>
      <trkpt lat="46.66223" lon="6.04459">
        <ele>1047.01</ele>
        <time>2015-05-14T13:10:19Z</time>
      </trkpt>
      <trkpt lat="46.66221" lon="6.04445">
        <ele>1047.49</ele>
        <time>2015-05-14T13:10:32Z</time>
      </trkpt>
      <trkpt lat="46.66215" lon="6.04428">
        <ele>1047.49</ele>
        <time>2015-05-14T13:10:45Z</time>
      </trkpt>
      <trkpt lat="46.66213" lon="6.0441">
        <ele>1047.01</ele>
        <time>2015-05-14T13:10:57Z</time>
      </trkpt>
      <trkpt lat="46.66219" lon="6.04413">
        <ele>1047.01</ele>
        <time>2015-05-14T13:11:11Z</time>
      </trkpt>
      <trkpt lat="46.66219" lon="6.04413">
        <ele>1047.01</ele>
        <time>2015-05-14T13:11:21Z</time>
      </trkpt>
      <trkpt lat="46.6622" lon="6.0441">
        <ele>1045.57</ele>
        <time>2015-05-14T13:11:36Z</time>
      </trkpt>
      <trkpt lat="46.66213" lon="6.04404">
        <ele>1045.57</ele>
        <time>2015-05-14T13:11:53Z</time>
      </trkpt>
      <trkpt lat="46.66209" lon="6.044">
        <ele>1045.57</ele>
        <time>2015-05-14T13:12:07Z</time>
      </trkpt>
      <trkpt lat="46.66208" lon="6.044">
        <ele>1047.49</ele>
        <time>2015-05-14T13:12:11Z</time>
      </trkpt>
      <trkpt lat="46.66207" lon="6.04393">
        <ele>1047.01</ele>
        <time>2015-05-14T13:12:31Z</time>
      </trkpt>
      <trkpt lat="46.66209" lon="6.04391">
        <ele>1046.05</ele>
        <time>2015-05-14T13:12:50Z</time>
      </trkpt>
      <trkpt lat="46.66208" lon="6.04388">
        <ele>1046.05</ele>
        <time>2015-05-14T13:13:11Z</time>
      </trkpt>
      <trkpt lat="46.66205" lon="6.04388">
        <ele>1045.57</ele>
        <time>2015-05-14T13:13:37Z</time>
      </trkpt>
      <trkpt lat="46.66205" lon="6.04388">
        <ele>1047.01</ele>
        <time>2015-05-14T13:13:56Z</time>
      </trkpt>
      <trkpt lat="46.66204" lon="6.04389">
        <ele>1047.01</ele>
        <time>2015-05-14T13:13:57Z</time>
      </trkpt>
      <trkpt lat="46.66206" lon="6.04389">
        <ele>1047.01</ele>
        <time>2015-05-14T13:14:13Z</time>
      </trkpt>
      <trkpt lat="46.66206" lon="6.04392">
        <ele>1046.53</ele>
        <time>2015-05-14T13:14:30Z</time>
      </trkpt>
      <trkpt lat="46.66207" lon="6.04391">
        <ele>1046.05</ele>
        <time>2015-05-14T13:14:41Z</time>
      </trkpt>
      <trkpt lat="46.66207" lon="6.04393">
        <ele>1046.05</ele>
        <time>2015-05-14T13:14:58Z</time>
      </trkpt>
      <trkpt lat="46.66209" lon="6.04393">
        <ele>1047.01</ele>
        <time>2015-05-14T13:15:21Z</time>
      </trkpt>
      <trkpt lat="46.66208" lon="6.04391">
        <ele>1047.01</ele>
        <time>2015-05-14T13:15:41Z</time>
      </trkpt>
      <trkpt lat="46.6621" lon="6.0439">
        <ele>1047.49</ele>
        <time>2015-05-14T13:16:03Z</time>
      </trkpt>
      <trkpt lat="46.66209" lon="6.04397">
        <ele>1047.49</ele>
        <time>2015-05-14T13:16:25Z</time>
      </trkpt>
      <trkpt lat="46.66216" lon="6.0441">
        <ele>1047.49</ele>
        <time>2015-05-14T13:16:37Z</time>
      </trkpt>
      <trkpt lat="46.66218" lon="6.04408">
        <ele>1046.05</ele>
        <time>2015-05-14T13:16:58Z</time>
      </trkpt>
      <trkpt lat="46.66219" lon="6.04408">
        <ele>1047.97</ele>
        <time>2015-05-14T13:17:12Z</time>
      </trkpt>
      <trkpt lat="46.66217" lon="6.04405">
        <ele>1046.53</ele>
        <time>2015-05-14T13:17:28Z</time>
      </trkpt>
      <trkpt lat="46.66212" lon="6.04403">
        <ele>1046.53</ele>
        <time>2015-05-14T13:17:44Z</time>
      </trkpt>
      <trkpt lat="46.66208" lon="6.04396">
        <ele>1047.01</ele>
        <time>2015-05-14T13:18:05Z</time>
      </trkpt>
      <trkpt lat="46.66207" lon="6.04403">
        <ele>1047.97</ele>
        <time>2015-05-14T13:18:20Z</time>
      </trkpt>
      <trkpt lat="46.66209" lon="6.04414">
        <ele>1048.45</ele>
        <time>2015-05-14T13:18:37Z</time>
      </trkpt>
      <trkpt lat="46.66207" lon="6.04428">
        <ele>1048.45</ele>
        <time>2015-05-14T13:18:54Z</time>
      </trkpt>
      <trkpt lat="46.66213" lon="6.04432">
        <ele>1048.45</ele>
        <time>2015-05-14T13:19:12Z</time>
      </trkpt>
      <trkpt lat="46.66222" lon="6.04435">
        <ele>1048.45</ele>
        <time>2015-05-14T13:19:28Z</time>
      </trkpt>
      <trkpt lat="46.66219" lon="6.04453">
        <ele>1046.53</ele>
        <time>2015-05-14T13:19:47Z</time>
      </trkpt>
      <trkpt lat="46.66212" lon="6.04465">
        <ele>1045.09</ele>
        <time>2015-05-14T13:20:05Z</time>
      </trkpt>
      <trkpt lat="46.6621" lon="6.04465">
        <ele>1046.05</ele>
        <time>2015-05-14T13:20:10Z</time>
      </trkpt>
      <trkpt lat="46.66205" lon="6.04464">
        <ele>1048.45</ele>
        <time>2015-05-14T13:20:16Z</time>
      </trkpt>
      <trkpt lat="46.66198" lon="6.0447">
        <ele>1051.82</ele>
        <time>2015-05-14T13:20:31Z</time>
      </trkpt>
      <trkpt lat="46.66186" lon="6.04482">
        <ele>1054.22</ele>
        <time>2015-05-14T13:20:49Z</time>
      </trkpt>
      <trkpt lat="46.66177" lon="6.04493">
        <ele>1057.11</ele>
        <time>2015-05-14T13:21:06Z</time>
      </trkpt>
      <trkpt lat="46.66171" lon="6.04502">
        <ele>1057.59</ele>
        <time>2015-05-14T13:21:21Z</time>
      </trkpt>
      <trkpt lat="46.66167" lon="6.04503">
        <ele>1056.15</ele>
        <time>2015-05-14T13:21:27Z</time>
      </trkpt>
      <trkpt lat="46.66158" lon="6.04502">
        <ele>1053.74</ele>
        <time>2015-05-14T13:21:41Z</time>
      </trkpt>
      <trkpt lat="46.66152" lon="6.04494">
        <ele>1055.18</ele>
        <time>2015-05-14T13:21:53Z</time>
      </trkpt>
      <trkpt lat="46.66147" lon="6.04477">
        <ele>1058.07</ele>
        <time>2015-05-14T13:22:07Z</time>
      </trkpt>
      <trkpt lat="46.66142" lon="6.04456">
        <ele>1059.99</ele>
        <time>2015-05-14T13:22:21Z</time>
      </trkpt>
      <trkpt lat="46.66138" lon="6.04444">
        <ele>1060.95</ele>
        <time>2015-05-14T13:22:30Z</time>
      </trkpt>
      <trkpt lat="46.66129" lon="6.04424">
        <ele>1060.95</ele>
        <time>2015-05-14T13:22:45Z</time>
      </trkpt>
      <trkpt lat="46.6612" lon="6.04401">
        <ele>1060.95</ele>
        <time>2015-05-14T13:23:01Z</time>
      </trkpt>
      <trkpt lat="46.66109" lon="6.04374">
        <ele>1060.95</ele>
        <time>2015-05-14T13:23:18Z</time>
      </trkpt>
      <trkpt lat="46.66108" lon="6.04373">
        <ele>1060.95</ele>
        <time>2015-05-14T13:23:19Z</time>
      </trkpt>
      <trkpt lat="46.66098" lon="6.04353">
        <ele>1060.95</ele>
        <time>2015-05-14T13:23:35Z</time>
      </trkpt>
      <trkpt lat="46.66091" lon="6.04332">
        <ele>1061.91</ele>
        <time>2015-05-14T13:23:50Z</time>
      </trkpt>
      <trkpt lat="46.66083" lon="6.04309">
        <ele>1061.91</ele>
        <time>2015-05-14T13:24:06Z</time>
      </trkpt>
      <trkpt lat="46.6608" lon="6.04281">
        <ele>1062.39</ele>
        <time>2015-05-14T13:24:22Z</time>
      </trkpt>
      <trkpt lat="46.66076" lon="6.04265">
        <ele>1060.95</ele>
        <time>2015-05-14T13:24:31Z</time>
      </trkpt>
      <trkpt lat="46.66064" lon="6.04244">
        <ele>1060.47</ele>
        <time>2015-05-14T13:24:48Z</time>
      </trkpt>
      <trkpt lat="46.66054" lon="6.04223">
        <ele>1059.99</ele>
        <time>2015-05-14T13:25:05Z</time>
      </trkpt>
      <trkpt lat="46.66048" lon="6.04199">
        <ele>1059.51</ele>
        <time>2015-05-14T13:25:20Z</time>
      </trkpt>
      <trkpt lat="46.66043" lon="6.04179">
        <ele>1060.47</ele>
        <time>2015-05-14T13:25:32Z</time>
      </trkpt>
      <trkpt lat="46.66034" lon="6.04161">
        <ele>1062.39</ele>
        <time>2015-05-14T13:25:48Z</time>
      </trkpt>
      <trkpt lat="46.66031" lon="6.04156">
        <ele>1062.87</ele>
        <time>2015-05-14T13:25:53Z</time>
      </trkpt>
      <trkpt lat="46.66025" lon="6.04141">
        <ele>1062.87</ele>
        <time>2015-05-14T13:26:04Z</time>
      </trkpt>
      <trkpt lat="46.66021" lon="6.04127">
        <ele>1062.87</ele>
        <time>2015-05-14T13:26:14Z</time>
      </trkpt>
      <trkpt lat="46.66012" lon="6.04103">
        <ele>1062.87</ele>
        <time>2015-05-14T13:26:31Z</time>
      </trkpt>
      <trkpt lat="46.66006" lon="6.04076">
        <ele>1065.28</ele>
        <time>2015-05-14T13:26:48Z</time>
      </trkpt>
      <trkpt lat="46.65997" lon="6.04056">
        <ele>1067.2</ele>
        <time>2015-05-14T13:27:04Z</time>
      </trkpt>
      <trkpt lat="46.65992" lon="6.04034">
        <ele>1067.2</ele>
        <time>2015-05-14T13:27:19Z</time>
      </trkpt>
      <trkpt lat="46.65988" lon="6.04018">
        <ele>1065.76</ele>
        <time>2015-05-14T13:27:29Z</time>
      </trkpt>
      <trkpt lat="46.65983" lon="6.04007">
        <ele>1062.39</ele>
        <time>2015-05-14T13:27:43Z</time>
      </trkpt>
      <trkpt lat="46.65975" lon="6.03991">
        <ele>1060.95</ele>
        <time>2015-05-14T13:27:57Z</time>
      </trkpt>
      <trkpt lat="46.65967" lon="6.03971">
        <ele>1059.51</ele>
        <time>2015-05-14T13:28:12Z</time>
      </trkpt>
      <trkpt lat="46.65965" lon="6.03965">
        <ele>1060.95</ele>
        <time>2015-05-14T13:28:16Z</time>
      </trkpt>
      <trkpt lat="46.65956" lon="6.03943">
        <ele>1061.91</ele>
        <time>2015-05-14T13:28:31Z</time>
      </trkpt>
      <trkpt lat="46.65955" lon="6.03939">
        <ele>1061.91</ele>
        <time>2015-05-14T13:28:34Z</time>
      </trkpt>
      <trkpt lat="46.65951" lon="6.03923">
        <ele>1061.91</ele>
        <time>2015-05-14T13:28:46Z</time>
      </trkpt>
      <trkpt lat="46.65943" lon="6.03907">
        <ele>1062.39</ele>
        <time>2015-05-14T13:28:57Z</time>
      </trkpt>
      <trkpt lat="46.65932" lon="6.03883">
        <ele>1060.95</ele>
        <time>2015-05-14T13:29:15Z</time>
      </trkpt>
      <trkpt lat="46.6592" lon="6.03864">
        <ele>1059.51</ele>
        <time>2015-05-14T13:29:33Z</time>
      </trkpt>
      <trkpt lat="46.65908" lon="6.03855">
        <ele>1056.63</ele>
        <time>2015-05-14T13:29:48Z</time>
      </trkpt>
      <trkpt lat="46.65898" lon="6.03852">
        <ele>1054.22</ele>
        <time>2015-05-14T13:30:03Z</time>
      </trkpt>
      <trkpt lat="46.6589" lon="6.03847">
        <ele>1050.86</ele>
        <time>2015-05-14T13:30:19Z</time>
      </trkpt>
      <trkpt lat="46.65883" lon="6.03839">
        <ele>1047.97</ele>
        <time>2015-05-14T13:30:32Z</time>
      </trkpt>
      <trkpt lat="46.65873" lon="6.03827">
        <ele>1045.09</ele>
        <time>2015-05-14T13:30:47Z</time>
      </trkpt>
      <trkpt lat="46.65866" lon="6.03809">
        <ele>1042.21</ele>
        <time>2015-05-14T13:31:01Z</time>
      </trkpt>
      <trkpt lat="46.65859" lon="6.03795">
        <ele>1038.36</ele>
        <time>2015-05-14T13:31:15Z</time>
      </trkpt>
      <trkpt lat="46.65853" lon="6.03779">
        <ele>1035</ele>
        <time>2015-05-14T13:31:27Z</time>
      </trkpt>
      <trkpt lat="46.65845" lon="6.03754">
        <ele>1033.55</ele>
        <time>2015-05-14T13:31:42Z</time>
      </trkpt>
      <trkpt lat="46.65843" lon="6.03748">
        <ele>1033.07</ele>
        <time>2015-05-14T13:31:45Z</time>
      </trkpt>
      <trkpt lat="46.65833" lon="6.03733">
        <ele>1034.04</ele>
        <time>2015-05-14T13:32:00Z</time>
      </trkpt>
      <trkpt lat="46.65832" lon="6.03733">
        <ele>1034.04</ele>
        <time>2015-05-14T13:32:01Z</time>
      </trkpt>
      <trkpt lat="46.65824" lon="6.0372">
        <ele>1036.44</ele>
        <time>2015-05-14T13:32:16Z</time>
      </trkpt>
      <trkpt lat="46.6582" lon="6.03711">
        <ele>1036.92</ele>
        <time>2015-05-14T13:32:35Z</time>
      </trkpt>
      <trkpt lat="46.65815" lon="6.03692">
        <ele>1036.44</ele>
        <time>2015-05-14T13:32:53Z</time>
      </trkpt>
      <trkpt lat="46.65812" lon="6.03674">
        <ele>1034.04</ele>
        <time>2015-05-14T13:33:07Z</time>
      </trkpt>
      <trkpt lat="46.65812" lon="6.03657">
        <ele>1031.15</ele>
        <time>2015-05-14T13:33:21Z</time>
      </trkpt>
      <trkpt lat="46.65801" lon="6.03654">
        <ele>1030.19</ele>
        <time>2015-05-14T13:33:36Z</time>
      </trkpt>
      <trkpt lat="46.65805" lon="6.03656">
        <ele>1029.71</ele>
        <time>2015-05-14T13:33:59Z</time>
      </trkpt>
      <trkpt lat="46.65797" lon="6.03646">
        <ele>1032.11</ele>
        <time>2015-05-14T13:34:17Z</time>
      </trkpt>
      <trkpt lat="46.65787" lon="6.03625">
        <ele>1034.52</ele>
        <time>2015-05-14T13:34:31Z</time>
      </trkpt>
      <trkpt lat="46.65796" lon="6.03618">
        <ele>1036.92</ele>
        <time>2015-05-14T13:34:44Z</time>
      </trkpt>
      <trkpt lat="46.65802" lon="6.03608">
        <ele>1039.32</ele>
        <time>2015-05-14T13:34:57Z</time>
      </trkpt>
      <trkpt lat="46.65803" lon="6.03593">
        <ele>1039.8</ele>
        <time>2015-05-14T13:35:09Z</time>
      </trkpt>
      <trkpt lat="46.65794" lon="6.03574">
        <ele>1038.84</ele>
        <time>2015-05-14T13:35:25Z</time>
      </trkpt>
      <trkpt lat="46.65788" lon="6.03561">
        <ele>1035</ele>
        <time>2015-05-14T13:35:38Z</time>
      </trkpt>
      <trkpt lat="46.65784" lon="6.03543">
        <ele>1032.59</ele>
        <time>2015-05-14T13:35:50Z</time>
      </trkpt>
      <trkpt lat="46.65774" lon="6.03524">
        <ele>1031.63</ele>
        <time>2015-05-14T13:36:05Z</time>
      </trkpt>
      <trkpt lat="46.6577" lon="6.03519">
        <ele>1028.75</ele>
        <time>2015-05-14T13:36:15Z</time>
      </trkpt>
      <trkpt lat="46.65765" lon="6.03508">
        <ele>1025.38</ele>
        <time>2015-05-14T13:36:24Z</time>
      </trkpt>
      <trkpt lat="46.65757" lon="6.03505">
        <ele>1025.38</ele>
        <time>2015-05-14T13:36:38Z</time>
      </trkpt>
      <trkpt lat="46.65746" lon="6.035">
        <ele>1027.31</ele>
        <time>2015-05-14T13:36:57Z</time>
      </trkpt>
      <trkpt lat="46.65732" lon="6.03475">
        <ele>1029.71</ele>
        <time>2015-05-14T13:37:13Z</time>
      </trkpt>
      <trkpt lat="46.6572" lon="6.03463">
        <ele>1031.15</ele>
        <time>2015-05-14T13:37:29Z</time>
      </trkpt>
      <trkpt lat="46.65714" lon="6.03453">
        <ele>1031.15</ele>
        <time>2015-05-14T13:37:43Z</time>
      </trkpt>
      <trkpt lat="46.65705" lon="6.03436">
        <ele>1031.15</ele>
        <time>2015-05-14T13:38:00Z</time>
      </trkpt>
      <trkpt lat="46.65693" lon="6.0342">
        <ele>1031.15</ele>
        <time>2015-05-14T13:38:16Z</time>
      </trkpt>
      <trkpt lat="46.65689" lon="6.03415">
        <ele>1029.71</ele>
        <time>2015-05-14T13:38:32Z</time>
      </trkpt>
      <trkpt lat="46.65681" lon="6.03397">
        <ele>1028.27</ele>
        <time>2015-05-14T13:38:48Z</time>
      </trkpt>
      <trkpt lat="46.65674" lon="6.03383">
        <ele>1028.27</ele>
        <time>2015-05-14T13:39:04Z</time>
      </trkpt>
      <trkpt lat="46.65668" lon="6.03371">
        <ele>1029.71</ele>
        <time>2015-05-14T13:39:23Z</time>
      </trkpt>
      <trkpt lat="46.65667" lon="6.03366">
        <ele>1030.67</ele>
        <time>2015-05-14T13:39:52Z</time>
      </trkpt>
      <trkpt lat="46.65665" lon="6.0336">
        <ele>1030.67</ele>
        <time>2015-05-14T13:40:19Z</time>
      </trkpt>
      <trkpt lat="46.65662" lon="6.03361">
        <ele>1031.15</ele>
        <time>2015-05-14T13:40:47Z</time>
      </trkpt>
      <trkpt lat="46.65665" lon="6.03363">
        <ele>1032.11</ele>
        <time>2015-05-14T13:41:15Z</time>
      </trkpt>
      <trkpt lat="46.65666" lon="6.03369">
        <ele>1032.11</ele>
        <time>2015-05-14T13:41:44Z</time>
      </trkpt>
      <trkpt lat="46.65664" lon="6.03366">
        <ele>1032.59</ele>
        <time>2015-05-14T13:42:11Z</time>
      </trkpt>
      <trkpt lat="46.65663" lon="6.03365">
        <ele>1032.11</ele>
        <time>2015-05-14T13:42:39Z</time>
      </trkpt>
      <trkpt lat="46.65663" lon="6.03363">
        <ele>1033.55</ele>
        <time>2015-05-14T13:42:56Z</time>
      </trkpt>
      <trkpt lat="46.65662" lon="6.03361">
        <ele>1032.11</ele>
        <time>2015-05-14T13:43:00Z</time>
      </trkpt>
      <trkpt lat="46.65662" lon="6.0336">
        <ele>1034.04</ele>
        <time>2015-05-14T13:43:02Z</time>
      </trkpt>
      <trkpt lat="46.65656" lon="6.0335">
        <ele>1034.04</ele>
        <time>2015-05-14T13:43:17Z</time>
      </trkpt>
      <trkpt lat="46.65644" lon="6.03327">
        <ele>1035</ele>
        <time>2015-05-14T13:43:35Z</time>
      </trkpt>
      <trkpt lat="46.65638" lon="6.03313">
        <ele>1035.96</ele>
        <time>2015-05-14T13:43:55Z</time>
      </trkpt>
      <trkpt lat="46.65637" lon="6.03305">
        <ele>1035.96</ele>
        <time>2015-05-14T13:44:00Z</time>
      </trkpt>
      <trkpt lat="46.65629" lon="6.03288">
        <ele>1034.52</ele>
        <time>2015-05-14T13:44:13Z</time>
      </trkpt>
      <trkpt lat="46.65619" lon="6.03273">
        <ele>1031.63</ele>
        <time>2015-05-14T13:44:28Z</time>
      </trkpt>
      <trkpt lat="46.6561" lon="6.03259">
        <ele>1028.75</ele>
        <time>2015-05-14T13:44:44Z</time>
      </trkpt>
      <trkpt lat="46.65607" lon="6.03246">
        <ele>1025.38</ele>
        <time>2015-05-14T13:44:55Z</time>
      </trkpt>
      <trkpt lat="46.65599" lon="6.03234">
        <ele>1022.02</ele>
        <time>2015-05-14T13:45:10Z</time>
      </trkpt>
      <trkpt lat="46.65583" lon="6.03222">
        <ele>1020.58</ele>
        <time>2015-05-14T13:45:25Z</time>
      </trkpt>
      <trkpt lat="46.65572" lon="6.0323">
        <ele>1020.1</ele>
        <time>2015-05-14T13:45:39Z</time>
      </trkpt>
      <trkpt lat="46.65562" lon="6.03233">
        <ele>1018.17</ele>
        <time>2015-05-14T13:45:52Z</time>
      </trkpt>
      <trkpt lat="46.65559" lon="6.03233">
        <ele>1018.17</ele>
        <time>2015-05-14T13:45:55Z</time>
      </trkpt>
      <trkpt lat="46.65548" lon="6.03228">
        <ele>1016.25</ele>
        <time>2015-05-14T13:46:08Z</time>
      </trkpt>
      <trkpt lat="46.65532" lon="6.03211">
        <ele>1014.81</ele>
        <time>2015-05-14T13:46:33Z</time>
      </trkpt>
      <trkpt lat="46.65525" lon="6.03211">
        <ele>1011.44</ele>
        <time>2015-05-14T13:46:43Z</time>
      </trkpt>
      <trkpt lat="46.6552" lon="6.03205">
        <ele>1009.52</ele>
        <time>2015-05-14T13:46:50Z</time>
      </trkpt>
      <trkpt lat="46.65512" lon="6.03189">
        <ele>1006.16</ele>
        <time>2015-05-14T13:47:04Z</time>
      </trkpt>
      <trkpt lat="46.65515" lon="6.03172">
        <ele>1006.16</ele>
        <time>2015-05-14T13:47:19Z</time>
      </trkpt>
      <trkpt lat="46.65518" lon="6.03163">
        <ele>1006.16</ele>
        <time>2015-05-14T13:47:33Z</time>
      </trkpt>
      <trkpt lat="46.65506" lon="6.03148">
        <ele>1008.08</ele>
        <time>2015-05-14T13:47:50Z</time>
      </trkpt>
      <trkpt lat="46.6549" lon="6.03148">
        <ele>1010.48</ele>
        <time>2015-05-14T13:48:08Z</time>
      </trkpt>
      <trkpt lat="46.65483" lon="6.03131">
        <ele>1012.41</ele>
        <time>2015-05-14T13:48:26Z</time>
      </trkpt>
      <trkpt lat="46.65485" lon="6.03111">
        <ele>1014.81</ele>
        <time>2015-05-14T13:48:42Z</time>
      </trkpt>
      <trkpt lat="46.65485" lon="6.03088">
        <ele>1016.73</ele>
        <time>2015-05-14T13:48:58Z</time>
      </trkpt>
      <trkpt lat="46.65481" lon="6.03061">
        <ele>1019.13</ele>
        <time>2015-05-14T13:49:16Z</time>
      </trkpt>
      <trkpt lat="46.65482" lon="6.03054">
        <ele>1019.13</ele>
        <time>2015-05-14T13:49:20Z</time>
      </trkpt>
      <trkpt lat="46.65482" lon="6.03018">
        <ele>1021.06</ele>
        <time>2015-05-14T13:49:38Z</time>
      </trkpt>
      <trkpt lat="46.6548" lon="6.03008">
        <ele>1019.62</ele>
        <time>2015-05-14T13:49:43Z</time>
      </trkpt>
      <trkpt lat="46.65477" lon="6.03004">
        <ele>1020.1</ele>
        <time>2015-05-14T13:49:48Z</time>
      </trkpt>
      <trkpt lat="46.65474" lon="6.03002">
        <ele>1020.1</ele>
        <time>2015-05-14T13:50:05Z</time>
      </trkpt>
      <trkpt lat="46.65474" lon="6.03003">
        <ele>1018.65</ele>
        <time>2015-05-14T13:50:37Z</time>
      </trkpt>
      <trkpt lat="46.65473" lon="6.03006">
        <ele>1019.13</ele>
        <time>2015-05-14T13:51:04Z</time>
      </trkpt>
      <trkpt lat="46.65474" lon="6.03003">
        <ele>1019.13</ele>
        <time>2015-05-14T13:51:50Z</time>
      </trkpt>
      <trkpt lat="46.65473" lon="6.03005">
        <ele>1019.13</ele>
        <time>2015-05-14T13:52:33Z</time>
      </trkpt>
      <trkpt lat="46.65475" lon="6.03003">
        <ele>1019.13</ele>
        <time>2015-05-14T13:52:54Z</time>
      </trkpt>
      <trkpt lat="46.65486" lon="6.0301">
        <ele>1019.13</ele>
        <time>2015-05-14T13:53:11Z</time>
      </trkpt>
      <trkpt lat="46.65487" lon="6.03006">
        <ele>1019.13</ele>
        <time>2015-05-14T13:53:14Z</time>
      </trkpt>
      <trkpt lat="46.65498" lon="6.0301">
        <ele>1022.5</ele>
        <time>2015-05-14T13:53:28Z</time>
      </trkpt>
      <trkpt lat="46.65505" lon="6.03018">
        <ele>1024.42</ele>
        <time>2015-05-14T13:53:42Z</time>
      </trkpt>
      <trkpt lat="46.65505" lon="6.03018">
        <ele>1022.98</ele>
        <time>2015-05-14T13:53:45Z</time>
      </trkpt>
      <trkpt lat="46.65505" lon="6.0302">
        <ele>1024.42</ele>
        <time>2015-05-14T13:54:20Z</time>
      </trkpt>
      <trkpt lat="46.65506" lon="6.0302">
        <ele>1024.42</ele>
        <time>2015-05-14T13:54:38Z</time>
      </trkpt>
      <trkpt lat="46.65503" lon="6.03021">
        <ele>1024.42</ele>
        <time>2015-05-14T13:55:05Z</time>
      </trkpt>
      <trkpt lat="46.65504" lon="6.03018">
        <ele>1024.9</ele>
        <time>2015-05-14T13:55:32Z</time>
      </trkpt>
      <trkpt lat="46.65503" lon="6.03019">
        <ele>1025.86</ele>
        <time>2015-05-14T13:56:00Z</time>
      </trkpt>
      <trkpt lat="46.65503" lon="6.03021">
        <ele>1025.86</ele>
        <time>2015-05-14T13:56:35Z</time>
      </trkpt>
      <trkpt lat="46.65505" lon="6.03022">
        <ele>1026.83</ele>
        <time>2015-05-14T13:57:08Z</time>
      </trkpt>
      <trkpt lat="46.65504" lon="6.03021">
        <ele>1026.83</ele>
        <time>2015-05-14T13:57:43Z</time>
      </trkpt>
      <trkpt lat="46.65503" lon="6.0302">
        <ele>1027.31</ele>
        <time>2015-05-14T13:58:21Z</time>
      </trkpt>
      <trkpt lat="46.65503" lon="6.0302">
        <ele>1027.31</ele>
        <time>2015-05-14T13:58:49Z</time>
      </trkpt>
      <trkpt lat="46.65504" lon="6.03021">
        <ele>1027.79</ele>
        <time>2015-05-14T13:59:29Z</time>
      </trkpt>
      <trkpt lat="46.65505" lon="6.03021">
        <ele>1027.79</ele>
        <time>2015-05-14T14:00:05Z</time>
      </trkpt>
      <trkpt lat="46.65503" lon="6.03021">
        <ele>1027.79</ele>
        <time>2015-05-14T14:00:35Z</time>
      </trkpt>
      <trkpt lat="46.65504" lon="6.0302">
        <ele>1027.79</ele>
        <time>2015-05-14T14:01:03Z</time>
      </trkpt>
      <trkpt lat="46.65502" lon="6.03018">
        <ele>1027.79</ele>
        <time>2015-05-14T14:01:32Z</time>
      </trkpt>
      <trkpt lat="46.65502" lon="6.0302">
        <ele>1027.79</ele>
        <time>2015-05-14T14:01:58Z</time>
      </trkpt>
      <trkpt lat="46.65504" lon="6.03019">
        <ele>1027.79</ele>
        <time>2015-05-14T14:02:36Z</time>
      </trkpt>
      <trkpt lat="46.65505" lon="6.0302">
        <ele>1026.83</ele>
        <time>2015-05-14T14:03:13Z</time>
      </trkpt>
      <trkpt lat="46.65507" lon="6.03019">
        <ele>1026.83</ele>
        <time>2015-05-14T14:03:49Z</time>
      </trkpt>
      <trkpt lat="46.65508" lon="6.03017">
        <ele>1026.83</ele>
        <time>2015-05-14T14:04:23Z</time>
      </trkpt>
      <trkpt lat="46.65508" lon="6.03019">
        <ele>1026.34</ele>
        <time>2015-05-14T14:05:00Z</time>
      </trkpt>
      <trkpt lat="46.65507" lon="6.03017">
        <ele>1025.86</ele>
        <time>2015-05-14T14:05:31Z</time>
      </trkpt>
      <trkpt lat="46.65507" lon="6.03018">
        <ele>1025.86</ele>
        <time>2015-05-14T14:05:56Z</time>
      </trkpt>
      <trkpt lat="46.65506" lon="6.03019">
        <ele>1025.38</ele>
        <time>2015-05-14T14:06:29Z</time>
      </trkpt>
      <trkpt lat="46.65506" lon="6.03019">
        <ele>1024.9</ele>
        <time>2015-05-14T14:06:57Z</time>
      </trkpt>
      <trkpt lat="46.65505" lon="6.03019">
        <ele>1024.9</ele>
        <time>2015-05-14T14:07:07Z</time>
      </trkpt>
      <trkpt lat="46.65505" lon="6.03018">
        <ele>1024.9</ele>
        <time>2015-05-14T14:07:17Z</time>
      </trkpt>
      <trkpt lat="46.65503" lon="6.03015">
        <ele>1024.9</ele>
        <time>2015-05-14T14:07:26Z</time>
      </trkpt>
      <trkpt lat="46.65497" lon="6.03007">
        <ele>1024.42</ele>
        <time>2015-05-14T14:07:34Z</time>
      </trkpt>
      <trkpt lat="46.65484" lon="6.03011">
        <ele>1022.02</ele>
        <time>2015-05-14T14:07:48Z</time>
      </trkpt>
      <trkpt lat="46.65482" lon="6.03014">
        <ele>1021.54</ele>
        <time>2015-05-14T14:07:54Z</time>
      </trkpt>
      <trkpt lat="46.65478" lon="6.03021">
        <ele>1022.02</ele>
        <time>2015-05-14T14:07:59Z</time>
      </trkpt>
      <trkpt lat="46.65477" lon="6.03025">
        <ele>1022.02</ele>
        <time>2015-05-14T14:08:02Z</time>
      </trkpt>
      <trkpt lat="46.65475" lon="6.0303">
        <ele>1021.54</ele>
        <time>2015-05-14T14:08:05Z</time>
      </trkpt>
      <trkpt lat="46.65472" lon="6.03056">
        <ele>1018.65</ele>
        <time>2015-05-14T14:08:21Z</time>
      </trkpt>
      <trkpt lat="46.65476" lon="6.03088">
        <ele>1016.25</ele>
        <time>2015-05-14T14:08:37Z</time>
      </trkpt>
      <trkpt lat="46.65475" lon="6.031">
        <ele>1015.77</ele>
        <time>2015-05-14T14:08:43Z</time>
      </trkpt>
      <trkpt lat="46.65475" lon="6.03126">
        <ele>1012.89</ele>
        <time>2015-05-14T14:08:58Z</time>
      </trkpt>
      <trkpt lat="46.65489" lon="6.0315">
        <ele>1010.96</ele>
        <time>2015-05-14T14:09:16Z</time>
      </trkpt>
      <trkpt lat="46.65506" lon="6.03152">
        <ele>1009.04</ele>
        <time>2015-05-14T14:09:31Z</time>
      </trkpt>
      <trkpt lat="46.65518" lon="6.03156">
        <ele>1008.08</ele>
        <time>2015-05-14T14:09:43Z</time>
      </trkpt>
      <trkpt lat="46.65523" lon="6.03152">
        <ele>1008.08</ele>
        <time>2015-05-14T14:09:48Z</time>
      </trkpt>
      <trkpt lat="46.6554" lon="6.03134">
        <ele>1005.68</ele>
        <time>2015-05-14T14:10:06Z</time>
      </trkpt>
      <trkpt lat="46.65551" lon="6.03124">
        <ele>1003.27</ele>
        <time>2015-05-14T14:10:20Z</time>
      </trkpt>
      <trkpt lat="46.65566" lon="6.03114">
        <ele>999.91</ele>
        <time>2015-05-14T14:10:34Z</time>
      </trkpt>
      <trkpt lat="46.65573" lon="6.03116">
        <ele>998.95</ele>
        <time>2015-05-14T14:10:40Z</time>
      </trkpt>
      <trkpt lat="46.65596" lon="6.03126">
        <ele>996.06</ele>
        <time>2015-05-14T14:10:58Z</time>
      </trkpt>
      <trkpt lat="46.65614" lon="6.03137">
        <ele>994.14</ele>
        <time>2015-05-14T14:11:16Z</time>
      </trkpt>
      <trkpt lat="46.65623" lon="6.03155">
        <ele>991.74</ele>
        <time>2015-05-14T14:11:35Z</time>
      </trkpt>
      <trkpt lat="46.65626" lon="6.03171">
        <ele>990.3</ele>
        <time>2015-05-14T14:11:48Z</time>
      </trkpt>
      <trkpt lat="46.65638" lon="6.03192">
        <ele>989.33</ele>
        <time>2015-05-14T14:12:04Z</time>
      </trkpt>
      <trkpt lat="46.65652" lon="6.03211">
        <ele>988.37</ele>
        <time>2015-05-14T14:12:20Z</time>
      </trkpt>
      <trkpt lat="46.65667" lon="6.03225">
        <ele>987.41</ele>
        <time>2015-05-14T14:12:34Z</time>
      </trkpt>
      <trkpt lat="46.65681" lon="6.0324">
        <ele>985.97</ele>
        <time>2015-05-14T14:12:48Z</time>
      </trkpt>
      <trkpt lat="46.65695" lon="6.0326">
        <ele>985.49</ele>
        <time>2015-05-14T14:13:06Z</time>
      </trkpt>
      <trkpt lat="46.6571" lon="6.03281">
        <ele>985.49</ele>
        <time>2015-05-14T14:13:23Z</time>
      </trkpt>
      <trkpt lat="46.65724" lon="6.033">
        <ele>985.49</ele>
        <time>2015-05-14T14:13:39Z</time>
      </trkpt>
      <trkpt lat="46.65736" lon="6.03321">
        <ele>984.53</ele>
        <time>2015-05-14T14:13:55Z</time>
      </trkpt>
      <trkpt lat="46.65749" lon="6.03339">
        <ele>982.6</ele>
        <time>2015-05-14T14:14:10Z</time>
      </trkpt>
      <trkpt lat="46.65763" lon="6.03356">
        <ele>979.72</ele>
        <time>2015-05-14T14:14:26Z</time>
      </trkpt>
      <trkpt lat="46.65773" lon="6.0338">
        <ele>978.76</ele>
        <time>2015-05-14T14:14:44Z</time>
      </trkpt>
      <trkpt lat="46.65787" lon="6.03405">
        <ele>976.36</ele>
        <time>2015-05-14T14:15:03Z</time>
      </trkpt>
      <trkpt lat="46.65802" lon="6.03424">
        <ele>974.43</ele>
        <time>2015-05-14T14:15:19Z</time>
      </trkpt>
      <trkpt lat="46.6581" lon="6.03441">
        <ele>972.51</ele>
        <time>2015-05-14T14:15:34Z</time>
      </trkpt>
      <trkpt lat="46.65816" lon="6.03455">
        <ele>971.07</ele>
        <time>2015-05-14T14:15:48Z</time>
      </trkpt>
      <trkpt lat="46.65833" lon="6.03466">
        <ele>969.63</ele>
        <time>2015-05-14T14:16:04Z</time>
      </trkpt>
      <trkpt lat="46.65852" lon="6.0348">
        <ele>965.78</ele>
        <time>2015-05-14T14:16:20Z</time>
      </trkpt>
      <trkpt lat="46.65858" lon="6.03494">
        <ele>962.9</ele>
        <time>2015-05-14T14:16:34Z</time>
      </trkpt>
      <trkpt lat="46.65866" lon="6.03509">
        <ele>960.01</ele>
        <time>2015-05-14T14:16:50Z</time>
      </trkpt>
      <trkpt lat="46.65879" lon="6.03519">
        <ele>957.13</ele>
        <time>2015-05-14T14:17:04Z</time>
      </trkpt>
      <trkpt lat="46.65888" lon="6.03533">
        <ele>953.77</ele>
        <time>2015-05-14T14:17:18Z</time>
      </trkpt>
      <trkpt lat="46.65896" lon="6.03552">
        <ele>950.88</ele>
        <time>2015-05-14T14:17:34Z</time>
      </trkpt>
      <trkpt lat="46.6591" lon="6.03574">
        <ele>948</ele>
        <time>2015-05-14T14:17:51Z</time>
      </trkpt>
      <trkpt lat="46.65928" lon="6.03598">
        <ele>946.07</ele>
        <time>2015-05-14T14:18:11Z</time>
      </trkpt>
      <trkpt lat="46.65937" lon="6.03623">
        <ele>942.71</ele>
        <time>2015-05-14T14:18:29Z</time>
      </trkpt>
      <trkpt lat="46.65946" lon="6.03634">
        <ele>940.31</ele>
        <time>2015-05-14T14:18:42Z</time>
      </trkpt>
      <trkpt lat="46.6596" lon="6.03635">
        <ele>939.35</ele>
        <time>2015-05-14T14:19:02Z</time>
      </trkpt>
      <trkpt lat="46.65966" lon="6.03635">
        <ele>938.86</ele>
        <time>2015-05-14T14:19:21Z</time>
      </trkpt>
      <trkpt lat="46.65972" lon="6.03635">
        <ele>938.38</ele>
        <time>2015-05-14T14:19:48Z</time>
      </trkpt>
      <trkpt lat="46.65984" lon="6.0365">
        <ele>937.42</ele>
        <time>2015-05-14T14:20:03Z</time>
      </trkpt>
      <trkpt lat="46.65991" lon="6.03666">
        <ele>936.46</ele>
        <time>2015-05-14T14:20:22Z</time>
      </trkpt>
      <trkpt lat="46.66001" lon="6.03682">
        <ele>935.02</ele>
        <time>2015-05-14T14:20:38Z</time>
      </trkpt>
      <trkpt lat="46.66013" lon="6.037">
        <ele>933.58</ele>
        <time>2015-05-14T14:20:54Z</time>
      </trkpt>
      <trkpt lat="46.6603" lon="6.03721">
        <ele>932.14</ele>
        <time>2015-05-14T14:21:12Z</time>
      </trkpt>
      <trkpt lat="46.66042" lon="6.03741">
        <ele>930.69</ele>
        <time>2015-05-14T14:21:28Z</time>
      </trkpt>
      <trkpt lat="46.66052" lon="6.03761">
        <ele>929.25</ele>
        <time>2015-05-14T14:21:45Z</time>
      </trkpt>
      <trkpt lat="46.66069" lon="6.0378">
        <ele>927.81</ele>
        <time>2015-05-14T14:22:01Z</time>
      </trkpt>
      <trkpt lat="46.66086" lon="6.03809">
        <ele>926.85</ele>
        <time>2015-05-14T14:22:20Z</time>
      </trkpt>
      <trkpt lat="46.66096" lon="6.03829">
        <ele>923.96</ele>
        <time>2015-05-14T14:22:36Z</time>
      </trkpt>
      <trkpt lat="46.66099" lon="6.03852">
        <ele>922.52</ele>
        <time>2015-05-14T14:22:52Z</time>
      </trkpt>
      <trkpt lat="46.66101" lon="6.03875">
        <ele>921.08</ele>
        <time>2015-05-14T14:23:07Z</time>
      </trkpt>
      <trkpt lat="46.66111" lon="6.03894">
        <ele>918.68</ele>
        <time>2015-05-14T14:23:24Z</time>
      </trkpt>
      <trkpt lat="46.66139" lon="6.03913">
        <ele>916.27</ele>
        <time>2015-05-14T14:23:39Z</time>
      </trkpt>
      <trkpt lat="46.66158" lon="6.03932">
        <ele>913.87</ele>
        <time>2015-05-14T14:23:58Z</time>
      </trkpt>
      <trkpt lat="46.66171" lon="6.03952">
        <ele>912.43</ele>
        <time>2015-05-14T14:24:14Z</time>
      </trkpt>
      <trkpt lat="46.66185" lon="6.03967">
        <ele>910.51</ele>
        <time>2015-05-14T14:24:28Z</time>
      </trkpt>
      <trkpt lat="46.66195" lon="6.03986">
        <ele>909.06</ele>
        <time>2015-05-14T14:24:41Z</time>
      </trkpt>
      <trkpt lat="46.66212" lon="6.03989">
        <ele>907.62</ele>
        <time>2015-05-14T14:24:53Z</time>
      </trkpt>
      <trkpt lat="46.66217" lon="6.03982">
        <ele>906.66</ele>
        <time>2015-05-14T14:24:57Z</time>
      </trkpt>
      <trkpt lat="46.66221" lon="6.03975">
        <ele>905.7</ele>
        <time>2015-05-14T14:25:13Z</time>
      </trkpt>
      <trkpt lat="46.66217" lon="6.03964">
        <ele>904.74</ele>
        <time>2015-05-14T14:25:38Z</time>
      </trkpt>
      <trkpt lat="46.66208" lon="6.0395">
        <ele>903.78</ele>
        <time>2015-05-14T14:25:50Z</time>
      </trkpt>
      <trkpt lat="46.66198" lon="6.0393">
        <ele>902.33</ele>
        <time>2015-05-14T14:26:07Z</time>
      </trkpt>
      <trkpt lat="46.66185" lon="6.0391">
        <ele>902.33</ele>
        <time>2015-05-14T14:26:23Z</time>
      </trkpt>
      <trkpt lat="46.66177" lon="6.03891">
        <ele>902.33</ele>
        <time>2015-05-14T14:26:33Z</time>
      </trkpt>
      <trkpt lat="46.66172" lon="6.03865">
        <ele>903.3</ele>
        <time>2015-05-14T14:26:49Z</time>
      </trkpt>
      <trkpt lat="46.66168" lon="6.03856">
        <ele>903.78</ele>
        <time>2015-05-14T14:26:56Z</time>
      </trkpt>
      <trkpt lat="46.66155" lon="6.03834">
        <ele>903.78</ele>
        <time>2015-05-14T14:27:11Z</time>
      </trkpt>
      <trkpt lat="46.66147" lon="6.0382">
        <ele>900.41</ele>
        <time>2015-05-14T14:27:21Z</time>
      </trkpt>
      <trkpt lat="46.66139" lon="6.038">
        <ele>898.97</ele>
        <time>2015-05-14T14:27:36Z</time>
      </trkpt>
      <trkpt lat="46.66133" lon="6.03782">
        <ele>898.49</ele>
        <time>2015-05-14T14:27:51Z</time>
      </trkpt>
      <trkpt lat="46.66132" lon="6.03754">
        <ele>896.09</ele>
        <time>2015-05-14T14:28:07Z</time>
      </trkpt>
      <trkpt lat="46.6613" lon="6.03732">
        <ele>894.16</ele>
        <time>2015-05-14T14:28:21Z</time>
      </trkpt>
      <trkpt lat="46.66125" lon="6.03703">
        <ele>890.8</ele>
        <time>2015-05-14T14:28:39Z</time>
      </trkpt>
      <trkpt lat="46.66125" lon="6.037">
        <ele>890.8</ele>
        <time>2015-05-14T14:28:41Z</time>
      </trkpt>
      <trkpt lat="46.66119" lon="6.03674">
        <ele>889.36</ele>
        <time>2015-05-14T14:28:57Z</time>
      </trkpt>
      <trkpt lat="46.66108" lon="6.03643">
        <ele>888.88</ele>
        <time>2015-05-14T14:29:11Z</time>
      </trkpt>
      <trkpt lat="46.66105" lon="6.03632">
        <ele>888.88</ele>
        <time>2015-05-14T14:29:25Z</time>
      </trkpt>
      <trkpt lat="46.66105" lon="6.03629">
        <ele>889.84</ele>
        <time>2015-05-14T14:29:32Z</time>
      </trkpt>
      <trkpt lat="46.661" lon="6.03616">
        <ele>889.84</ele>
        <time>2015-05-14T14:29:47Z</time>
      </trkpt>
      <trkpt lat="46.66093" lon="6.03594">
        <ele>891.28</ele>
        <time>2015-05-14T14:30:03Z</time>
      </trkpt>
      <trkpt lat="46.66089" lon="6.03576">
        <ele>892.24</ele>
        <time>2015-05-14T14:30:15Z</time>
      </trkpt>
      <trkpt lat="46.66091" lon="6.03552">
        <ele>894.16</ele>
        <time>2015-05-14T14:30:32Z</time>
      </trkpt>
      <trkpt lat="46.66093" lon="6.03531">
        <ele>896.09</ele>
        <time>2015-05-14T14:30:48Z</time>
      </trkpt>
      <trkpt lat="46.66093" lon="6.0351">
        <ele>898.01</ele>
        <time>2015-05-14T14:31:04Z</time>
      </trkpt>
      <trkpt lat="46.66093" lon="6.03498">
        <ele>898.01</ele>
        <time>2015-05-14T14:31:14Z</time>
      </trkpt>
      <trkpt lat="46.66094" lon="6.03483">
        <ele>898.97</ele>
        <time>2015-05-14T14:31:28Z</time>
      </trkpt>
      <trkpt lat="46.66094" lon="6.03456">
        <ele>900.41</ele>
        <time>2015-05-14T14:31:43Z</time>
      </trkpt>
      <trkpt lat="46.66089" lon="6.03427">
        <ele>902.82</ele>
        <time>2015-05-14T14:31:59Z</time>
      </trkpt>
      <trkpt lat="46.66086" lon="6.03407">
        <ele>904.74</ele>
        <time>2015-05-14T14:32:15Z</time>
      </trkpt>
      <trkpt lat="46.66092" lon="6.03379">
        <ele>906.18</ele>
        <time>2015-05-14T14:32:34Z</time>
      </trkpt>
      <trkpt lat="46.66107" lon="6.03364">
        <ele>905.22</ele>
        <time>2015-05-14T14:32:52Z</time>
      </trkpt>
      <trkpt lat="46.6613" lon="6.03337">
        <ele>902.82</ele>
        <time>2015-05-14T14:33:14Z</time>
      </trkpt>
      <trkpt lat="46.66145" lon="6.03325">
        <ele>900.89</ele>
        <time>2015-05-14T14:33:30Z</time>
      </trkpt>
      <trkpt lat="46.66167" lon="6.0331">
        <ele>899.45</ele>
        <time>2015-05-14T14:33:51Z</time>
      </trkpt>
      <trkpt lat="46.66185" lon="6.03295">
        <ele>898.49</ele>
        <time>2015-05-14T14:34:09Z</time>
      </trkpt>
      <trkpt lat="46.66205" lon="6.03281">
        <ele>897.53</ele>
        <time>2015-05-14T14:34:29Z</time>
      </trkpt>
      <trkpt lat="46.66223" lon="6.03271">
        <ele>896.09</ele>
        <time>2015-05-14T14:34:45Z</time>
      </trkpt>
      <trkpt lat="46.66238" lon="6.03265">
        <ele>895.12</ele>
        <time>2015-05-14T14:35:00Z</time>
      </trkpt>
      <trkpt lat="46.66254" lon="6.03257">
        <ele>894.16</ele>
        <time>2015-05-14T14:35:15Z</time>
      </trkpt>
      <trkpt lat="46.66269" lon="6.03256">
        <ele>892.24</ele>
        <time>2015-05-14T14:35:30Z</time>
      </trkpt>
      <trkpt lat="46.66286" lon="6.03256">
        <ele>890.32</ele>
        <time>2015-05-14T14:35:45Z</time>
      </trkpt>
      <trkpt lat="46.66303" lon="6.03266">
        <ele>889.36</ele>
        <time>2015-05-14T14:36:00Z</time>
      </trkpt>
      <trkpt lat="46.66313" lon="6.0327">
        <ele>888.4</ele>
        <time>2015-05-14T14:36:08Z</time>
      </trkpt>
      <trkpt lat="46.66322" lon="6.03278">
        <ele>887.43</ele>
        <time>2015-05-14T14:36:16Z</time>
      </trkpt>
      <trkpt lat="46.66334" lon="6.03269">
        <ele>887.43</ele>
        <time>2015-05-14T14:36:31Z</time>
      </trkpt>
      <trkpt lat="46.66343" lon="6.03254">
        <ele>889.84</ele>
        <time>2015-05-14T14:36:47Z</time>
      </trkpt>
      <trkpt lat="46.66355" lon="6.03233">
        <ele>891.28</ele>
        <time>2015-05-14T14:37:02Z</time>
      </trkpt>
      <trkpt lat="46.66366" lon="6.03221">
        <ele>892.24</ele>
        <time>2015-05-14T14:37:15Z</time>
      </trkpt>
      <trkpt lat="46.66363" lon="6.03203">
        <ele>892.24</ele>
        <time>2015-05-14T14:37:29Z</time>
      </trkpt>
      <trkpt lat="46.6636" lon="6.03201">
        <ele>892.24</ele>
        <time>2015-05-14T14:37:33Z</time>
      </trkpt>
      <trkpt lat="46.66354" lon="6.03196">
        <ele>892.24</ele>
        <time>2015-05-14T14:37:40Z</time>
      </trkpt>
      <trkpt lat="46.66336" lon="6.03184">
        <ele>892.72</ele>
        <time>2015-05-14T14:37:56Z</time>
      </trkpt>
      <trkpt lat="46.66317" lon="6.03173">
        <ele>892.72</ele>
        <time>2015-05-14T14:38:10Z</time>
      </trkpt>
      <trkpt lat="46.66304" lon="6.03166">
        <ele>893.2</ele>
        <time>2015-05-14T14:38:23Z</time>
      </trkpt>
      <trkpt lat="46.66293" lon="6.03147">
        <ele>893.2</ele>
        <time>2015-05-14T14:38:37Z</time>
      </trkpt>
      <trkpt lat="46.66291" lon="6.03111">
        <ele>891.28</ele>
        <time>2015-05-14T14:38:54Z</time>
      </trkpt>
      <trkpt lat="46.6628" lon="6.0311">
        <ele>891.28</ele>
        <time>2015-05-14T14:39:11Z</time>
      </trkpt>
      <trkpt lat="46.66279" lon="6.03112">
        <ele>891.28</ele>
        <time>2015-05-14T14:39:24Z</time>
      </trkpt>
      <trkpt lat="46.66278" lon="6.03115">
        <ele>891.76</ele>
        <time>2015-05-14T14:39:52Z</time>
      </trkpt>
      <trkpt lat="46.66278" lon="6.0311">
        <ele>891.76</ele>
        <time>2015-05-14T14:40:16Z</time>
      </trkpt>
      <trkpt lat="46.66275" lon="6.03112">
        <ele>891.76</ele>
        <time>2015-05-14T14:40:22Z</time>
      </trkpt>
      <trkpt lat="46.66272" lon="6.03123">
        <ele>892.72</ele>
        <time>2015-05-14T14:40:30Z</time>
      </trkpt>
      <trkpt lat="46.6627" lon="6.03135">
        <ele>893.2</ele>
        <time>2015-05-14T14:40:44Z</time>
      </trkpt>
      <trkpt lat="46.66271" lon="6.03136">
        <ele>892.72</ele>
        <time>2015-05-14T14:40:58Z</time>
      </trkpt>
      <trkpt lat="46.66268" lon="6.03131">
        <ele>893.2</ele>
        <time>2015-05-14T14:41:13Z</time>
      </trkpt>
      <trkpt lat="46.66275" lon="6.03122">
        <ele>892.72</ele>
        <time>2015-05-14T14:41:27Z</time>
      </trkpt>
      <trkpt lat="46.66277" lon="6.03122">
        <ele>893.2</ele>
        <time>2015-05-14T14:41:40Z</time>
      </trkpt>
      <trkpt lat="46.66278" lon="6.0311">
        <ele>893.2</ele>
        <time>2015-05-14T14:41:53Z</time>
      </trkpt>
      <trkpt lat="46.66276" lon="6.03111">
        <ele>893.2</ele>
        <time>2015-05-14T14:42:08Z</time>
      </trkpt>
      <trkpt lat="46.66278" lon="6.03115">
        <ele>893.2</ele>
        <time>2015-05-14T14:42:28Z</time>
      </trkpt>
      <trkpt lat="46.66275" lon="6.03121">
        <ele>893.68</ele>
        <time>2015-05-14T14:42:48Z</time>
      </trkpt>
      <trkpt lat="46.66279" lon="6.03116">
        <ele>894.16</ele>
        <time>2015-05-14T14:43:09Z</time>
      </trkpt>
      <trkpt lat="46.66282" lon="6.03115">
        <ele>894.16</ele>
        <time>2015-05-14T14:43:41Z</time>
      </trkpt>
      <trkpt lat="46.66284" lon="6.03113">
        <ele>894.64</ele>
        <time>2015-05-14T14:43:58Z</time>
      </trkpt>
      <trkpt lat="46.66288" lon="6.03112">
        <ele>893.2</ele>
        <time>2015-05-14T14:44:01Z</time>
      </trkpt>
      <trkpt lat="46.66311" lon="6.03099">
        <ele>892.72</ele>
        <time>2015-05-14T14:44:18Z</time>
      </trkpt>
      <trkpt lat="46.66334" lon="6.03081">
        <ele>892.24</ele>
        <time>2015-05-14T14:44:36Z</time>
      </trkpt>
      <trkpt lat="46.66353" lon="6.03065">
        <ele>891.28</ele>
        <time>2015-05-14T14:44:52Z</time>
      </trkpt>
      <trkpt lat="46.66361" lon="6.03045">
        <ele>890.32</ele>
        <time>2015-05-14T14:45:04Z</time>
      </trkpt>
      <trkpt lat="46.66358" lon="6.03036">
        <ele>890.32</ele>
        <time>2015-05-14T14:45:09Z</time>
      </trkpt>
      <trkpt lat="46.66338" lon="6.03013">
        <ele>890.32</ele>
        <time>2015-05-14T14:45:28Z</time>
      </trkpt>
      <trkpt lat="46.66332" lon="6.03007">
        <ele>891.76</ele>
        <time>2015-05-14T14:45:34Z</time>
      </trkpt>
      <trkpt lat="46.6631" lon="6.02994">
        <ele>890.8</ele>
        <time>2015-05-14T14:45:52Z</time>
      </trkpt>
      <trkpt lat="46.66291" lon="6.02982">
        <ele>890.32</ele>
        <time>2015-05-14T14:46:07Z</time>
      </trkpt>
      <trkpt lat="46.66273" lon="6.02966">
        <ele>888.4</ele>
        <time>2015-05-14T14:46:22Z</time>
      </trkpt>
      <trkpt lat="46.66254" lon="6.02947">
        <ele>888.4</ele>
        <time>2015-05-14T14:46:38Z</time>
      </trkpt>
      <trkpt lat="46.66235" lon="6.02932">
        <ele>887.91</ele>
        <time>2015-05-14T14:46:52Z</time>
      </trkpt>
      <trkpt lat="46.66223" lon="6.02924">
        <ele>886.95</ele>
        <time>2015-05-14T14:47:09Z</time>
      </trkpt>
      <trkpt lat="46.66211" lon="6.02898">
        <ele>886.47</ele>
        <time>2015-05-14T14:47:23Z</time>
      </trkpt>
      <trkpt lat="46.66208" lon="6.02879">
        <ele>884.55</ele>
        <time>2015-05-14T14:47:34Z</time>
      </trkpt>
      <trkpt lat="46.66202" lon="6.02871">
        <ele>883.11</ele>
        <time>2015-05-14T14:47:41Z</time>
      </trkpt>
      <trkpt lat="46.66189" lon="6.02864">
        <ele>881.67</ele>
        <time>2015-05-14T14:47:52Z</time>
      </trkpt>
      <trkpt lat="46.66171" lon="6.02868">
        <ele>878.78</ele>
        <time>2015-05-14T14:48:07Z</time>
      </trkpt>
      <trkpt lat="46.66151" lon="6.02876">
        <ele>876.38</ele>
        <time>2015-05-14T14:48:22Z</time>
      </trkpt>
      <trkpt lat="46.66131" lon="6.02871">
        <ele>874.46</ele>
        <time>2015-05-14T14:48:37Z</time>
      </trkpt>
      <trkpt lat="46.66116" lon="6.02859">
        <ele>873.01</ele>
        <time>2015-05-14T14:48:50Z</time>
      </trkpt>
      <trkpt lat="46.66102" lon="6.02845">
        <ele>871.57</ele>
        <time>2015-05-14T14:49:04Z</time>
      </trkpt>
      <trkpt lat="46.66084" lon="6.02827">
        <ele>870.13</ele>
        <time>2015-05-14T14:49:22Z</time>
      </trkpt>
      <trkpt lat="46.66063" lon="6.02815">
        <ele>867.73</ele>
        <time>2015-05-14T14:49:39Z</time>
      </trkpt>
      <trkpt lat="46.66059" lon="6.02813">
        <ele>867.25</ele>
        <time>2015-05-14T14:49:42Z</time>
      </trkpt>
      <trkpt lat="46.66046" lon="6.02806">
        <ele>866.29</ele>
        <time>2015-05-14T14:49:52Z</time>
      </trkpt>
      <trkpt lat="46.66028" lon="6.02796">
        <ele>864.36</ele>
        <time>2015-05-14T14:50:08Z</time>
      </trkpt>
      <trkpt lat="46.66013" lon="6.02789">
        <ele>862.92</ele>
        <time>2015-05-14T14:50:22Z</time>
      </trkpt>
      <trkpt lat="46.66002" lon="6.02781">
        <ele>861.96</ele>
        <time>2015-05-14T14:50:31Z</time>
      </trkpt>
      <trkpt lat="46.65998" lon="6.02776">
        <ele>861.48</ele>
        <time>2015-05-14T14:50:35Z</time>
      </trkpt>
      <trkpt lat="46.65977" lon="6.02758">
        <ele>859.08</ele>
        <time>2015-05-14T14:50:53Z</time>
      </trkpt>
      <trkpt lat="46.6596" lon="6.02747">
        <ele>856.67</ele>
        <time>2015-05-14T14:51:08Z</time>
      </trkpt>
      <trkpt lat="46.65937" lon="6.02742">
        <ele>853.79</ele>
        <time>2015-05-14T14:51:24Z</time>
      </trkpt>
      <trkpt lat="46.65914" lon="6.02731">
        <ele>851.87</ele>
        <time>2015-05-14T14:51:41Z</time>
      </trkpt>
      <trkpt lat="46.65897" lon="6.02717">
        <ele>849.94</ele>
        <time>2015-05-14T14:51:57Z</time>
      </trkpt>
      <trkpt lat="46.65879" lon="6.02701">
        <ele>848.5</ele>
        <time>2015-05-14T14:52:13Z</time>
      </trkpt>
      <trkpt lat="46.65869" lon="6.0269">
        <ele>847.06</ele>
        <time>2015-05-14T14:52:26Z</time>
      </trkpt>
      <trkpt lat="46.65867" lon="6.02684">
        <ele>847.06</ele>
        <time>2015-05-14T14:52:47Z</time>
      </trkpt>
      <trkpt lat="46.65849" lon="6.02669">
        <ele>844.66</ele>
        <time>2015-05-14T14:53:03Z</time>
      </trkpt>
      <trkpt lat="46.65829" lon="6.02654">
        <ele>842.25</ele>
        <time>2015-05-14T14:53:22Z</time>
      </trkpt>
      <trkpt lat="46.6581" lon="6.02643">
        <ele>839.37</ele>
        <time>2015-05-14T14:53:40Z</time>
      </trkpt>
      <trkpt lat="46.65789" lon="6.02628">
        <ele>837.93</ele>
        <time>2015-05-14T14:53:56Z</time>
      </trkpt>
      <trkpt lat="46.65766" lon="6.02605">
        <ele>836.48</ele>
        <time>2015-05-14T14:54:14Z</time>
      </trkpt>
      <trkpt lat="46.65751" lon="6.02582">
        <ele>833.6</ele>
        <time>2015-05-14T14:54:32Z</time>
      </trkpt>
      <trkpt lat="46.65741" lon="6.02554">
        <ele>833.12</ele>
        <time>2015-05-14T14:54:49Z</time>
      </trkpt>
      <trkpt lat="46.65725" lon="6.0253">
        <ele>832.16</ele>
        <time>2015-05-14T14:55:06Z</time>
      </trkpt>
      <trkpt lat="46.65704" lon="6.02511">
        <ele>830.72</ele>
        <time>2015-05-14T14:55:26Z</time>
      </trkpt>
      <trkpt lat="46.6568" lon="6.02483">
        <ele>830.72</ele>
        <time>2015-05-14T14:55:48Z</time>
      </trkpt>
      <trkpt lat="46.65683" lon="6.02454">
        <ele>829.76</ele>
        <time>2015-05-14T14:56:06Z</time>
      </trkpt>
      <trkpt lat="46.65686" lon="6.02448">
        <ele>829.76</ele>
        <time>2015-05-14T14:56:10Z</time>
      </trkpt>
      <trkpt lat="46.65699" lon="6.02424">
        <ele>827.83</ele>
        <time>2015-05-14T14:56:28Z</time>
      </trkpt>
      <trkpt lat="46.65703" lon="6.02416">
        <ele>826.87</ele>
        <time>2015-05-14T14:56:33Z</time>
      </trkpt>
      <trkpt lat="46.65708" lon="6.02392">
        <ele>823.99</ele>
        <time>2015-05-14T14:56:49Z</time>
      </trkpt>
      <trkpt lat="46.65713" lon="6.02378">
        <ele>822.55</ele>
        <time>2015-05-14T14:57:04Z</time>
      </trkpt>
      <trkpt lat="46.65718" lon="6.02361">
        <ele>820.14</ele>
        <time>2015-05-14T14:57:18Z</time>
      </trkpt>
      <trkpt lat="46.65725" lon="6.02334">
        <ele>817.74</ele>
        <time>2015-05-14T14:57:33Z</time>
      </trkpt>
      <trkpt lat="46.65722" lon="6.02299">
        <ele>815.34</ele>
        <time>2015-05-14T14:57:51Z</time>
      </trkpt>
      <trkpt lat="46.65713" lon="6.02267">
        <ele>813.41</ele>
        <time>2015-05-14T14:58:10Z</time>
      </trkpt>
      <trkpt lat="46.65706" lon="6.0225">
        <ele>812.45</ele>
        <time>2015-05-14T14:58:26Z</time>
      </trkpt>
      <trkpt lat="46.65705" lon="6.02244">
        <ele>812.45</ele>
        <time>2015-05-14T14:58:42Z</time>
      </trkpt>
      <trkpt lat="46.65705" lon="6.02243">
        <ele>811.97</ele>
        <time>2015-05-14T14:59:10Z</time>
      </trkpt>
      <trkpt lat="46.65705" lon="6.02231">
        <ele>811.97</ele>
        <time>2015-05-14T14:59:29Z</time>
      </trkpt>
      <trkpt lat="46.65696" lon="6.02211">
        <ele>811.97</ele>
        <time>2015-05-14T14:59:46Z</time>
      </trkpt>
      <trkpt lat="46.65684" lon="6.02186">
        <ele>811.49</ele>
        <time>2015-05-14T15:00:04Z</time>
      </trkpt>
      <trkpt lat="46.65673" lon="6.02157">
        <ele>810.53</ele>
        <time>2015-05-14T15:00:22Z</time>
      </trkpt>
      <trkpt lat="46.65664" lon="6.0213">
        <ele>808.61</ele>
        <time>2015-05-14T15:00:38Z</time>
      </trkpt>
      <trkpt lat="46.65652" lon="6.02108">
        <ele>807.64</ele>
        <time>2015-05-14T15:00:55Z</time>
      </trkpt>
      <trkpt lat="46.65631" lon="6.02092">
        <ele>807.16</ele>
        <time>2015-05-14T15:01:13Z</time>
      </trkpt>
      <trkpt lat="46.65609" lon="6.02086">
        <ele>807.16</ele>
        <time>2015-05-14T15:01:32Z</time>
      </trkpt>
      <trkpt lat="46.65589" lon="6.02078">
        <ele>806.2</ele>
        <time>2015-05-14T15:01:51Z</time>
      </trkpt>
      <trkpt lat="46.65575" lon="6.02071">
        <ele>805.24</ele>
        <time>2015-05-14T15:02:05Z</time>
      </trkpt>
      <trkpt lat="46.65555" lon="6.02057">
        <ele>802.84</ele>
        <time>2015-05-14T15:02:24Z</time>
      </trkpt>
      <trkpt lat="46.65535" lon="6.02042">
        <ele>801.4</ele>
        <time>2015-05-14T15:02:41Z</time>
      </trkpt>
      <trkpt lat="46.65521" lon="6.02025">
        <ele>799.47</ele>
        <time>2015-05-14T15:02:55Z</time>
      </trkpt>
      <trkpt lat="46.65503" lon="6.02006">
        <ele>797.07</ele>
        <time>2015-05-14T15:03:13Z</time>
      </trkpt>
      <trkpt lat="46.65485" lon="6.01991">
        <ele>794.67</ele>
        <time>2015-05-14T15:03:30Z</time>
      </trkpt>
      <trkpt lat="46.65469" lon="6.01971">
        <ele>792.26</ele>
        <time>2015-05-14T15:03:47Z</time>
      </trkpt>
      <trkpt lat="46.65449" lon="6.0195">
        <ele>791.78</ele>
        <time>2015-05-14T15:04:04Z</time>
      </trkpt>
      <trkpt lat="46.65429" lon="6.01941">
        <ele>789.86</ele>
        <time>2015-05-14T15:04:23Z</time>
      </trkpt>
      <trkpt lat="46.65413" lon="6.01931">
        <ele>787.94</ele>
        <time>2015-05-14T15:04:38Z</time>
      </trkpt>
      <trkpt lat="46.65402" lon="6.01926">
        <ele>784.57</ele>
        <time>2015-05-14T15:04:49Z</time>
      </trkpt>
      <trkpt lat="46.65402" lon="6.01926">
        <ele>788.42</ele>
        <time>2015-05-14T15:04:50Z</time>
      </trkpt>
      <trkpt lat="46.65402" lon="6.01924">
        <ele>786.02</ele>
        <time>2015-05-14T15:04:55Z</time>
      </trkpt>
      <trkpt lat="46.65403" lon="6.0192">
        <ele>786.02</ele>
        <time>2015-05-14T15:04:56Z</time>
      </trkpt>
      <trkpt lat="46.65403" lon="6.01918">
        <ele>786.02</ele>
        <time>2015-05-14T15:04:57Z</time>
      </trkpt>
      <trkpt lat="46.65403" lon="6.01909">
        <ele>786.02</ele>
        <time>2015-05-14T15:05:02Z</time>
      </trkpt>
      <trkpt lat="46.65403" lon="6.01908">
        <ele>786.02</ele>
        <time>2015-05-14T15:05:04Z</time>
      </trkpt>
      <trkpt lat="46.65402" lon="6.01909">
        <ele>786.02</ele>
        <time>2015-05-14T15:05:06Z</time>
      </trkpt>
      <trkpt lat="46.65472" lon="6.01838">
        <ele>786.5</ele>
        <time>2015-05-14T15:05:14Z</time>
      </trkpt>
      <trkpt lat="46.65555" lon="6.01756">
        <ele>786.5</ele>
        <time>2015-05-14T15:05:27Z</time>
      </trkpt>
      <trkpt lat="46.65534" lon="6.01764">
        <ele>786.98</ele>
        <time>2015-05-14T15:05:32Z</time>
      </trkpt>
      <trkpt lat="46.65449" lon="6.01843">
        <ele>786.02</ele>
        <time>2015-05-14T15:05:48Z</time>
      </trkpt>
      <trkpt lat="46.65414" lon="6.01857">
        <ele>785.05</ele>
        <time>2015-05-14T15:06:04Z</time>
      </trkpt>
      <trkpt lat="46.65401" lon="6.01859">
        <ele>784.57</ele>
        <time>2015-05-14T15:06:09Z</time>
      </trkpt>
      <trkpt lat="46.65367" lon="6.01846">
        <ele>782.65</ele>
        <time>2015-05-14T15:06:27Z</time>
      </trkpt>
      <trkpt lat="46.65364" lon="6.01842">
        <ele>782.17</ele>
        <time>2015-05-14T15:06:31Z</time>
      </trkpt>
      <trkpt lat="46.65346" lon="6.01832">
        <ele>779.77</ele>
        <time>2015-05-14T15:06:46Z</time>
      </trkpt>
      <trkpt lat="46.6532" lon="6.0182">
        <ele>776.4</ele>
        <time>2015-05-14T15:07:02Z</time>
      </trkpt>
      <trkpt lat="46.653" lon="6.018">
        <ele>773.52</ele>
        <time>2015-05-14T15:07:21Z</time>
      </trkpt>
      <trkpt lat="46.65286" lon="6.01786">
        <ele>772.08</ele>
        <time>2015-05-14T15:07:38Z</time>
      </trkpt>
      <trkpt lat="46.65271" lon="6.01765">
        <ele>769.67</ele>
        <time>2015-05-14T15:07:55Z</time>
      </trkpt>
      <trkpt lat="46.65256" lon="6.01733">
        <ele>768.23</ele>
        <time>2015-05-14T15:08:15Z</time>
      </trkpt>
      <trkpt lat="46.65253" lon="6.01726">
        <ele>766.79</ele>
        <time>2015-05-14T15:08:19Z</time>
      </trkpt>
      <trkpt lat="46.65246" lon="6.01703">
        <ele>764.39</ele>
        <time>2015-05-14T15:08:34Z</time>
      </trkpt>
      <trkpt lat="46.6524" lon="6.01671">
        <ele>761.98</ele>
        <time>2015-05-14T15:08:52Z</time>
      </trkpt>
      <trkpt lat="46.65236" lon="6.01637">
        <ele>760.54</ele>
        <time>2015-05-14T15:09:10Z</time>
      </trkpt>
      <trkpt lat="46.65239" lon="6.01596">
        <ele>757.66</ele>
        <time>2015-05-14T15:09:31Z</time>
      </trkpt>
      <trkpt lat="46.65241" lon="6.01589">
        <ele>756.21</ele>
        <time>2015-05-14T15:09:35Z</time>
      </trkpt>
      <trkpt lat="46.65251" lon="6.0156">
        <ele>754.29</ele>
        <time>2015-05-14T15:09:52Z</time>
      </trkpt>
      <trkpt lat="46.65263" lon="6.01545">
        <ele>750.93</ele>
        <time>2015-05-14T15:10:03Z</time>
      </trkpt>
      <trkpt lat="46.65263" lon="6.01544">
        <ele>750.93</ele>
        <time>2015-05-14T15:10:04Z</time>
      </trkpt>
      <trkpt lat="46.65271" lon="6.01535">
        <ele>750.45</ele>
        <time>2015-05-14T15:10:12Z</time>
      </trkpt>
      <trkpt lat="46.65285" lon="6.01514">
        <ele>747.08</ele>
        <time>2015-05-14T15:10:27Z</time>
      </trkpt>
      <trkpt lat="46.65305" lon="6.01488">
        <ele>744.68</ele>
        <time>2015-05-14T15:10:45Z</time>
      </trkpt>
      <trkpt lat="46.6531" lon="6.01482">
        <ele>743.72</ele>
        <time>2015-05-14T15:10:50Z</time>
      </trkpt>
      <trkpt lat="46.65324" lon="6.01459">
        <ele>740.83</ele>
        <time>2015-05-14T15:11:07Z</time>
      </trkpt>
      <trkpt lat="46.65341" lon="6.01435">
        <ele>737.95</ele>
        <time>2015-05-14T15:11:24Z</time>
      </trkpt>
      <trkpt lat="46.65349" lon="6.01423">
        <ele>736.03</ele>
        <time>2015-05-14T15:11:33Z</time>
      </trkpt>
      <trkpt lat="46.6537" lon="6.01404">
        <ele>733.14</ele>
        <time>2015-05-14T15:11:52Z</time>
      </trkpt>
      <trkpt lat="46.65385" lon="6.01384">
        <ele>730.74</ele>
        <time>2015-05-14T15:12:07Z</time>
      </trkpt>
      <trkpt lat="46.65391" lon="6.01374">
        <ele>729.78</ele>
        <time>2015-05-14T15:12:13Z</time>
      </trkpt>
      <trkpt lat="46.654" lon="6.01356">
        <ele>727.86</ele>
        <time>2015-05-14T15:12:25Z</time>
      </trkpt>
      <trkpt lat="46.65414" lon="6.0133">
        <ele>725.45</ele>
        <time>2015-05-14T15:12:45Z</time>
      </trkpt>
      <trkpt lat="46.65413" lon="6.01325">
        <ele>725.45</ele>
        <time>2015-05-14T15:13:03Z</time>
      </trkpt>
      <trkpt lat="46.65414" lon="6.01324">
        <ele>725.45</ele>
        <time>2015-05-14T15:13:21Z</time>
      </trkpt>
      <trkpt lat="46.65415" lon="6.01323">
        <ele>725.45</ele>
        <time>2015-05-14T15:13:34Z</time>
      </trkpt>
      <trkpt lat="46.65415" lon="6.0132">
        <ele>725.45</ele>
        <time>2015-05-14T15:13:50Z</time>
      </trkpt>
      <trkpt lat="46.65418" lon="6.0131">
        <ele>724.97</ele>
        <time>2015-05-14T15:14:04Z</time>
      </trkpt>
      <trkpt lat="46.65422" lon="6.01288">
        <ele>723.05</ele>
        <time>2015-05-14T15:14:20Z</time>
      </trkpt>
      <trkpt lat="46.65424" lon="6.0128">
        <ele>722.57</ele>
        <time>2015-05-14T15:14:27Z</time>
      </trkpt>
      <trkpt lat="46.65429" lon="6.01252">
        <ele>719.68</ele>
        <time>2015-05-14T15:14:45Z</time>
      </trkpt>
      <trkpt lat="46.65429" lon="6.01226">
        <ele>717.76</ele>
        <time>2015-05-14T15:15:00Z</time>
      </trkpt>
      <trkpt lat="46.65428" lon="6.01199">
        <ele>716.8</ele>
        <time>2015-05-14T15:15:16Z</time>
      </trkpt>
      <trkpt lat="46.65428" lon="6.01166">
        <ele>716.32</ele>
        <time>2015-05-14T15:15:34Z</time>
      </trkpt>
      <trkpt lat="46.65425" lon="6.01136">
        <ele>716.32</ele>
        <time>2015-05-14T15:15:50Z</time>
      </trkpt>
      <trkpt lat="46.65419" lon="6.01107">
        <ele>717.76</ele>
        <time>2015-05-14T15:16:07Z</time>
      </trkpt>
      <trkpt lat="46.65408" lon="6.01065">
        <ele>718.72</ele>
        <time>2015-05-14T15:16:29Z</time>
      </trkpt>
      <trkpt lat="46.654" lon="6.01025">
        <ele>719.68</ele>
        <time>2015-05-14T15:16:51Z</time>
      </trkpt>
      <trkpt lat="46.65392" lon="6.00991">
        <ele>719.68</ele>
        <time>2015-05-14T15:17:10Z</time>
      </trkpt>
      <trkpt lat="46.6538" lon="6.00954">
        <ele>720.65</ele>
        <time>2015-05-14T15:17:33Z</time>
      </trkpt>
      <trkpt lat="46.65381" lon="6.00929">
        <ele>719.2</ele>
        <time>2015-05-14T15:17:48Z</time>
      </trkpt>
      <trkpt lat="46.6538" lon="6.00923">
        <ele>719.2</ele>
        <time>2015-05-14T15:17:51Z</time>
      </trkpt>
      <trkpt lat="46.65372" lon="6.00919">
        <ele>719.2</ele>
        <time>2015-05-14T15:17:59Z</time>
      </trkpt>
      <trkpt lat="46.65355" lon="6.00905">
        <ele>717.28</ele>
        <time>2015-05-14T15:18:17Z</time>
      </trkpt>
      <trkpt lat="46.65351" lon="6.00899">
        <ele>716.8</ele>
        <time>2015-05-14T15:18:23Z</time>
      </trkpt>
      <trkpt lat="46.65336" lon="6.00887">
        <ele>714.88</ele>
        <time>2015-05-14T15:18:43Z</time>
      </trkpt>
      <trkpt lat="46.65335" lon="6.00886">
        <ele>714.88</ele>
        <time>2015-05-14T15:18:44Z</time>
      </trkpt>
      <trkpt lat="46.65329" lon="6.00856">
        <ele>713.44</ele>
        <time>2015-05-14T15:19:01Z</time>
      </trkpt>
      <trkpt lat="46.6534" lon="6.00817">
        <ele>712.47</ele>
        <time>2015-05-14T15:19:24Z</time>
      </trkpt>
      <trkpt lat="46.65342" lon="6.00809">
        <ele>711.99</ele>
        <time>2015-05-14T15:19:29Z</time>
      </trkpt>
      <trkpt lat="46.6534" lon="6.008">
        <ele>711.99</ele>
        <time>2015-05-14T15:19:35Z</time>
      </trkpt>
      <trkpt lat="46.65335" lon="6.00797">
        <ele>711.99</ele>
        <time>2015-05-14T15:19:48Z</time>
      </trkpt>
      <trkpt lat="46.65325" lon="6.0078">
        <ele>712.47</ele>
        <time>2015-05-14T15:20:07Z</time>
      </trkpt>
      <trkpt lat="46.65321" lon="6.00776">
        <ele>713.44</ele>
        <time>2015-05-14T15:20:11Z</time>
      </trkpt>
      <trkpt lat="46.65314" lon="6.00766">
        <ele>714.4</ele>
        <time>2015-05-14T15:20:20Z</time>
      </trkpt>
      <trkpt lat="46.65312" lon="6.00755">
        <ele>714.4</ele>
        <time>2015-05-14T15:20:26Z</time>
      </trkpt>
      <trkpt lat="46.65329" lon="6.00726">
        <ele>714.4</ele>
        <time>2015-05-14T15:20:46Z</time>
      </trkpt>
      <trkpt lat="46.65344" lon="6.00699">
        <ele>715.36</ele>
        <time>2015-05-14T15:21:05Z</time>
      </trkpt>
      <trkpt lat="46.65356" lon="6.00681">
        <ele>717.28</ele>
        <time>2015-05-14T15:21:21Z</time>
      </trkpt>
      <trkpt lat="46.65366" lon="6.0068">
        <ele>717.76</ele>
        <time>2015-05-14T15:21:38Z</time>
      </trkpt>
      <trkpt lat="46.6537" lon="6.00682">
        <ele>716.32</ele>
        <time>2015-05-14T15:21:52Z</time>
      </trkpt>
      <trkpt lat="46.65372" lon="6.00681">
        <ele>714.88</ele>
        <time>2015-05-14T15:22:06Z</time>
      </trkpt>
      <trkpt lat="46.65375" lon="6.00685">
        <ele>714.4</ele>
        <time>2015-05-14T15:22:25Z</time>
      </trkpt>
      <trkpt lat="46.65376" lon="6.00679">
        <ele>714.4</ele>
        <time>2015-05-14T15:22:45Z</time>
      </trkpt>
      <trkpt lat="46.65384" lon="6.00674">
        <ele>715.84</ele>
        <time>2015-05-14T15:22:58Z</time>
      </trkpt>
      <trkpt lat="46.65389" lon="6.0067">
        <ele>714.4</ele>
        <time>2015-05-14T15:23:22Z</time>
      </trkpt>
      <trkpt lat="46.65389" lon="6.00668">
        <ele>714.4</ele>
        <time>2015-05-14T15:23:23Z</time>
      </trkpt>
      <trkpt lat="46.65386" lon="6.00658">
        <ele>711.99</ele>
        <time>2015-05-14T15:23:35Z</time>
      </trkpt>
      <trkpt lat="46.6539" lon="6.00642">
        <ele>708.63</ele>
        <time>2015-05-14T15:23:49Z</time>
      </trkpt>
      <trkpt lat="46.65396" lon="6.00642">
        <ele>705.75</ele>
        <time>2015-05-14T15:24:01Z</time>
      </trkpt>
      <trkpt lat="46.65399" lon="6.00643">
        <ele>702.38</ele>
        <time>2015-05-14T15:24:13Z</time>
      </trkpt>
      <trkpt lat="46.65401" lon="6.00657">
        <ele>699.5</ele>
        <time>2015-05-14T15:24:26Z</time>
      </trkpt>
      <trkpt lat="46.65397" lon="6.00674">
        <ele>697.57</ele>
        <time>2015-05-14T15:24:42Z</time>
      </trkpt>
      <trkpt lat="46.65393" lon="6.00687">
        <ele>697.09</ele>
        <time>2015-05-14T15:24:57Z</time>
      </trkpt>
      <trkpt lat="46.65394" lon="6.00699">
        <ele>697.09</ele>
        <time>2015-05-14T15:25:28Z</time>
      </trkpt>
      <trkpt lat="46.654" lon="6.007">
        <ele>697.09</ele>
        <time>2015-05-14T15:25:56Z</time>
      </trkpt>
      <trkpt lat="46.65406" lon="6.00677">
        <ele>698.53</ele>
        <time>2015-05-14T15:26:15Z</time>
      </trkpt>
      <trkpt lat="46.65406" lon="6.00666">
        <ele>699.5</ele>
        <time>2015-05-14T15:26:39Z</time>
      </trkpt>
      <trkpt lat="46.65406" lon="6.00669">
        <ele>697.57</ele>
        <time>2015-05-14T15:27:02Z</time>
      </trkpt>
      <trkpt lat="46.65415" lon="6.00668">
        <ele>694.21</ele>
        <time>2015-05-14T15:27:14Z</time>
      </trkpt>
      <trkpt lat="46.6542" lon="6.00672">
        <ele>691.33</ele>
        <time>2015-05-14T15:27:25Z</time>
      </trkpt>
      <trkpt lat="46.65429" lon="6.00681">
        <ele>691.33</ele>
        <time>2015-05-14T15:27:38Z</time>
      </trkpt>
      <trkpt lat="46.6543" lon="6.00682">
        <ele>692.77</ele>
        <time>2015-05-14T15:27:40Z</time>
      </trkpt>
      <trkpt lat="46.65433" lon="6.00684">
        <ele>693.73</ele>
        <time>2015-05-14T15:27:52Z</time>
      </trkpt>
      <trkpt lat="46.65437" lon="6.00692">
        <ele>693.73</ele>
        <time>2015-05-14T15:28:21Z</time>
      </trkpt>
      <trkpt lat="46.65435" lon="6.00675">
        <ele>695.65</ele>
        <time>2015-05-14T15:28:36Z</time>
      </trkpt>
      <trkpt lat="46.65436" lon="6.00668">
        <ele>699.02</ele>
        <time>2015-05-14T15:28:48Z</time>
      </trkpt>
      <trkpt lat="46.65445" lon="6.00651">
        <ele>700.46</ele>
        <time>2015-05-14T15:29:02Z</time>
      </trkpt>
      <trkpt lat="46.65455" lon="6.00631">
        <ele>700.94</ele>
        <time>2015-05-14T15:29:16Z</time>
      </trkpt>
      <trkpt lat="46.65467" lon="6.00621">
        <ele>701.42</ele>
        <time>2015-05-14T15:29:26Z</time>
      </trkpt>
      <trkpt lat="46.65482" lon="6.00602">
        <ele>701.9</ele>
        <time>2015-05-14T15:29:41Z</time>
      </trkpt>
      <trkpt lat="46.65496" lon="6.00581">
        <ele>702.38</ele>
        <time>2015-05-14T15:29:57Z</time>
      </trkpt>
      <trkpt lat="46.65498" lon="6.00579">
        <ele>702.38</ele>
        <time>2015-05-14T15:29:59Z</time>
      </trkpt>
      <trkpt lat="46.65517" lon="6.00562">
        <ele>700.46</ele>
        <time>2015-05-14T15:30:15Z</time>
      </trkpt>
      <trkpt lat="46.65521" lon="6.00557">
        <ele>700.46</ele>
        <time>2015-05-14T15:30:19Z</time>
      </trkpt>
      <trkpt lat="46.65537" lon="6.00532">
        <ele>700.46</ele>
        <time>2015-05-14T15:30:37Z</time>
      </trkpt>
      <trkpt lat="46.6555" lon="6.00517">
        <ele>699.5</ele>
        <time>2015-05-14T15:30:52Z</time>
      </trkpt>
      <trkpt lat="46.65564" lon="6.00497">
        <ele>699.5</ele>
        <time>2015-05-14T15:31:07Z</time>
      </trkpt>
      <trkpt lat="46.65571" lon="6.00483">
        <ele>696.13</ele>
        <time>2015-05-14T15:31:17Z</time>
      </trkpt>
      <trkpt lat="46.65577" lon="6.00489">
        <ele>695.65</ele>
        <time>2015-05-14T15:31:24Z</time>
      </trkpt>
      <trkpt lat="46.6558" lon="6.00504">
        <ele>696.13</ele>
        <time>2015-05-14T15:31:37Z</time>
      </trkpt>
      <trkpt lat="46.65587" lon="6.00521">
        <ele>695.65</ele>
        <time>2015-05-14T15:31:49Z</time>
      </trkpt>
      <trkpt lat="46.65592" lon="6.00539">
        <ele>697.09</ele>
        <time>2015-05-14T15:32:03Z</time>
      </trkpt>
      <trkpt lat="46.65591" lon="6.00539">
        <ele>697.09</ele>
        <time>2015-05-14T15:32:07Z</time>
      </trkpt>
      <trkpt lat="46.6559" lon="6.00546">
        <ele>697.09</ele>
        <time>2015-05-14T15:32:24Z</time>
      </trkpt>
      <trkpt lat="46.65593" lon="6.00548">
        <ele>697.09</ele>
        <time>2015-05-14T15:33:02Z</time>
      </trkpt>
      <trkpt lat="46.65592" lon="6.0055">
        <ele>697.09</ele>
        <time>2015-05-14T15:33:27Z</time>
      </trkpt>
      <trkpt lat="46.65591" lon="6.0055">
        <ele>697.57</ele>
        <time>2015-05-14T15:33:50Z</time>
      </trkpt>
    </trkseg>
  </trk>
</gpx>